[[{"header":{"parameterUnit":"m.s-1","parameterCategory":1,"la1":30.6,"la2":28.766,"lo1":-90.7593,"lo2":-88.6598,"dy":0.0162,"dx":0.0183,"nx":116,"ny":114,"refTime":"2024-05-29T06:00:00:Z","depth":0,"parameterNumber":2,"parameterNumberName":"U-component_of_WINDS"},"data":[0.0,0.0,0.0,0.0,0.0,0.0,0.0,0.0,0.0,0.0,0.0,0.0,0.0,0.0,0.0,0.0,0.0,0.0,0.0,0.0,0.0,0.0,0.0,0.0,0.0,0.0,0.0,0.0,0.0,0.0,0.0,0.0,0.0,0.0,0.0,0.0,0.0,0.0,0.0,0.0,0.0,0.0,0.0,0.0,0.0,0.0,0.0,0.0,0.0,0.0,0.0,0.0,0.0,0.0,0.0,0.0,0.0,0.0,0.0,0.0,0.0,0.0,0.0,0.0,0.0,0.0,0.0,0.0,0.0,0.0,0.0,0.0,0.0,0.0,0.0,0.0,0.0,0.0,0.0,0.0,0.0,0.0,0.0,0.0,0.0,0.0,0.0,0.0,0.0,0.0,0.0,0.0,0.0,0.0,0.0,0.0,0.0,0.0,0.0,0.0,0.0,0.0,0.0,0.0,0.0,0.0,0.0,0.0,0.0,0.0,0.0,0.0,0.0,0.0,0.0,0.0,0.0,0.0,0.0,0.0,0.0,0.0,0.0,0.0,0.0,0.0,0.0,0.0,0.0,0.0,0.0,0.0,0.0,0.0,0.0,0.0,0.0,0.0,0.0,0.0,0.0,0.0,0.0,0.0,0.0,0.0,0.0,0.0,0.0,0.0,0.0,0.0,0.0,0.0,0.0,0.0,0.0,0.0,0.0,0.0,0.0,0.0,0.0,0.0,0.0,0.0,0.0,0.0,0.0,0.0,0.0,0.0,0.0,0.0,0.0,0.0,0.0,0.0,0.0,0.0,0.0,0.0,0.0,0.0,0.0,0.0,0.0,0.0,0.0,0.0,0.0,0.0,0.0,0.0,0.0,0.0,0.0,0.0,0.0,0.0,0.0,0.0,0.0,0.0,0.0,0.0,0.0,0.0,0.0,0.0,0.0,0.0,0.0,0.0,0.0,0.0,0.0,0.0,0.0,0.0,0.0,0.0,0.0,0.0,0.0,0.0,0.0,0.0,0.0,0.0,0.0,0.0,0.0,0.0,0.0,0.0,0.0,0.0,0.0,0.0,0.0,0.0,0.0,0.0,0.0,0.0,0.0,0.0,0.0,0.0,0.0,0.0,0.0,0.0,0.0,0.0,0.0,0.0,0.0,0.0,0.0,0.0,0.0,0.0,0.0,0.0,0.0,0.0,0.0,0.0,0.0,0.0,0.0,0.0,0.0,0.0,0.0,0.0,0.0,0.0,0.0,0.0,0.0,0.0,0.0,0.0,0.0,0.0,0.0,0.0,0.0,0.0,0.0,0.0,0.0,0.0,0.0,0.0,0.0,0.0,0.0,0.0,0.0,0.0,0.0,0.0,0.0,0.0,0.0,0.0,0.0,0.0,0.0,0.0,0.0,0.0,0.0,0.0,0.0,0.0,0.0,0.0,0.0,0.0,0.0,0.0,0.0,0.0,0.0,0.0,0.0,0.0,0.0,0.0,0.0,0.0,0.0,0.0,0.0,0.0,0.0,0.0,0.0,0.0,0.0,0.0,0.0,0.0,0.0,0.0,0.0,0.0,0.0,0.0,0.0,0.0,0.0,0.0,0.0,0.0,0.0,0.0,0.0,0.0,0.0,0.0,0.0,0.0,0.0,0.0,0.0,0.0,0.0,0.0,0.0,0.0,0.0,0.0,0.0,0.0,0.0,0.0,0.0,0.0,0.0,0.0,0.0,0.0,0.0,0.0,0.0,0.0,0.0,0.0,0.0,0.0,0.0,0.0,0.0,0.0,0.0,0.0,0.0,0.0,0.0,0.0,0.0,0.0,0.0,0.0,0.0,0.0,0.0,0.0,0.0,0.0,0.0,0.0,0.0,0.0,0.0,0.0,0.0,0.0,0.0,0.0,0.0,0.0,0.0,0.0,0.0,0.0,0.0,0.0,0.0,0.0,0.0,0.0,0.0,0.0,0.0,0.0,0.0,0.0,0.0,0.0,0.0,0.0,0.0,0.0,0.0,0.0,0.0,0.0,0.0,0.0,0.0,0.0,0.0,0.0,0.0,0.0,0.0,0.0,0.0,0.0,0.0,0.0,0.0,0.0,0.0,0.0,0.0,0.0,0.0,0.0,0.0,0.0,0.0,0.0,0.0,0.0,0.0,0.0,0.0,0.0,0.0,0.0,0.0,0.0,0.0,0.0,0.0,0.0,0.0,0.0,0.0,0.0,0.0,0.0,0.0,0.0,0.0,0.0,0.0,0.0,0.0,0.0,0.0,0.0,0.0,0.0,0.0,0.0,0.0,0.0,0.0,0.0,0.0,0.0,0.0,0.0,0.0,0.0,0.0,0.0,0.0,0.0,0.0,0.0,0.0,0.0,0.0,0.0,0.0,0.0,0.0,0.0,0.0,0.0,0.0,0.0,0.0,0.0,0.0,0.0,0.0,0.0,0.0,0.0,0.0,0.0,0.0,0.0,0.0,0.0,0.0,0.0,0.0,0.0,0.0,0.0,0.0,0.0,0.0,0.0,0.0,0.0,0.0,0.0,0.0,0.0,0.0,0.0,0.0,0.0,0.0,0.0,0.0,0.0,0.0,0.0,0.0,0.0,0.0,0.0,0.0,0.0,0.0,0.0,0.0,0.0,0.0,0.0,0.0,0.0,0.0,0.0,0.0,0.0,0.0,0.0,0.0,0.0,0.0,0.0,0.0,0.0,0.0,0.0,0.0,0.0,0.0,0.0,0.0,0.0,0.0,0.0,0.0,0.0,0.0,0.0,0.0,0.0,0.0,0.0,0.0,0.0,0.0,0.0,0.0,0.0,0.0,0.0,0.0,0.0,0.0,0.0,0.0,0.0,0.0,0.0,0.0,0.0,0.0,0.0,0.0,0.0,0.0,0.0,0.0,0.0,0.0,0.0,0.0,0.0,0.0,0.0,0.0,0.0,0.0,0.0,0.0,0.0,0.0,0.0,0.0,0.0,0.0,0.0,0.0,0.0,0.0,0.0,0.0,0.0,0.0,0.0,0.0,0.0,0.0,0.0,0.0,0.0,0.0,0.0,0.0,0.0,0.0,0.0,0.0,0.0,0.0,0.0,0.0,0.0,0.0,0.0,0.0,0.0,0.0,0.0,0.0,0.0,0.0,0.0,0.0,0.0,0.0,0.0,0.0,0.0,0.0,0.0,0.0,0.0,0.0,0.0,0.0,0.0,0.0,0.0,0.0,0.0,0.0,0.0,0.0,0.0,0.0,0.0,0.0,0.0,0.0,0.0,0.0,0.0,0.0,0.0,0.0,0.0,0.0,0.0,0.0,0.0,0.0,0.0,0.0,0.0,0.0,0.0,0.0,0.0,0.0,0.0,0.0,0.0,0.0,0.0,0.0,0.0,0.0,0.0,0.0,0.0,0.0,0.0,0.0,0.0,0.0,0.0,0.0,0.0,0.0,0.0,0.0,0.0,0.0,0.0,0.0,0.0,0.0,0.0,0.0,0.0,0.0,0.0,0.0,0.0,0.0,0.0,0.0,0.0,0.0,0.0,0.0,0.0,0.0,0.0,0.0,0.0,0.0,0.0,0.0,0.0,0.0,0.0,0.0,0.0,0.0,0.0,0.0,0.0,0.0,0.0,0.0,0.0,0.0,0.0,0.0,0.0,0.0,0.0,0.0,0.0,0.0,0.0,0.0,0.0,0.0,0.0,0.0,0.0,0.0,0.0,0.0,0.0,0.0,0.0,0.0,0.0,0.0,0.0,0.0,0.0,0.0,0.0,0.0,0.0,0.0,0.0,0.0,0.0,0.0,0.0,0.0,0.0,0.0,0.0,0.0,0.0,0.0,0.0,0.0,0.0,0.0,0.0,0.0,0.0,0.0,0.0,0.0,0.0,0.0,0.0,0.0,0.0,0.0,0.0,0.0,0.0,0.0,0.0,0.0,0.0,0.0,0.0,0.0,0.0,0.0,0.0,0.0,0.0,0.0,0.0,0.0,0.0,0.0,0.0,0.0,0.0,0.0,0.0,0.0,0.0,0.0,0.0,0.0,0.0,0.0,0.0,0.0,0.0,0.0,0.0,0.0,0.0,0.0,0.0,0.0,0.0,0.0,0.0,0.0,0.0,0.0,0.0,0.0,0.0,0.0,0.0,0.0,0.0,0.0,0.0,0.0,0.0,0.0,0.0,0.0,0.0,0.0,0.0,0.0,0.0,0.0,0.0,0.0,0.0,0.0,0.0,0.0,0.0,0.0,0.0,0.0,0.0,0.0,0.0,0.0,0.0,0.0,0.0,0.0,0.0,0.0,0.0,0.0,0.0,0.0,0.0,0.0,0.0,0.0,0.0,0.0,0.0,0.0,0.0,0.0,0.0,0.0,0.0,0.0,0.0,0.0,0.0,0.0,0.0,0.0,0.0,0.0,0.0,0.0,0.0,0.0,0.0,0.0,0.0,0.0,0.0,0.0,0.0,0.0,0.0,0.0,0.0,0.0,0.0,0.0,0.0,0.0,0.0,0.0,0.0,0.0,0.0,0.0,0.0,0.0,0.0,0.0,0.0,0.0,0.0,0.0,0.0,0.0,0.0,0.0,0.0,0.0,0.0,0.0,0.0,0.0,0.0,0.0,0.0,0.0,0.0,0.0,0.0,0.0,0.0,0.0,0.0,0.0,0.0,0.0,0.0,0.0,0.0,0.0,0.0,0.0,0.0,0.0,0.0,0.0,0.0,0.0,0.0,0.0,0.0,0.0,0.0,0.0,0.0,0.0,0.0,0.0,0.0,0.0,0.0,0.0,0.0,0.0,0.0,0.0,0.0,0.0,0.0,0.0,0.0,0.0,0.0,0.0,0.0,0.0,0.0,0.0,0.0,0.0,0.0,0.0,0.0,0.0,0.0,0.0,0.0,0.0,0.0,0.0,0.0,0.0,0.0,0.0,0.0,0.0,0.0,0.0,0.0,0.0,0.0,0.0,0.0,0.0,0.0,0.0,0.0,0.0,0.0,0.0,0.0,0.0,0.0,0.0,0.0,0.0,0.0,0.0,0.0,0.0,0.0,0.0,0.0,0.0,0.0,0.0,0.0,0.0,0.0,0.0,0.0,0.0,0.0,0.0,0.0,0.0,0.0,0.0,0.0,0.0,0.0,0.0,0.0,0.0,0.0,0.0,0.0,0.0,0.0,0.0,0.0,0.0,0.0,0.0,0.0,0.0,0.0,0.0,0.0,0.0,0.0,0.0,0.0,0.0,0.0,0.0,0.0,0.0,0.0,0.0,0.0,0.0,0.0,0.0,0.0,0.0,0.0,0.0,0.0,0.0,0.0,0.0,0.0,0.0,0.0,0.0,0.0,0.0,0.0,0.0,0.0,0.0,0.0,0.0,0.0,0.0,0.0,0.0,0.0,0.0,0.0,0.0,0.0,0.0,0.0,0.0,0.0,0.0,0.0,0.0,0.0,0.0,0.0,0.0,0.0,0.0,0.0,0.0,0.0,0.0,0.0,0.0,0.0,0.0,0.0,0.0,0.0,0.0,0.0,0.0,0.0,0.0,0.0,0.0,0.0,0.0,0.0,0.0,0.0,0.0,0.0,0.0,0.0,0.0,0.0,0.0,0.0,0.0,0.0,0.0,0.0,0.0,0.0,0.0,0.0,0.0,0.0,0.0,0.0,0.0,0.0,0.0,0.0,0.0,0.0,0.0,0.0,0.0,0.0,0.0,0.0,0.0,0.0,0.0,0.0,0.0,0.0,0.0,0.0,0.0,0.0,0.0,0.0,0.0,0.0,0.0,0.0,0.0,0.0,0.0,0.0,0.0,0.0,0.0,0.0,0.0,0.0,0.0,0.0,0.0,0.0,0.0,0.0,0.0,0.0,0.0,0.0,0.0,0.0,0.0,0.0,0.0,0.0,0.0,0.0,0.0,0.0,0.0,0.0,0.0,0.0,0.0,0.0,0.0,0.0,0.0,0.0,0.0,0.0,0.0,0.0,0.0,0.0,0.0,0.0,0.0,0.0,0.0,0.0,0.0,0.0,0.0,0.0,0.0,0.0,0.0,0.0,0.0,0.0,0.0,0.0,0.0,0.0,0.0,0.0,0.0,0.0,0.0,0.0,0.0,0.0,0.0,0.0,0.0,0.0,0.0,0.0,-2.4188,-2.2519,0.0,0.0,0.0,0.0,0.0,0.0,0.0,0.0,0.0,0.0,0.0,0.0,0.0,0.0,0.0,0.0,0.0,0.0,0.0,0.0,0.0,0.0,0.0,-1.0659,-1.1058,-1.1448,-1.1856,-1.2095,-1.2095,0.0,0.0,0.0,0.0,0.0,-1.0851,-1.0851,-1.1434,-1.2635,-1.3044,-1.4059,-1.5607,-1.5141,-1.4334,-1.3227,0.0,0.0,0.0,0.0,0.0,0.0,0.0,0.0,0.0,0.0,0.0,0.0,0.0,0.0,0.0,0.0,0.0,0.0,0.0,0.0,0.0,0.0,0.0,0.0,0.0,0.0,0.0,0.0,0.0,0.0,0.0,0.0,0.0,0.0,0.0,0.0,0.0,0.0,0.0,0.0,0.0,0.0,0.0,0.0,0.0,0.0,0.0,0.0,0.0,0.0,0.0,0.0,0.0,0.0,0.0,0.0,0.0,0.0,0.0,0.0,0.0,0.0,0.0,0.0,0.0,0.0,0.0,0.0,0.0,0.0,-2.8865,-2.7252,0.0,0.0,0.0,0.0,0.0,0.0,0.0,0.0,0.0,0.0,0.0,0.0,0.0,0.0,0.0,0.0,0.0,0.0,0.0,0.0,0.0,-1.008,-1.1013,-1.1352,-1.1852,-1.2664,-1.2719,-1.2719,-1.2719,-1.259,0.0,0.0,0.0,-1.2242,-1.2095,-1.2247,-1.3104,-1.4714,-1.5411,-1.686,-1.897,-1.9785,-1.8739,-1.6163,-1.5447,0.0,0.0,0.0,0.0,0.0,0.0,0.0,0.0,0.0,0.0,0.0,0.0,0.0,0.0,0.0,0.0,0.0,0.0,0.0,0.0,0.0,0.0,0.0,0.0,0.0,0.0,0.0,0.0,0.0,0.0,0.0,0.0,0.0,0.0,0.0,0.0,0.0,0.0,0.0,0.0,0.0,0.0,0.0,0.0,0.0,0.0,0.0,0.0,0.0,0.0,0.0,0.0,0.0,0.0,0.0,0.0,0.0,0.0,0.0,0.0,0.0,0.0,0.0,-3.5422,-3.6274,-3.6651,-3.6841,-3.7331,-3.7813,-3.4206,-3.3033,-3.3398,-3.0117,0.0,0.0,0.0,0.0,0.0,0.0,0.0,0.0,0.0,0.0,0.0,0.0,0.0,0.0,0.0,0.0,0.0,0.0,0.0,-1.0894,-1.1847,-1.3191,-1.4347,-1.5166,-1.5239,-1.5239,-1.5239,-1.4573,0.0,0.0,-1.3133,-1.2821,-1.2113,-1.2779,-1.3941,-1.5545,-1.9095,-2.1363,-2.2364,-2.318,-2.3327,-2.2776,-1.9216,-1.7564,-1.7326,0.0,0.0,0.0,0.0,0.0,0.0,0.0,0.0,0.0,0.0,0.0,0.0,0.0,0.0,0.0,0.0,0.0,0.0,0.0,0.0,0.0,0.0,0.0,0.0,0.0,0.0,0.0,0.0,0.0,0.0,0.0,0.0,0.0,0.0,0.0,0.0,0.0,0.0,0.0,0.0,0.0,-2.1324,-2.3199,0.0,0.0,0.0,0.0,0.0,0.0,0.0,0.0,0.0,0.0,0.0,0.0,0.0,-3.2757,-3.3801,-3.6993,-3.8323,-3.7822,-4.0922,-4.1682,-4.0409,-4.1117,-4.151,-4.1588,-4.1016,0.0,-3.5305,-3.3377,0.0,0.0,0.0,0.0,0.0,0.0,0.0,0.0,0.0,0.0,0.0,0.0,0.0,0.0,0.0,0.0,0.0,0.0,0.0,0.0,0.0,-1.4171,-1.5674,-1.694,-1.7461,-1.7344,-1.6438,-1.6046,-1.5301,-1.4022,-1.3967,-1.4022,-1.4119,-1.4903,-1.6787,-1.9803,-2.296,-2.4685,-2.5024,-2.5383,-2.5548,-2.5474,-2.3676,-2.1877,-2.005,-1.8041,0.0,0.0,0.0,0.0,0.0,0.0,0.0,0.0,0.0,0.0,0.0,0.0,0.0,0.0,0.0,0.0,0.0,0.0,0.0,0.0,0.0,0.0,0.0,0.0,0.0,0.0,0.0,0.0,0.0,0.0,0.0,0.0,0.0,0.0,0.0,0.0,0.0,0.0,0.0,-2.0668,-2.3893,-2.4619,-2.5279,-2.5433,0.0,0.0,0.0,0.0,0.0,0.0,0.0,0.0,0.0,-3.4901,-3.6133,-3.7448,-3.8877,-4.0843,-4.1928,-4.2104,-4.3604,-4.4164,-4.3867,-4.4304,-4.439,-4.4222,-4.4326,-4.2976,-4.0483,-3.789,-3.5517,-3.3307,0.0,0.0,0.0,0.0,-3.118,-3.1386,0.0,0.0,0.0,0.0,0.0,0.0,0.0,0.0,0.0,0.0,0.0,0.0,-1.3865,-1.5599,-1.7277,-1.8904,-1.9381,-1.9106,-1.7899,-1.7238,-1.6376,-1.5166,-1.4915,-1.5172,-1.5986,-1.7631,-2.0052,-2.3299,-2.5923,-2.7207,-2.7226,-2.764,-2.7824,-2.7824,-2.7622,-2.5841,-2.2914,-2.1041,-1.9095,-1.7075,0.0,0.0,0.0,0.0,0.0,0.0,0.0,0.0,0.0,0.0,0.0,0.0,0.0,0.0,0.0,0.0,0.0,0.0,0.0,0.0,0.0,0.0,0.0,0.0,0.0,0.0,0.0,0.0,0.0,0.0,0.0,0.0,0.0,0.0,0.0,0.0,0.0,-2.3548,-2.6289,-2.6217,-2.8198,-2.9115,0.0,0.0,0.0,0.0,0.0,0.0,-3.4439,-3.5506,-3.7063,-3.9282,-4.0356,-4.1535,-4.2855,-4.3711,-4.4455,-4.5101,-4.5101,-4.5395,-4.5939,-4.6022,-4.5933,-4.571,-4.5853,-4.5492,-4.4588,-4.1706,-3.9455,-3.7666,-3.6029,-3.4805,-3.4159,-3.5555,-3.5841,-3.5886,0.0,0.0,0.0,0.0,0.0,0.0,0.0,0.0,0.0,0.0,0.0,-1.3859,-1.6423,-1.8144,-1.9793,-2.1464,-2.0886,-2.0419,-2.0319,-1.8174,-1.6872,-1.678,-1.6059,-1.6022,-1.6817,-2.0676,-2.3171,-2.4135,-2.7317,-2.8877,-2.8913,-3.0448,-3.1158,-3.114,-3.0356,-2.8668,-2.6198,-2.3813,-2.2299,-2.1206,-1.8016,0.0,0.0,0.0,0.0,0.0,0.0,0.0,0.0,0.0,0.0,0.0,0.0,0.0,0.0,0.0,0.0,0.0,0.0,0.0,0.0,0.0,0.0,0.0,0.0,0.0,0.0,0.0,0.0,0.0,0.0,0.0,0.0,0.0,0.0,0.0,0.0,0.0,0.0,-2.8926,-3.2029,0.0,0.0,0.0,0.0,-3.4007,-3.4865,-3.6163,-3.8031,-3.968,-4.0984,-4.1883,-4.3563,-4.4433,-4.4382,-4.5182,-4.5608,-4.5653,-4.5653,-4.5685,-4.5717,-4.5724,-4.5724,-4.571,-4.5717,-4.5691,-4.549,-4.375,-4.1947,-4.0215,-3.9231,-3.8265,-3.7554,-3.8413,-3.9214,-3.9919,0.0,0.0,0.0,0.0,0.0,-0.9104,-0.9104,-0.9104,-0.9395,-1.0231,-1.2347,-1.4514,-1.6486,-1.9212,-2.1353,-2.2464,-2.2758,-2.2446,-2.14,-1.9528,-1.8445,-1.8445,-1.7172,-1.7851,-2.0768,-2.3272,-2.5456,-2.7281,-2.895,-3.0044,-3.0558,-3.114,-3.1397,-3.1397,-3.1103,-3.0485,-2.9494,-2.6557,-2.4253,-2.2428,-2.0721,-1.8438,0.0,0.0,0.0,0.0,0.0,0.0,0.0,0.0,0.0,0.0,0.0,0.0,0.0,0.0,0.0,0.0,0.0,0.0,0.0,0.0,0.0,0.0,0.0,0.0,0.0,0.0,0.0,0.0,0.0,0.0,0.0,0.0,0.0,0.0,0.0,0.0,0.0,-3.3087,-3.5764,0.0,-3.5777,-3.6498,-3.7391,-3.8322,-3.9226,-4.0491,-4.2294,-4.2923,-4.3844,-4.5215,-4.5861,-4.6441,-4.6938,-4.7228,-4.7371,-4.7371,-4.7371,-4.7318,-4.7174,-4.7299,-4.7254,-4.7031,-4.6611,-4.6324,-4.6129,-4.5015,-4.3918,-4.2912,-4.2588,-4.1862,-4.1074,-4.1886,-4.2382,-4.2736,0.0,0.0,0.0,0.0,-0.9104,-0.9104,-0.9104,-0.9311,-0.9841,-1.091,-1.3283,-1.5604,-1.7508,-2.0308,-2.2401,-2.3196,-2.384,-2.3749,-2.2675,-2.106,-2.0142,-2.0142,-1.9373,-2.0346,-2.3336,-2.5511,-2.7402,-2.9005,-3.0344,-3.1274,-3.1806,-3.2082,-3.2223,-3.2192,-3.1935,-3.1806,-3.1641,-2.9237,-2.6979,-2.4914,-2.3557,-2.1547,-1.9208,0.0,0.0,0.0,0.0,0.0,0.0,0.0,0.0,0.0,0.0,0.0,0.0,0.0,0.0,0.0,0.0,0.0,0.0,0.0,0.0,0.0,0.0,0.0,0.0,0.0,0.0,0.0,0.0,0.0,0.0,0.0,0.0,0.0,0.0,0.0,-3.4918,-3.5743,-3.8642,-4.0094,-3.8858,-3.9856,-4.095,-4.1879,-4.2789,-4.3898,-4.5331,-4.5641,-4.625,-4.7306,-4.7344,-4.7582,-4.8139,-4.8139,-4.8139,-4.8139,-4.8139,-4.8048,-4.7952,-4.8076,-4.802,-4.778,-4.7336,-4.7066,-4.6901,-4.6366,-4.5876,-4.5428,-4.4853,-4.4241,-4.3711,-4.4246,-4.4437,-4.4532,0.0,0.0,0.0,-0.9104,-0.9104,-0.9104,-0.9104,-0.972,-1.0805,-1.2479,-1.4769,-1.7162,-1.9631,-2.1538,-2.2942,-2.3723,-2.4054,-2.419,-2.419,-2.2694,-2.1812,-2.1831,-2.263,-2.3492,-2.4337,-2.7391,-2.9042,-2.9115,-3.1445,-3.2601,-3.2656,-3.344,-3.3807,-3.377,-3.2986,-3.2638,-3.2583,-3.1806,-3.0558,-2.8895,-2.6476,-2.5026,-2.4006,0.0,0.0,0.0,0.0,0.0,0.0,0.0,0.0,0.0,0.0,0.0,0.0,0.0,0.0,0.0,0.0,0.0,0.0,0.0,0.0,0.0,0.0,0.0,0.0,0.0,0.0,0.0,0.0,0.0,0.0,0.0,0.0,0.0,-3.0747,-3.4956,-3.7777,-3.6867,-4.0658,-4.2686,-4.0923,-4.2357,-4.3756,-4.4595,-4.5415,-4.6213,-4.6996,-4.7832,-4.8216,-4.8039,-4.8039,-4.798,-4.7884,-4.7884,-4.7884,-4.7884,-4.7884,-4.7884,-4.7884,-4.7884,-4.7884,-4.7884,-4.7845,-4.7845,-4.7845,-4.7807,-4.7788,-4.7635,-4.5984,-4.5345,-4.5326,-4.5307,-4.5307,-4.5307,0.0,0.0,-0.9104,-0.9104,-0.9104,-0.9104,-0.9104,-0.972,-1.0768,-1.2349,-1.5194,-1.7762,-1.9565,-2.1975,-2.356,-2.3777,-2.4054,-2.419,-2.419,-2.2694,-2.2069,-2.2648,-2.3988,-2.5658,-2.7647,-2.8546,-2.9867,-3.161,-3.2271,-3.2894,-3.3476,-3.3697,-3.3807,-3.3788,-3.3568,-3.3476,-3.3458,-3.322,-3.2559,-3.139,-2.8968,-2.7181,-2.575,0.0,0.0,0.0,0.0,0.0,0.0,0.0,0.0,0.0,0.0,0.0,0.0,0.0,0.0,0.0,0.0,0.0,0.0,0.0,0.0,0.0,0.0,0.0,0.0,0.0,0.0,0.0,0.0,0.0,0.0,0.0,0.0,-3.6032,-3.5926,-3.8612,-4.1012,-4.2101,-4.3748,-4.4626,-4.4121,-4.5062,-4.581,-4.6105,-4.6858,-4.7425,-4.7645,-4.7876,-4.8248,-4.8777,-4.8805,-4.907,-4.9614,-4.9614,-4.9614,-4.9614,-4.9614,-4.9614,-4.9614,-4.9614,-4.9614,-4.9576,-4.9003,-4.8735,-4.8697,-4.8067,-4.7788,-4.7693,-4.6596,-4.6175,-4.6099,-4.5507,-4.5307,-4.5307,0.0,-0.9104,-0.9104,-0.9104,-0.9104,-0.9104,-0.9104,-1.0019,-1.1246,-1.2759,-1.5758,-1.8318,-1.9835,-2.2171,-2.3595,-2.3513,-2.3925,-2.4004,-2.3569,-2.3079,-2.3171,-2.3969,-2.586,-2.7567,-2.8968,-2.9996,-3.1207,-3.2601,-3.2931,-3.3348,-3.3807,-3.3807,-3.3807,-3.3807,-3.3807,-3.3807,-3.3807,-3.3807,-3.3532,-3.2963,-3.1207,-2.9739,-2.8393,-2.6447,-2.5346,-2.4612,-2.3107,-2.2556,-2.2336,-2.0858,0.0,0.0,0.0,0.0,0.0,0.0,0.0,0.0,0.0,0.0,0.0,0.0,0.0,0.0,0.0,0.0,0.0,0.0,0.0,0.0,0.0,0.0,0.0,0.0,-3.6842,-3.9712,-4.0492,-4.1792,-4.3098,-4.4182,-4.4948,-4.5534,-4.5918,-4.6367,-4.6807,-4.7162,-4.7954,-4.84,-4.8398,-4.8723,-4.9113,-4.9595,-4.9595,-4.9824,-5.0302,-5.0302,-5.0302,-5.0302,-5.0302,-5.0302,-5.0302,-5.0302,-5.0302,-5.0264,-4.9805,-4.9595,-4.9557,-4.906,-4.885,0.0,0.0,0.0,0.0,0.0,-4.5793,-4.5755,0.0,-0.9104,-0.9104,-0.9104,-0.9104,-0.9104,-0.9104,-1.0405,-1.192,-1.3415,-1.621,-1.8631,-2.0102,-2.1978,-2.307,-2.2974,-2.3613,-2.3708,-2.2956,-2.3808,-2.4787,-2.576,-2.7849,-2.9133,-2.9409,-3.15,-3.2638,-3.2729,-3.3458,-3.3807,-3.3807,-3.3807,-3.3807,-3.3807,-3.3807,-3.3807,-3.3807,-3.3807,-3.3807,-3.3733,-3.3023,-3.2247,-3.1292,-2.9053,-2.8539,-2.8712,-2.6557,-2.5742,-2.5319,-2.3098,0.0,0.0,0.0,0.0,0.0,0.0,0.0,0.0,0.0,0.0,0.0,0.0,0.0,0.0,0.0,0.0,0.0,0.0,0.0,0.0,0.0,0.0,0.0,0.0,-4.0298,-4.253,-4.4125,-4.4355,-4.4336,-4.4346,-4.5065,-4.587,-4.6627,-4.6866,-4.7268,-4.7971,-4.8775,-4.9231,-4.9243,0.0,0.0,0.0,0.0,-5.0493,-5.0588,-5.0588,-5.055,-5.0455,-5.0455,-5.0397,-5.0302,-5.0302,-5.0302,-5.0302,-5.0302,-5.0302,-5.0302,-5.0302,-5.0302,-5.0149,-4.8552,-4.7884,-4.7712,-4.694,-4.6653,-4.6538,0.0,-0.9104,-0.9104,-0.9104,-0.9104,-0.9104,-0.9104,-1.0405,-1.192,-1.3415,-1.5718,-1.7811,-1.9344,-2.0578,-2.1542,-2.2084,-2.2668,-2.3522,-2.4772,-2.5042,-2.6109,-2.8198,-2.8748,-2.9904,-3.1867,-3.2362,-3.2913,-3.3568,-3.3715,-3.3807,-3.3807,-3.3807,-3.3807,-3.3807,-3.3807,-3.3807,-3.3807,-3.3807,-3.3807,-3.3788,-3.3623,-3.3091,-3.2252,-3.1127,-2.9989,-2.895,-2.8473,-2.7897,-2.7174,-2.6043,-2.5676,-2.5493,-2.453,0.0,0.0,0.0,0.0,0.0,0.0,0.0,0.0,0.0,0.0,0.0,0.0,0.0,0.0,0.0,0.0,0.0,0.0,0.0,0.0,-3.9553,-4.2089,-4.415,-4.5101,-4.5255,-4.5217,-4.518,-4.5975,-4.657,-4.6685,-4.7871,-4.8701,-4.8862,-4.9621,-5.0065,-5.0073,-5.0225,-5.0627,-5.1322,-5.1353,-5.1658,-5.2308,-5.2308,-5.1983,-5.1353,0.0,0.0,-5.0302,-5.0302,-5.0302,-5.0302,-5.0302,-5.0302,-5.0302,-5.0302,-5.0302,-5.0206,-4.9232,-4.843,-4.7769,-4.7616,-4.754,-4.7521,-0.9104,-0.9104,-0.9104,-0.9104,-0.9104,-0.9104,-0.9104,-1.0071,-1.135,-1.2845,-1.5029,-1.7036,-1.8579,-1.9653,-2.0346,-2.0581,-2.1056,-2.2322,-2.4639,-2.5172,-2.6476,-2.8895,-2.9757,-3.0962,-3.2564,-3.2986,-3.3403,-3.3807,-3.3807,-3.3807,-3.3807,-3.3807,-3.3807,-3.3807,-3.3807,-3.3807,-3.3807,-3.3807,-3.3807,-3.3807,-3.3807,-3.3568,-3.3109,-3.232,-3.1513,-3.0693,-2.9886,-2.9347,-2.8815,-2.7603,-2.72,-2.7053,-2.6245,-2.4897,-2.3548,0.0,0.0,0.0,0.0,0.0,0.0,0.0,0.0,0.0,0.0,0.0,0.0,0.0,0.0,-3.3362,0.0,0.0,-4.0351,-4.207,-4.3814,-4.5089,-4.5446,-4.5522,-4.555,-4.5504,-4.6244,-4.6915,-4.7307,-4.8416,-4.9272,-4.9679,-5.0486,-5.0951,-5.0951,-5.1334,-5.1754,-5.2193,-5.2193,-5.2384,-5.2805,-5.2805,-5.2594,-5.2193,-5.2193,-5.1964,-5.1544,-5.1544,-5.1544,-5.1544,-5.1544,-5.1314,-5.0932,-5.0474,-5.0302,-5.0264,-4.9862,-4.9423,-4.9003,-4.8602,-4.8449,-4.8391,-0.9104,-0.9104,-0.9104,-0.9104,-0.9104,-0.9104,-0.9104,-0.972,-1.0756,-1.23,-1.4227,-1.6046,-1.758,-1.8487,-1.902,-1.9126,-1.9813,-2.1399,-2.4195,-2.5152,-2.6778,-2.9354,-3.0705,-3.1843,-3.2803,-3.3476,-3.3807,-3.3807,-3.3807,-3.3807,-3.3807,-3.3807,-3.3807,-3.3807,-3.3807,-3.3807,-3.3807,-3.3807,-3.3807,-3.3807,-3.3807,-3.3807,-3.3715,-3.2913,-3.2491,-3.2197,-3.0907,-3.0136,-2.9567,-2.8411,-2.7934,-2.7714,-2.7218,-2.6502,-2.5735,-2.5033,-2.3721,0.0,0.0,0.0,0.0,0.0,0.0,0.0,0.0,0.0,-3.104,-3.2947,-3.5091,-3.7318,-3.9528,-4.1193,-4.2727,-4.4303,-4.5136,-4.5568,-4.5541,-4.554,-4.5577,-4.5577,-4.6398,-4.7231,-4.79,-4.8796,-4.9602,-5.0245,-5.1123,-5.1589,-5.1589,-5.2365,-5.2881,-5.3053,-5.3053,-5.3129,-5.3301,-5.3301,-5.3225,-5.3053,-5.3053,-5.2957,-5.2805,-5.2805,-5.2805,-5.2805,-5.2805,-5.2422,-5.1773,-5.0913,-5.055,-5.055,-5.0378,-5.0302,-5.0225,-4.9576,-4.9328,-4.9232,0.0,-0.9104,-0.9104,-0.9104,-0.9104,-0.9104,-0.9104,-0.972,-1.0756,-1.23,-1.3294,-1.4434,-1.5985,-1.6254,-1.6939,-1.8452,-2.0113,-2.2198,-2.4834,-2.5923,-2.786,-3.1011,-3.1305,-3.21,-3.3623,-3.3752,-3.3807,-3.3807,-3.3807,-3.3807,-3.3807,-3.3807,-3.3807,-3.3807,-3.3807,-3.3807,-3.3807,-3.3807,-3.3807,-3.3807,-3.3807,-3.3807,-3.3715,-3.2913,-3.2173,-3.1513,-3.1342,-2.9891,-2.8154,-2.8693,-2.8393,-2.7915,-2.8528,-2.8191,-2.7376,-2.6578,0.0,-2.4449,-2.5028,-2.597,-2.7235,-2.9117,-2.9723,-3.1277,0.0,0.0,-3.6534,-3.9004,-4.0353,-4.1388,-4.2392,-4.3372,-4.4322,-4.5308,-4.5493,-4.5522,-4.5577,-4.5531,-4.5513,-4.5513,-4.6906,-4.7862,-4.7905,-4.9266,-5.0199,-5.0283,-5.1123,-5.1589,-5.1589,-5.2365,-5.3148,-5.3932,-5.3951,-5.4333,-5.5097,-5.5116,-5.4715,-5.3951,-5.3951,-5.355,-5.2805,-5.2805,-5.2805,-5.2805,-5.2805,-5.2747,-5.2594,-5.1792,-5.1436,-5.1391,-5.0608,-5.0302,-5.0283,-5.0206,-5.0168,-5.0149,0.0,-0.9104,-0.9104,-0.9104,-0.9104,-0.9104,-0.9104,-0.9363,-0.9945,-1.1015,-1.2206,-1.338,-1.4434,-1.4977,-1.5766,-1.7055,-1.8815,-2.0939,-2.3531,-2.5528,-2.7611,-2.9898,-3.0889,-3.1935,-3.3091,-3.3568,-3.3807,-3.3807,-3.3807,-3.3807,-3.3807,-3.3807,-3.3807,-3.3807,-3.3807,-3.3807,-3.3807,-3.3807,-3.3807,-3.3807,-3.3807,-3.3532,-3.3073,-3.2729,-3.1518,-3.0008,-3.0008,-2.9347,0.0,0.0,-2.7372,-2.7163,-2.7501,-2.7372,-2.6964,-2.6231,-2.6274,0.0,-2.8441,-2.9674,-3.0958,0.0,-3.3888,-3.5415,-3.8479,-3.8977,-3.9399,-4.1468,-4.2579,-4.3441,-4.4249,-4.469,-4.5073,0.0,-4.5513,-4.5504,-4.555,-4.5513,-4.5495,-4.5458,-4.6482,-4.7371,-4.7856,-4.8922,-4.9805,-5.0264,-5.1544,-5.2308,-5.2308,-5.3588,-5.4486,-5.4849,-5.4868,-5.504,-5.5403,-5.5403,-5.5231,-5.4868,-5.4868,-5.4677,-5.4314,-5.4314,-5.4314,-5.4276,-5.3779,-5.355,-5.3492,-5.2652,-5.2308,-5.2212,-5.1391,-5.1066,-5.1009,-5.0493,-5.0302,-5.0302,0.0,-0.9104,-0.9104,-0.9104,-0.9104,-0.9104,-0.9104,-0.9104,-0.9449,-1.0417,-1.1505,-1.2552,-1.3501,-1.4123,-1.4907,-1.602,-1.7568,-1.9659,-2.2443,-2.4652,-2.6797,-2.8913,-3.0118,-3.1329,-3.2564,-3.3183,-3.3587,-3.3807,-3.3807,-3.3807,-3.3807,-3.3807,-3.3807,-3.3807,-3.3807,-3.3807,-3.3807,-3.3807,-3.3748,-3.3648,-3.351,-3.3057,-3.2404,-3.1823,-3.0528,-2.9005,-2.9005,-2.8565,-2.7831,-2.6667,-2.6264,-2.6264,-2.6264,-2.6429,-2.6542,-2.6289,-2.7443,-2.9081,-3.04,0.0,0.0,-3.5551,-3.7356,-3.9075,-4.0239,-4.0957,-4.1789,-4.3282,-4.4096,-4.471,-4.5285,-4.54,-4.5419,-4.5457,-4.5668,-4.5745,-4.5515,-4.5659,-4.5697,-4.5437,-4.5905,-4.6583,-4.7433,-4.8471,-4.9423,-5.0245,-5.1849,-5.2805,-5.2805,-5.4448,-5.5403,-5.5403,-5.5403,-5.5403,-5.5403,-5.5403,-5.5403,-5.5403,-5.5403,-5.5403,-5.5403,-5.5403,-5.5403,-5.5365,-5.4734,-5.4467,-5.439,-5.3511,-5.3148,-5.3072,-5.2251,-5.178,-5.1501,-5.087,-5.0488,-5.0278,0.0,0.0,-0.9104,-0.9104,-0.9104,-0.9104,-0.9104,-0.9104,-0.9639,-1.1166,-1.1408,-1.1989,-1.3449,-1.3622,-1.4253,-1.577,-1.6851,-1.8865,-2.2185,-2.3392,-2.547,-2.8847,-2.906,-3.0179,-3.2546,-3.2619,-3.3023,-3.3807,-3.3807,-3.3807,-3.3807,-3.3807,-3.3807,-3.3807,-3.3807,-3.3807,-3.3807,-3.3807,-3.3606,-3.3277,-3.2825,-3.2442,-3.19,-2.9868,-2.906,-2.9005,-2.9005,-2.7512,-2.5503,-2.5448,-2.5429,-2.5429,-2.5429,-2.597,0.0,-2.7504,-2.9211,-3.0688,0.0,0.0,-3.6594,-3.7494,-3.9625,-4.1931,-4.3646,-4.4058,-4.4327,-4.5151,-4.5343,-4.5362,-4.541,-4.54,-4.541,-4.541,-4.611,-4.6378,-4.5525,-4.607,-4.6278,-4.5485,-4.5357,-4.567,0.0,-4.8086,-4.9423,-5.0245,-5.1849,-5.2805,-5.2805,-5.4448,-5.5403,-5.5403,-5.5403,-5.5403,-5.5403,-5.5403,-5.5403,-5.5403,-5.5403,-5.5403,-5.5403,-5.5403,-5.5403,-5.5403,-5.5365,-5.5365,-5.5288,-5.4428,-5.4065,-5.397,-5.3091,-5.2252,-5.1503,-5.1478,-5.0944,-5.02,0.0,0.0,0.0,-0.9104,-0.9104,-0.9104,-0.9104,-0.9104,-0.9467,-1.0463,-1.1488,0.0,0.0,0.0,0.0,0.0,-1.6545,-1.8081,-1.9716,-2.2381,-2.4405,-2.5572,-2.7782,-2.939,-3.0198,-3.1256,-3.1935,-3.2223,-3.2223,-3.2223,-3.2223,-3.2223,-3.2223,-3.2192,-3.2022,-3.1942,-3.1928,-3.1695,-3.1845,-3.2137,-3.095,-3.0478,-3.0374,-2.9197,-2.7846,-2.6612,0.0,-2.576,-2.453,-2.3988,-2.3804,-2.3896,-2.4438,0.0,0.0,-2.7407,-2.8997,-3.0677,-3.3298,0.0,-3.8637,-4.0616,-4.2154,-4.3502,-4.466,-4.4938,-4.4832,-4.4526,-4.4469,-4.4316,-4.3771,-4.4105,-4.4479,-4.4537,-4.5724,-4.6529,-4.6251,-4.6939,-4.7138,-4.6245,-4.611,0.0,0.0,0.0,0.0,-4.9404,-5.1066,-5.2251,-5.2766,-5.4448,-5.5403,-5.5403,-5.5403,-5.5403,-5.5403,-5.5403,-5.5403,-5.5403,-5.5403,-5.5403,-5.5403,-5.5403,-5.5403,-5.5403,-5.5403,-5.5403,-5.5384,-5.5078,-5.4963,-5.4874,-5.3958,-5.3423,-5.3016,-5.1872,-5.1211,-5.0843,0.0,0.0,0.0,0.0,0.0,0.0,0.0,0.0,0.0,0.0,0.0,0.0,0.0,0.0,0.0,0.0,0.0,0.0,-1.8414,-2.0676,-2.2507,-2.3714,-2.5623,-2.707,-2.7974,-2.8759,-2.9429,-2.9966,-3.0075,-3.021,-3.0393,-3.0393,-3.0595,-3.095,-3.058,-3.0636,-3.0957,-3.0356,-3.0332,-3.0581,-2.9223,-2.8684,-2.8603,-2.7773,-2.6421,0.0,-2.4309,-2.3777,-2.3254,-2.2758,-2.2749,-2.3134,-2.3951,0.0,-2.6408,-2.8402,-3.0208,-3.2354,-3.6026,-3.8442,-4.0425,-4.2679,-4.3845,-4.4609,-4.5163,-4.5048,-4.459,-4.3739,-4.3319,-4.287,-4.2049,-4.2326,-4.29,-4.3531,-4.5063,-4.6249,-4.6534,-4.7586,-4.7985,-4.7073,-4.6948,-4.7177,0.0,0.0,0.0,-4.9404,-5.1085,-5.2251,-5.2766,-5.4448,-5.5403,-5.5403,-5.5403,-5.5403,-5.5403,-5.5403,-5.5403,-5.5403,-5.5403,-5.5403,-5.5403,-5.5403,-5.5403,-5.5403,-5.5403,-5.5403,-5.539,-5.5358,-5.5326,-5.5268,-5.4636,-5.4196,-5.3788,-5.2669,-5.1836,-5.1155,0.0,0.0,0.0,0.0,0.0,0.0,0.0,0.0,0.0,0.0,0.0,0.0,0.0,0.0,0.0,0.0,0.0,0.0,-1.8156,-1.8422,0.0,-2.3115,-2.2701,-2.3538,-2.5944,-2.5372,-2.5753,-2.7266,-2.7529,-2.7938,-2.8469,-2.8481,-2.901,-2.996,-2.9422,-2.9755,-3.0645,-2.9623,-2.9008,-2.8684,-2.7638,-2.7065,-2.6741,-2.5739,-2.4877,-2.3988,-2.2473,-2.1886,-2.1867,0.0,0.0,0.0,0.0,0.0,0.0,-3.0522,-3.2804,-3.559,-3.8154,-4.0205,-4.2011,-4.3663,-4.4685,-4.5288,-4.5239,-4.4571,-4.3682,-4.2794,-4.1915,-4.1036,0.0,0.0,-4.0806,-4.2345,-4.4258,-4.576,-4.6462,-4.8048,-4.8831,0.0,0.0,0.0,0.0,0.0,0.0,-5.0302,0.0,-5.2785,-5.2862,-5.4486,-5.5403,-5.5403,-5.5403,-5.5403,-5.5403,-5.5403,-5.5403,-5.5403,-5.5403,-5.5403,-5.5403,-5.5403,-5.5403,-5.5403,-5.5403,-5.5403,-5.539,-5.5261,-5.5197,-5.5183,-5.5121,-5.4595,-5.386,-5.3803,-5.2741,-5.1206,0.0,0.0,0.0,0.0,0.0,0.0,0.0,0.0,0.0,0.0,0.0,0.0,0.0,0.0,0.0,0.0,0.0,0.0,0.0,-1.7467,-1.8884,-1.9729,-2.1457,-2.2701,-2.3354,-2.3765,-2.4449,-2.5397,-2.5662,-2.6057,-2.6596,-2.6748,-2.688,-2.6988,-2.6583,-2.657,-2.6801,-2.6307,-2.6399,-2.669,-2.5282,-2.5205,-2.5851,-2.51,-2.4483,-2.4009,0.0,0.0,0.0,0.0,0.0,0.0,0.0,0.0,-3.07,0.0,0.0,-3.7405,-4.0072,-4.2057,-4.3615,-4.4704,-4.5144,-4.5125,-4.4475,-4.3711,-4.2507,-4.0406,-3.9279,-3.8037,0.0,0.0,0.0,-4.0005,-4.4027,0.0,-4.7436,-4.8926,0.0,-4.8869,0.0,-4.9671,-4.9671,-5.0252,0.0,0.0,-5.2002,-5.2461,-5.3702,-5.4811,-5.5403,-5.5403,-5.5403,-5.5403,-5.5403,-5.5403,-5.5403,-5.5403,-5.5403,-5.5403,-5.5403,-5.5403,-5.5403,-5.5403,-5.5403,-5.5403,-5.539,-5.5261,-5.5197,-5.5203,-5.5066,-5.4881,-5.462,-5.3959,-5.3437,-5.2854,0.0,0.0,0.0,0.0,0.0,0.0,0.0,0.0,0.0,0.0,0.0,0.0,0.0,0.0,0.0,0.0,0.0,0.0,0.0,-1.6585,-1.7819,-1.8805,-1.9949,-2.0746,-2.1167,-2.1615,-2.2042,-2.2458,0.0,0.0,-2.3661,-2.377,-2.4024,-2.4354,-2.3925,-2.3972,-2.4356,-2.3731,-2.3702,0.0,0.0,-2.28,-2.3381,-2.3122,-2.2855,0.0,0.0,0.0,0.0,0.0,0.0,-2.9003,-2.995,-3.1452,-3.3355,-3.5702,0.0,-3.9738,-4.1991,-4.3558,-4.4685,-4.5182,-4.501,-4.4418,-4.3176,-4.1991,-4.031,-3.7406,-3.6107,0.0,-3.2726,0.0,0.0,0.0,0.0,0.0,-4.7578,-4.8945,-4.9882,0.0,-5.0608,0.0,-5.1353,-5.1849,-5.248,0.0,-5.2957,-5.311,-5.4046,-5.4925,-5.5403,-5.5403,-5.5403,-5.5403,-5.5403,-5.5403,-5.5403,-5.5403,-5.5403,-5.5403,-5.5403,-5.5403,-5.5403,-5.5403,0.0,-5.5358,-5.5294,-5.5208,-5.5135,-5.5094,-5.5,-5.496,-5.4903,-5.4404,-5.401,-5.3575,0.0,0.0,0.0,0.0,0.0,0.0,0.0,0.0,0.0,0.0,0.0,0.0,0.0,0.0,0.0,0.0,0.0,0.0,0.0,0.0,0.0,-1.8913,-1.8476,-1.8572,-1.9405,-1.9405,-1.9458,-1.9563,0.0,0.0,0.0,0.0,0.0,0.0,-2.1638,-2.1918,-2.2674,-2.174,-2.1331,-2.1292,-2.0888,-2.0709,-2.0784,0.0,0.0,0.0,0.0,0.0,0.0,0.0,-2.9002,-3.0717,-3.1862,-3.4064,-3.6614,-3.8569,-4.0392,-4.2124,-4.3739,-4.4723,-4.5307,-4.5307,-4.4647,-4.3529,-4.1743,-3.9947,-3.7712,-3.435,0.0,-3.1725,-3.0166,-3.2141,-3.4778,-3.7139,0.0,-4.4093,-4.733,-4.8544,-4.971,-5.141,-5.1684,-5.2079,-5.2881,-5.3072,-5.3454,-5.4218,-5.4276,-5.4276,-5.4276,-5.5002,-5.5403,-5.5403,-5.5403,-5.5403,-5.5403,-5.5403,-5.5403,-5.5403,-5.5403,-5.5403,-5.5403,-5.5403,-5.5403,-5.5403,-5.539,-5.5313,-5.5183,-5.5121,-5.5038,-5.5,-5.4931,-5.4901,-5.4901,-5.4901,-5.4465,-5.384,0.0,0.0,0.0,0.0,0.0,0.0,0.0,0.0,0.0,0.0,-1.3249,-1.3061,0.0,0.0,0.0,0.0,0.0,0.0,0.0,0.0,0.0,-1.738,-1.7907,-1.8273,-1.8436,0.0,0.0,0.0,0.0,0.0,0.0,0.0,0.0,0.0,0.0,0.0,-2.0856,-2.0614,-2.0502,-2.0536,-2.1053,-2.1367,-2.159,0.0,0.0,0.0,0.0,0.0,0.0,0.0,-3.0068,-3.2449,-3.397,-3.6318,-3.8902,-4.086,-4.2295,-4.3502,-4.4728,-4.5182,-4.5307,-4.5307,-4.4647,-4.3395,-4.1027,-3.8639,0.0,0.0,-3.0675,-2.928,-2.8313,-3.135,-3.4579,-3.6405,0.0,0.0,0.0,0.0,-4.971,0.0,0.0,0.0,0.0,0.0,0.0,0.0,-5.5174,-5.5174,-5.5174,-5.5326,-5.5403,-5.5403,-5.5403,-5.5403,-5.5403,-5.5403,-5.5403,-5.5403,-5.5403,-5.5403,-5.5403,-5.5403,-5.5403,-5.539,-5.5294,0.0,-5.5183,-5.5066,-5.5014,-5.5,-5.4931,-5.4901,-5.4901,-5.4901,-5.4806,-5.4598,0.0,0.0,0.0,0.0,0.0,0.0,0.0,-1.2383,-1.3606,-1.4983,-1.4705,-1.4281,-1.3941,-1.4014,-1.4146,0.0,0.0,0.0,0.0,0.0,0.0,0.0,0.0,-1.8172,0.0,0.0,0.0,0.0,0.0,0.0,0.0,0.0,0.0,0.0,0.0,0.0,0.0,0.0,0.0,0.0,0.0,0.0,0.0,0.0,0.0,0.0,0.0,0.0,0.0,0.0,-2.9021,-3.183,-3.4932,-3.7367,-3.9476,-4.1402,-4.2724,-4.3805,-4.4783,-4.5173,-4.5307,-4.5307,-4.3997,-4.1934,-3.8983,0.0,0.0,0.0,-2.8179,-2.7358,-2.6561,0.0,0.0,0.0,0.0,0.0,0.0,0.0,0.0,0.0,0.0,0.0,0.0,0.0,0.0,0.0,-5.5403,-5.5403,-5.5403,-5.5403,-5.5403,-5.5403,-5.5403,-5.5403,-5.5403,-5.5403,-5.5403,-5.5403,-5.5403,-5.5403,-5.5403,-5.5403,-5.5403,-5.539,-5.5261,-5.5189,-5.5149,-5.5042,-5.4971,-5.4927,-5.4916,-5.4901,-5.4901,-5.4901,-5.4901,-5.4844,0.0,0.0,0.0,0.0,0.0,0.0,0.0,-1.3051,-1.4456,-1.6239,-1.631,-1.6016,-1.555,-1.522,-1.5075,0.0,0.0,0.0,0.0,0.0,0.0,0.0,0.0,0.0,0.0,0.0,0.0,0.0,0.0,0.0,0.0,0.0,0.0,0.0,0.0,0.0,0.0,0.0,0.0,0.0,0.0,0.0,0.0,0.0,0.0,0.0,0.0,0.0,0.0,0.0,-2.7392,-2.9936,-3.3999,-3.6893,-3.9059,-4.0584,-4.2216,-4.3665,-4.4364,-4.4912,-4.5307,-4.5307,-4.3367,-4.0616,-3.7264,-3.438,0.0,0.0,-2.6256,-2.6007,-2.5535,0.0,0.0,0.0,0.0,0.0,0.0,0.0,0.0,0.0,0.0,0.0,0.0,0.0,0.0,0.0,0.0,-5.5403,-5.5403,-5.5403,-5.5403,-5.5403,-5.5403,-5.5403,-5.5403,-5.5319,-5.5273,-5.5273,-5.5206,-5.5159,-5.5159,-5.5246,-5.526,-5.5246,-5.5208,-5.5149,-5.5066,-5.5014,-5.496,-5.4901,-5.4901,-5.4901,-5.4886,-5.4807,-5.4776,-5.4761,0.0,0.0,0.0,0.0,0.0,0.0,0.0,-1.3634,-1.5712,-1.6343,-1.757,-1.8159,-1.7506,-1.6246,-1.5265,0.0,0.0,0.0,0.0,0.0,0.0,0.0,0.0,0.0,0.0,0.0,0.0,0.0,0.0,0.0,0.0,0.0,0.0,0.0,0.0,0.0,0.0,0.0,0.0,0.0,0.0,0.0,0.0,0.0,0.0,0.0,0.0,0.0,0.0,0.0,0.0,-2.6886,-2.9801,-3.3903,-3.7706,-3.8076,0.0,0.0,-4.362,-4.4497,-4.5307,-4.5307,-4.3367,-4.0616,-3.7264,0.0,0.0,-2.7109,-2.5816,-2.5516,-2.6179,-2.7186,0.0,0.0,0.0,0.0,0.0,0.0,0.0,0.0,0.0,0.0,0.0,0.0,0.0,0.0,-5.5403,-5.5403,-5.5403,-5.5403,-5.5403,-5.5403,-5.5403,-5.5403,-5.5403,-5.5038,-5.4855,-5.4855,-5.4562,-5.4399,-5.4416,-5.4735,-5.4825,-5.478,-5.5004,-5.5066,0.0,-5.4946,-5.4901,-5.4901,-5.4901,-5.4901,-5.4856,-5.45,-5.4349,-5.4296,0.0,0.0,0.0,0.0,0.0,0.0,-1.2169,-1.3406,-1.5146,-1.7804,-1.7943,-1.8019,-1.8609,-1.7741,-1.6811,-1.603,0.0,0.0,0.0,0.0,0.0,0.0,0.0,0.0,0.0,0.0,0.0,0.0,0.0,0.0,0.0,0.0,0.0,0.0,0.0,0.0,0.0,0.0,0.0,0.0,0.0,0.0,0.0,0.0,0.0,0.0,0.0,0.0,0.0,0.0,0.0,0.0,-2.669,-2.9442,0.0,0.0,-3.8792,-4.1318,-4.2919,-4.4307,-4.5307,-4.5307,-4.3023,-3.9871,-3.6394,0.0,-2.9547,-2.6192,-2.5241,-2.5152,-2.5594,-2.637,-2.7682,0.0,-3.1267,-3.375,0.0,0.0,0.0,0.0,0.0,0.0,0.0,0.0,0.0,0.0,-5.5403,-5.5403,-5.5403,-5.5173,-5.5038,-5.5038,-5.4844,-5.4738,-5.4738,-5.4594,-5.4495,-5.4495,-5.4576,-5.4576,-5.4544,-5.4899,-5.5,-5.4947,-5.5009,-5.5028,0.0,-5.4931,-5.4761,-5.4533,-5.4533,-5.4399,-5.4157,-5.3997,-5.3943,-5.3925,0.0,0.0,0.0,0.0,0.0,-1.0821,-1.2349,-1.3267,-1.4898,-1.7976,-1.7869,-1.7869,-1.887,-1.833,-1.7635,-1.6977,-1.7043,0.0,0.0,0.0,0.0,0.0,0.0,0.0,0.0,0.0,0.0,0.0,0.0,0.0,0.0,0.0,0.0,0.0,0.0,0.0,0.0,0.0,0.0,0.0,0.0,0.0,0.0,0.0,0.0,0.0,0.0,0.0,0.0,0.0,0.0,0.0,0.0,0.0,0.0,0.0,-3.6567,-3.9133,-4.1349,-4.3108,-4.4311,-4.4311,-4.1969,-3.8734,0.0,0.0,-2.8804,-2.5465,-2.4792,-2.4854,-2.4999,-2.5533,-2.6517,-2.8176,-2.9119,-3.1439,-3.6623,0.0,0.0,0.0,0.0,0.0,0.0,0.0,0.0,0.0,-5.5403,-5.5345,-5.5214,-5.4855,-5.47,-5.4791,-5.4479,-5.4315,-5.4315,-5.4176,-5.4123,-5.4123,-5.4207,-5.4242,-5.4207,-5.4519,-5.4632,-5.4557,-5.4623,-5.4623,0.0,-5.4562,-5.4382,-5.4104,-5.4104,-5.3961,-5.3683,-5.3586,-5.3509,-5.3508,0.0,0.0,0.0,0.0,0.0,0.0,-1.1045,-1.3425,-1.5439,-1.6147,-1.7377,-1.8191,-1.8207,-1.7608,-1.7208,-1.7208,-1.7085,0.0,0.0,0.0,0.0,0.0,0.0,0.0,0.0,0.0,-1.8888,-1.8894,-1.9625,0.0,0.0,0.0,0.0,0.0,0.0,0.0,0.0,0.0,0.0,0.0,0.0,0.0,0.0,0.0,0.0,0.0,0.0,0.0,0.0,0.0,0.0,0.0,0.0,0.0,0.0,0.0,-3.3745,-3.6983,-3.8591,-4.0507,-4.2019,-4.2019,-4.0052,-3.7265,0.0,-3.1235,-2.8465,-2.5178,-2.4556,-2.4607,-2.4607,-2.4775,-2.5458,-2.7148,-2.9641,-3.2585,-3.6023,0.0,0.0,0.0,0.0,0.0,0.0,0.0,0.0,0.0,-5.5403,0.0,-5.4821,-5.4479,-5.4463,-5.4791,-5.4479,-5.4315,-5.4315,-5.3907,-5.372,-5.3701,-5.324,-5.302,-5.3042,-5.3304,-5.3385,-5.3341,-5.3663,-5.3777,0.0,-5.3702,-5.3702,-5.3702,-5.3702,-5.3702,-5.3644,-5.3265,-5.3117,-5.3054,0.0,0.0,0.0,0.0,0.0,0.0,0.0,-1.26,-1.3883,-1.5918,-1.6163,-1.6671,-1.8053,-1.7608,-1.7208,-1.7208,-1.6911,0.0,0.0,0.0,0.0,0.0,0.0,0.0,0.0,0.0,-1.9147,-1.9659,-2.0433,-2.1075,-2.1552,0.0,0.0,0.0,0.0,0.0,0.0,0.0,0.0,0.0,0.0,0.0,0.0,0.0,0.0,0.0,0.0,0.0,0.0,0.0,0.0,0.0,0.0,0.0,0.0,-2.7054,0.0,0.0,-3.4525,-3.6278,-3.7633,-3.7092,-3.5833,-3.4011,-3.1181,-2.9438,-2.7676,-2.493,-2.4372,-2.4472,-2.47,-2.4828,-2.6062,-2.9618,-3.0882,0.0,0.0,0.0,0.0,0.0,0.0,0.0,0.0,0.0,0.0,-5.5403,-5.5159,-5.4928,-5.4806,-5.4226,-5.3943,-5.4033,-5.3719,-5.3561,-5.3561,-5.3341,-5.3238,-5.3238,-5.3261,-5.324,-5.3214,-5.3527,-5.3625,-5.3585,-5.3683,-5.372,-5.3702,-5.3702,-5.3547,-5.3306,-5.3306,-5.312,-5.2875,-5.2739,-5.269,-5.2667,0.0,0.0,0.0,0.0,0.0,0.0,0.0,-1.2246,-1.3186,-1.4839,-1.4916,-1.5485,-1.7254,-1.694,-1.6794,-1.7307,-1.6977,0.0,0.0,0.0,0.0,0.0,0.0,0.0,-1.8217,-1.8932,-1.9828,-2.0876,-2.1651,-2.2274,-2.2699,-2.2243,-2.1732,0.0,0.0,0.0,0.0,0.0,0.0,0.0,0.0,0.0,0.0,0.0,0.0,0.0,0.0,0.0,0.0,0.0,0.0,0.0,0.0,0.0,0.0,0.0,-2.7111,0.0,0.0,-3.29,-3.3976,-3.3485,-3.2657,-3.1377,-2.9163,-2.7959,-2.6707,-2.4556,-2.4135,-2.4238,-2.4511,-2.467,-2.5879,-2.9342,-3.0471,0.0,0.0,0.0,0.0,0.0,0.0,0.0,0.0,0.0,0.0,-5.5187,-5.508,-5.484,-5.4411,-5.4104,-5.3777,-5.3445,-5.3235,-5.3124,-5.3124,-5.2999,-5.2915,-5.2934,-5.3033,-5.3075,-5.303,-5.3224,-5.3287,-5.3244,-5.3244,-5.3244,0.0,-5.3244,-5.3096,-5.2875,-5.2875,-5.2717,-5.2498,-5.2498,-5.2498,-5.2498,0.0,0.0,0.0,0.0,0.0,0.0,0.0,-1.2303,-1.3177,-1.3224,-1.3752,-1.4662,-1.6005,-1.5834,-1.6143,-1.7446,0.0,0.0,0.0,0.0,0.0,0.0,0.0,0.0,-1.8809,-1.9608,-2.0694,-2.2144,-2.2987,-2.3393,-2.3393,-2.3444,-2.273,-2.136,-2.136,0.0,0.0,0.0,0.0,0.0,0.0,0.0,0.0,0.0,0.0,0.0,0.0,0.0,0.0,0.0,0.0,0.0,0.0,0.0,0.0,0.0,0.0,0.0,0.0,0.0,0.0,0.0,-3.0152,-2.9155,-2.7669,-2.6708,0.0,-2.4121,-2.3847,-2.4022,-2.4384,-2.453,-2.5319,-2.752,-2.938,0.0,0.0,0.0,0.0,0.0,0.0,0.0,0.0,0.0,-5.5246,-5.487,-5.5154,-5.4889,-5.3814,-5.407,-5.387,-5.3045,-5.298,-5.2977,-5.2999,-5.285,-5.2783,-5.2783,-5.2654,-5.259,-5.2586,-5.2526,-5.2498,0.0,-5.2498,-5.2498,-5.2498,-5.2498,-5.2498,-5.2498,-5.2498,-5.2498,-5.2498,-5.2498,-5.2498,-5.2498,0.0,0.0,0.0,0.0,0.0,0.0,0.0,0.0,0.0,0.0,-1.3565,-1.4177,-1.5587,-1.5782,-1.6168,0.0,0.0,0.0,0.0,0.0,0.0,0.0,0.0,0.0,-1.8053,-1.9338,-2.017,-2.0542,-2.2462,-2.3393,-2.341,-2.3983,-2.3763,-2.2883,-2.2883,-2.2462,0.0,0.0,0.0,0.0,0.0,0.0,0.0,0.0,0.0,0.0,0.0,-2.1861,0.0,0.0,0.0,0.0,0.0,0.0,0.0,0.0,-2.3922,-2.4259,-2.5012,0.0,-2.6334,-2.5728,-2.5851,-2.5894,0.0,-2.4994,-2.5009,-2.3994,0.0,0.0,-2.6586,-2.6163,-2.7278,-3.2692,0.0,0.0,0.0,0.0,0.0,0.0,0.0,0.0,0.0,0.0,-5.5358,-5.5273,-5.5052,-5.481,-5.4476,-5.3978,-5.3567,-5.3324,-5.2922,-5.2743,-5.285,-5.2721,-5.2654,-5.2654,-5.2577,-5.2526,-5.2526,-5.2521,-5.2498,-5.2498,-5.2498,-5.2498,-5.2498,-5.2498,-5.2498,-5.2498,-5.2498,-5.2498,-5.2498,-5.2498,-5.2498,-5.2498,0.0,0.0,0.0,0.0,0.0,0.0,0.0,0.0,0.0,0.0,0.0,0.0,0.0,0.0,0.0,0.0,0.0,0.0,0.0,0.0,0.0,0.0,0.0,-1.8121,-1.8785,-1.9579,-2.0508,-2.1552,-2.2801,-2.3577,-2.3915,-2.3966,-2.378,-2.3376,-2.3054,-2.2682,0.0,0.0,0.0,0.0,0.0,0.0,0.0,0.0,0.0,0.0,-2.1207,-2.1461,0.0,-2.2502,-2.2889,-2.3157,0.0,0.0,0.0,0.0,-2.3806,-2.3806,-2.3806,-2.4664,-2.5461,-2.5009,-2.5226,-2.5443,-2.5009,0.0,0.0,0.0,0.0,0.0,0.0,0.0,0.0,0.0,-3.4858,0.0,0.0,0.0,0.0,0.0,0.0,0.0,0.0,0.0,-5.5099,-5.5028,-5.4874,-5.4572,-5.4138,-5.387,-5.3528,-5.3036,-5.2751,-5.2635,-5.2698,-5.2604,-5.2559,-5.2559,-5.2526,-5.2498,-5.2498,-5.2498,-5.2498,-5.2498,-5.2498,-5.2498,-5.2498,-5.2498,-5.2498,-5.2498,-5.2498,-5.2498,-5.2498,-5.2498,-5.2498,-5.2498,0.0,0.0,0.0,0.0,0.0,0.0,0.0,0.0,0.0,0.0,0.0,0.0,0.0,0.0,0.0,0.0,0.0,0.0,0.0,0.0,0.0,0.0,0.0,-1.8442,-1.9799,-1.9934,-2.1011,-2.3054,-2.3511,-2.3985,-2.4491,-2.422,-2.3883,-2.3543,-2.2801,-2.2398,0.0,0.0,0.0,0.0,0.0,0.0,0.0,0.0,0.0,0.0,0.0,0.0,0.0,-2.2241,-2.2759,-2.3096,-2.3394,0.0,0.0,0.0,0.0,0.0,-2.4103,-2.5335,-2.6482,-2.6113,-2.6204,-2.6349,-2.624,0.0,0.0,0.0,0.0,0.0,0.0,0.0,0.0,0.0,0.0,0.0,0.0,0.0,0.0,0.0,0.0,0.0,0.0,-5.4957,-5.4761,-5.4594,-5.4639,-5.4343,-5.3605,-5.3758,-5.3509,-5.2702,-5.2631,-5.2586,-5.2586,-5.2526,-5.2498,-5.2498,-5.2498,-5.2498,-5.2498,-5.2498,-5.2498,-5.2498,0.0,0.0,-5.2498,-5.2498,-5.2498,-5.2498,-5.2498,-5.2498,-5.2498,-5.2498,-5.2498,-5.2498,0.0,0.0,0.0,0.0,0.0,0.0,0.0,0.0,0.0,0.0,0.0,0.0,0.0,0.0,0.0,0.0,0.0,0.0,0.0,0.0,0.0,-1.78,-1.78,-1.82,-1.9046,-1.9676,-2.0504,-2.1546,-2.4036,-2.5,-2.4541,-2.6302,-2.6133,-2.4305,-2.3562,-2.2885,-2.2296,0.0,0.0,0.0,0.0,0.0,0.0,0.0,0.0,0.0,0.0,0.0,0.0,-2.1623,-2.2216,-2.285,-2.3336,0.0,0.0,0.0,0.0,0.0,-2.5461,-2.7007,-2.7731,-2.5697,-2.6222,-2.7043,-2.6367,0.0,0.0,0.0,0.0,0.0,0.0,0.0,0.0,0.0,0.0,0.0,0.0,0.0,0.0,0.0,0.0,0.0,-5.4659,-5.4909,-5.4899,-5.4554,-5.4519,-5.4458,-5.4259,-5.3645,-5.3228,-5.3033,-5.2694,-5.2503,-5.2503,-5.2521,-5.2498,-5.2498,-5.2498,-5.2498,-5.2498,-5.2498,-5.2498,-5.2498,0.0,-5.2498,-5.2498,-5.2498,-5.2498,-5.2498,-5.2498,-5.2498,-5.2498,-5.2498,-5.2498,-5.2475,0.0,0.0,0.0,0.0,0.0,0.0,0.0,0.0,0.0,0.0,0.0,0.0,0.0,0.0,0.0,0.0,0.0,0.0,0.0,0.0,-1.7969,-1.8386,-1.8386,-1.8741,-1.9473,-2.064,-2.162,-2.2392,-2.456,-2.5407,-2.5055,-2.5596,-2.4923,-2.3232,-2.2817,-2.2526,-2.2296,-2.2254,0.0,0.0,0.0,0.0,0.0,0.0,0.0,0.0,0.0,0.0,0.0,0.0,-2.2086,-2.2786,-2.3324,0.0,0.0,0.0,0.0,0.0,-2.4701,-2.6077,-2.7133,-2.6475,-2.816,-2.9898,-2.9536,0.0,0.0,0.0,0.0,0.0,0.0,0.0,0.0,0.0,0.0,0.0,0.0,0.0,0.0,0.0,0.0,-5.2227,-5.2808,-5.3467,-5.3833,-5.375,-5.4015,-5.4121,-5.4033,-5.3451,-5.3036,-5.2765,-5.2595,-5.2498,-5.2498,-5.2498,-5.2498,-5.2498,-5.2498,-5.2498,-5.2498,-5.2498,-5.2498,-5.2498,0.0,-5.2498,-5.2498,-5.2498,-5.2498,-5.2498,-5.2498,-5.2498,-5.2498,-5.2498,-5.2498,-5.2475,0.0,0.0,0.0,0.0,0.0,0.0,0.0,0.0,0.0,0.0,0.0,0.0,0.0,0.0,0.0,0.0,0.0,0.0,0.0,0.0,-1.8109,-1.8872,-1.908,-1.9592,-2.0521,-2.1705,-2.282,-2.3917,-2.5188,-2.5797,-2.5731,-2.4861,-2.3738,-2.2437,-2.2327,-2.2286,-2.2268,-2.2228,-2.2242,0.0,0.0,0.0,0.0,0.0,0.0,0.0,0.0,0.0,0.0,0.0,0.0,0.0,0.0,0.0,0.0,-2.3721,-2.3806,-2.3868,-2.4248,-2.5262,-2.6427,-2.7423,0.0,-3.1546,-3.2306,-3.1854,0.0,0.0,0.0,0.0,0.0,0.0,0.0,0.0,0.0,0.0,0.0,0.0,-4.9145,-5.07,-5.0522,-5.053,-5.1191,-5.2075,-5.2571,-5.2537,-5.2993,-5.3181,-5.3011,-5.2612,-5.2266,-5.196,-5.2118,-5.2208,-5.2208,-5.2408,-5.2498,-5.2498,-5.2498,-5.2498,-5.2498,-5.2498,-5.2498,-5.2498,-5.2498,-5.2498,-5.2498,-5.2498,-5.2498,-5.2498,-5.2498,-5.2498,-5.2498,-5.2498,-5.2498,-5.2475,0.0,0.0,0.0,0.0,0.0,0.0,0.0,0.0,0.0,0.0,0.0,0.0,0.0,0.0,0.0,0.0,0.0,0.0,0.0,0.0,-1.807,-1.886,-1.9567,-2.063,-2.2093,-2.2245,-2.3327,-2.544,-2.6168,-2.6505,-2.6402,-2.5648,-2.4526,-2.3134,-2.3177,-2.2836,-2.2214,-2.22,-2.2214,-2.2214,0.0,0.0,0.0,0.0,0.0,0.0,0.0,0.0,0.0,0.0,0.0,0.0,0.0,0.0,-2.3212,-2.3678,-2.3806,-2.4121,-2.5624,-2.6113,-2.6572,-2.8129,-2.869,0.0,-3.2632,-3.2687,0.0,-3.4989,0.0,0.0,0.0,0.0,0.0,0.0,0.0,0.0,0.0,0.0,-4.9751,-5.0703,-5.0443,-5.0356,-5.0802,-5.1519,-5.1663,-5.0944,-5.1213,-5.125,-5.0919,-5.0542,-5.0297,-5.0275,-5.1017,-5.1375,-5.1375,-5.2118,-5.2498,-5.2498,-5.2498,-5.2498,-5.2498,-5.2498,-5.2498,-5.2498,-5.2498,-5.2498,-5.2498,-5.2498,-5.2498,-5.2498,-5.2498,-5.2498,-5.2498,-5.2498,-5.2498,-5.2475,0.0,0.0,0.0,0.0,0.0,0.0,0.0,0.0,0.0,0.0,0.0,0.0,0.0,0.0,0.0,0.0,0.0,0.0,0.0,-1.7749,-1.8317,-1.9533,-1.9854,-2.0921,-2.288,-2.3369,-2.4231,-2.5528,-2.5698,-2.5748,-2.5664,-2.4478,-2.3391,-2.2448,-2.2436,-2.2346,-2.2183,-2.2106,-2.2075,-2.2075,-2.1986,0.0,0.0,0.0,0.0,0.0,0.0,0.0,0.0,0.0,-2.0645,-2.1593,-2.2767,-2.3194,-2.3342,-2.37,-2.3806,-2.3922,-2.4538,-2.5805,-2.7206,-2.8328,-2.9722,0.0,0.0,-3.5059,-3.6453,-3.8338,-3.8718,0.0,0.0,0.0,0.0,0.0,0.0,0.0,0.0,-4.8714,-4.8892,-4.9257,-4.8919,-4.8719,-4.8869,-4.9803,-5.0268,-4.998,-5.052,-5.0834,-5.0712,-5.0314,-5.0112,-5.0112,-5.0401,-5.0565,-5.0565,-5.0873,-5.0995,-5.1036,-5.2009,-5.2498,-5.2498,-5.2498,-5.2498,-5.2498,-5.2498,-5.2498,-5.2498,-5.2498,-5.2498,-5.2498,-5.2498,-5.2498,-5.2498,-5.2498,-5.2498,-5.2475,0.0,0.0,0.0,0.0,0.0,0.0,0.0,0.0,0.0,0.0,0.0,0.0,0.0,0.0,0.0,0.0,0.0,0.0,-1.7738,-1.7749,-1.8334,-1.9601,-1.9845,-2.0881,-2.2904,-2.36,-2.4574,-2.5816,-2.5681,-2.523,-2.448,-2.3464,-2.2747,-2.226,-2.2043,-2.2137,-2.2429,-2.2101,-2.1969,-2.1969,-2.1911,-2.1599,0.0,0.0,0.0,0.0,0.0,0.0,0.0,0.0,-2.0339,-2.1191,-2.2418,-2.2958,-2.3212,-2.3591,-2.388,-2.4071,-2.4165,-2.557,-2.7278,-2.8346,0.0,0.0,-3.4878,-3.6816,-3.8788,-4.0836,-4.1053,0.0,0.0,0.0,0.0,0.0,0.0,0.0,0.0,-4.8458,-4.8307,-4.8364,-4.7972,-4.7717,-4.7717,-4.8565,-4.9076,-4.8937,-4.9568,-4.99,-4.9759,-4.9483,-4.9329,-4.9329,-4.9582,-4.9709,-4.9709,-4.9963,-5.0112,-5.0112,-5.1212,-5.1864,-5.2118,-5.2118,-5.2118,-5.2118,-5.2118,-5.1973,-5.1737,-5.1737,-5.1882,-5.2136,-5.2389,-5.2498,-5.2498,-5.2498,-5.2498,-5.2475,0.0,0.0,0.0,0.0,0.0,0.0,0.0,0.0,0.0,0.0,0.0,0.0,0.0,0.0,0.0,0.0,0.0,0.0,-1.78,-1.7738,-1.8058,-1.886,-1.9484,-2.0552,-2.2166,-2.2724,-2.4145,-2.6486,-2.6331,-2.5146,-2.2998,-2.2998,-2.2952,-2.2873,-2.2274,-2.2373,-2.2948,-2.2199,-2.1913,-2.1913,-2.1913,-2.1913,0.0,0.0,0.0,0.0,0.0,0.0,0.0,0.0,-1.974,-2.0118,-2.1994,-2.2598,-2.273,-2.3324,-2.4022,-2.4658,-2.4924,-2.5606,-2.662,0.0,0.0,0.0,-3.6306,-3.7647,-3.9115,-4.2267,0.0,-4.194,-4.2737,0.0,0.0,-4.4951,-4.5919,-4.6843,-4.8124,-4.8287,-4.8287,-4.8287,-4.7949,-4.7717,-4.7717,-4.807,-4.8131,-4.772,-4.807,-4.8111,-4.772,-4.7717,-4.7717,-4.7717,-4.8456,-4.8891,-4.8891,-4.9673,-5.0093,-5.0093,-5.0093,-5.051,-5.1285,-5.1285,-5.1285,-5.1285,-5.1285,-5.0832,-5.0112,-5.0112,-5.056,-5.1357,-5.2172,-5.248,-5.248,-5.248,-5.248,-5.2457,0.0,0.0,0.0,0.0,0.0,0.0,0.0,0.0,0.0,0.0,0.0,0.0,0.0,0.0,0.0,0.0,0.0,0.0,-1.7738,-1.776,-1.8311,-1.9484,-1.9756,-2.0552,-2.1955,-2.2601,-2.3518,-2.4747,-2.4796,-2.4195,-2.2998,-2.3059,-2.279,-2.2291,-2.262,-2.2573,-2.223,-2.2149,-2.2034,-2.1913,-2.1913,-2.1913,0.0,0.0,0.0,0.0,0.0,0.0,0.0,0.0,0.0,0.0,-2.1131,-2.2207,-2.2935,-2.3277,-2.3952,-2.4647,-2.4924,-2.6819,0.0,0.0,0.0,0.0,0.0,-3.9659,0.0,0.0,-4.2701,-4.2611,-4.2846,0.0,0.0,-4.5111,-4.5942,-4.6807,-4.7743,-4.7886,-4.7886,-4.7886,-4.7762,-4.7717,-4.7717,-4.7804,-4.7824,-4.7699,-4.7804,-4.7824,-4.7717,-4.7717,-4.7717,-4.7717,-4.7913,-4.8058,-4.8058,-4.8297,-4.8405,-4.8405,-4.8405,-4.913,-5.0474,-5.0474,-5.0474,-5.0474,-5.0474,-5.0329,-5.0112,-5.0112,-5.0257,-5.0492,-5.0728,-5.0796,-5.0796,-5.0796,-5.0796,-5.0796,0.0,0.0,0.0,0.0,0.0,0.0,0.0,0.0,0.0,0.0,0.0,0.0,0.0,0.0,0.0,0.0,0.0,0.0,0.0,-1.7749,-1.8249,-1.9378,-1.9706,-2.0508,-2.188,-2.2586,-2.2988,-2.3123,-2.3531,-2.3343,-2.261,-2.2939,-2.2989,-2.2842,-2.3293,-2.3227,-2.2794,-2.2603,-2.2287,-2.1913,-2.1926,-2.1926,-2.1863,0.0,0.0,0.0,0.0,0.0,0.0,0.0,0.0,0.0,-2.0773,0.0,-2.2811,-2.3099,-2.4088,-2.5266,-2.6188,0.0,0.0,0.0,0.0,0.0,0.0,0.0,0.0,0.0,0.0,-4.301,-4.3336,-4.3769,0.0,-4.5599,-4.6178,-4.6794,-4.7591,-4.7717,-4.7717,-4.7717,-4.7717,-4.7717,-4.7717,-4.7717,-4.7717,-4.7717,-4.7717,-4.7717,-4.7717,-4.7717,-4.7717,-4.7717,-4.7717,-4.7717,-4.7717,-4.7717,-4.7717,-4.7717,-4.7717,-4.8206,-4.9148,-4.9474,-4.9619,-4.9601,-4.9293,-4.9148,-4.9166,-4.9492,-4.9619,-4.9655,-4.9985,-5.0112,-5.0112,-5.0112,-5.0112,-5.009,0.0,0.0,0.0,0.0,0.0,0.0,0.0,0.0,0.0,0.0,-1.6231,0.0,0.0,0.0,0.0,0.0,0.0,0.0,0.0,0.0,-1.8092,-1.8937,-1.9622,-2.0585,-2.188,-2.2565,-2.2535,-2.1811,-2.2633,-2.266,-2.2015,-2.2804,-2.3477,-2.3998,-2.4096,-2.4128,-2.4043,-2.3276,-2.256,-2.1928,-2.1998,-2.1984,-2.1911,-2.1931,0.0,0.0,0.0,0.0,0.0,0.0,0.0,0.0,-2.0758,-2.1487,-2.2363,-2.283,-2.4244,-2.6083,-2.8028,0.0,0.0,0.0,0.0,0.0,0.0,0.0,0.0,0.0,0.0,0.0,-4.386,-4.4095,-4.4693,-4.616,-4.6522,-4.6866,-4.7609,-4.7717,-4.7717,-4.7717,-4.7717,-4.7717,-4.7717,-4.7717,-4.7717,-4.7717,-4.7717,-4.7717,-4.7717,-4.7717,-4.7717,-4.7717,-4.7717,-4.7717,-4.7717,-4.7717,-4.7717,-4.7717,-4.7678,-4.7678,-4.7735,-4.8456,-4.8782,-4.8746,-4.8025,-4.7717,-4.7772,-4.8475,-4.8782,-4.8855,-4.9601,-4.9894,-4.9894,-4.9872,-4.9872,-4.9872,0.0,0.0,0.0,0.0,0.0,0.0,0.0,0.0,0.0,0.0,0.0,0.0,0.0,0.0,0.0,0.0,0.0,0.0,0.0,0.0,-1.8333,-1.955,-2.0788,-2.1595,-2.1882,-2.2063,-2.2078,-2.1955,-2.2707,-2.269,-2.1945,-2.3263,-2.3647,-2.328,-2.4111,-2.4028,-2.3227,-2.2858,-2.2482,-2.2154,-2.226,-2.2186,-2.1931,-2.147,-2.1058,0.0,0.0,0.0,0.0,0.0,0.0,0.0,-2.0606,-2.1033,-2.1475,-2.2409,-2.358,-2.5089,0.0,-3.0089,0.0,0.0,0.0,0.0,0.0,0.0,0.0,0.0,0.0,0.0,0.0,-4.4186,-4.5164,-4.549,-4.6631,-4.7518,-4.7681,-4.7717,-4.7717,-4.7717,-4.7717,-4.7717,-4.7717,-4.7717,-4.7717,-4.7717,-4.7717,-4.7717,-4.7717,-4.7717,-4.7717,-4.7717,-4.7717,-4.7717,-4.7717,-4.7717,-4.7717,-4.7717,-4.7575,-4.7615,-4.7717,-4.788,-4.795,-4.7953,-4.779,-4.7717,-4.7696,-4.7877,-4.795,-4.7989,-4.8152,-4.8224,-4.8203,-4.8099,-4.8121,-4.8203,0.0,0.0,0.0,0.0,0.0,0.0,0.0,0.0,0.0,0.0,0.0,0.0,0.0,0.0,0.0,0.0,0.0,0.0,0.0,-1.776,-1.8389,-1.984,-2.1214,-2.1955,-2.1955,-2.1928,-2.1913,-2.1897,-2.231,-2.2493,-2.2448,-2.3565,-2.4113,-2.4177,-2.4625,-2.4406,-2.3636,-2.3074,-2.2621,-2.2301,-2.2304,-2.204,-2.162,-2.1167,-2.0706,-2.0223,-1.9827,0.0,0.0,0.0,0.0,0.0,0.0,0.0,-2.1292,-2.2261,-2.3063,-2.4377,0.0,0.0,0.0,0.0,0.0,0.0,0.0,0.0,0.0,0.0,0.0,0.0,0.0,0.0,-4.4838,-4.5236,-4.5997,-4.6703,-4.7083,-4.7138,-4.7283,-4.7663,-4.7717,-4.7717,-4.7717,-4.7717,-4.7717,-4.7717,-4.7717,-4.7717,-4.7717,-4.7717,-4.7717,-4.7717,-4.7717,-4.7717,-4.7717,-4.7717,-4.7657,-4.7615,-4.7533,-4.7511,-4.7511,-4.7636,-4.7717,-4.7717,-4.7717,-4.7657,-4.7615,-4.7615,-4.7572,-4.7511,-4.7511,-4.7554,-4.7593,-4.745,-4.749,-4.7593,0.0,0.0,0.0,0.0,0.0,0.0,0.0,0.0,0.0,0.0,0.0,0.0,0.0,0.0,0.0,0.0,0.0,0.0,0.0,-1.7974,-1.8658,-1.9934,-2.1284,-2.1962,-2.1828,-2.1742,-2.1687,-2.1628,-2.167,-2.2348,-2.3597,-2.3947,-2.4546,-2.533,-2.5113,-2.4795,-2.4361,-2.3287,-2.2623,-2.2247,-2.2048,-2.1619,-2.1084,-2.0771,-2.0236,-1.9651,-1.9629,-1.9983,-2.0535,-2.0733,0.0,0.0,0.0,0.0,-2.11,-2.1985,-2.2479,-2.3601,0.0,0.0,0.0,0.0,0.0,0.0,0.0,0.0,0.0,0.0,0.0,0.0,0.0,0.0,0.0,-4.4983,-4.52,-4.5526,-4.6196,-4.6287,-4.654,-4.721,-4.7301,-4.7301,-4.7301,-4.7428,-4.7446,-4.7301,-4.7428,-4.7446,-4.7301,-4.7301,-4.7355,-4.75,-4.75,-4.7572,-4.7717,-4.7696,-4.7615,-4.7511,-4.749,-4.7385,-4.7298,-4.7511,-4.7636,-4.7636,-4.7657,-4.7593,-4.7468,-4.7468,-4.7407,-4.7302,-4.7302,-4.7363,-4.745,-4.732,-4.7363,-4.7446,0.0,0.0,0.0,0.0,0.0,0.0,0.0,0.0,0.0,0.0,0.0,-1.78,-1.78,-1.78,0.0,0.0,0.0,0.0,-1.78,0.0,0.0,-1.9899,-2.1239,-2.1745,-2.1158,-2.1011,-2.0938,-2.0924,-2.0879,-2.2601,0.0,0.0,-2.4464,-2.5128,-2.4804,-2.4633,-2.4458,-2.2584,-2.1759,-2.1668,-2.1249,-2.0778,-2.0304,-1.9872,-1.9453,-1.9083,-1.8917,-1.8872,-1.9114,-2.037,-2.0841,0.0,0.0,0.0,0.0,-2.0948,-2.1425,-2.2191,0.0,0.0,0.0,0.0,0.0,0.0,0.0,0.0,0.0,0.0,0.0,0.0,0.0,0.0,0.0,-4.424,-4.4838,-4.5345,-4.5454,-4.5454,-4.549,-4.5617,-4.5617,-4.5617,-4.5617,-4.625,-4.6377,-4.5671,-4.6269,-4.6359,-4.5653,-4.5617,-4.5943,-4.6649,-4.6667,-4.6993,-4.7678,-4.7575,-4.7511,-4.7511,-4.7385,-4.7294,-4.7223,-4.7298,-4.7363,-4.7363,-4.749,-4.745,-4.7341,-4.7341,-4.732,-4.7302,-4.7302,-4.7302,-4.732,-4.7245,-4.7249,-4.732,0.0,0.0,0.0,0.0,0.0,0.0,0.0,0.0,0.0,0.0,0.0,-1.78,-1.78,-1.78,0.0,0.0,0.0,0.0,-1.78,-1.8725,0.0,-1.9278,-2.0194,-2.0558,-2.0287,-2.0176,-2.0318,-2.073,-2.0304,0.0,0.0,-2.5213,-2.6013,0.0,0.0,-2.558,-2.5459,0.0,-2.1982,-2.1711,-2.1528,-2.196,-2.2482,-2.0366,-2.0222,-2.0942,-1.9041,-1.8533,-1.8912,-1.9956,-2.0548,-2.1003,-2.1721,0.0,0.0,0.0,0.0,0.0,0.0,0.0,0.0,0.0,0.0,0.0,0.0,0.0,0.0,0.0,0.0,0.0,0.0,0.0,0.0,0.0,0.0,-4.4114,-4.4548,-4.4621,-4.4784,-4.5254,-4.5291,-4.5291,-4.5291,-4.5617,-4.5689,-4.5327,-4.5635,-4.5671,-4.5327,-4.5291,-4.5454,-4.5816,-4.5834,-4.5995,-4.6313,-4.6233,-4.6365,-4.6669,-4.6502,-4.6686,-4.7088,-4.7201,-4.7254,-4.7302,-4.7363,-4.732,-4.7249,-4.7249,-4.7205,-4.712,-4.712,-4.7183,-4.7227,-4.7133,-4.7138,-4.7249,0.0,0.0,0.0,0.0,0.0,0.0,0.0,0.0,0.0,0.0,0.0,0.0,-1.78,0.0,0.0,0.0,0.0,0.0,-1.78,0.0,0.0,0.0,0.0,-1.9804,-1.9451,-1.9555,-1.978,-2.0141,0.0,0.0,-2.6522,-2.6193,-2.8167,0.0,-2.8452,-2.6821,0.0,0.0,0.0,0.0,-2.2723,-2.3507,-2.4492,-2.2544,-2.2829,-2.3857,-2.0697,-1.9808,0.0,0.0,0.0,0.0,0.0,0.0,0.0,0.0,0.0,0.0,0.0,0.0,0.0,0.0,0.0,0.0,0.0,0.0,0.0,0.0,0.0,0.0,0.0,0.0,0.0,0.0,0.0,0.0,0.0,-4.3788,-4.4023,-4.4621,-4.4693,-4.4693,-4.4693,-4.4874,-4.491,-4.4711,-4.4874,-4.491,-4.4693,-4.4673,-4.4762,-4.4961,-4.4941,-4.4989,-4.5142,-4.5122,-4.5267,-4.5648,-4.5543,-4.5927,-4.6694,-4.6784,-4.6981,-4.7232,-4.7254,-4.7227,-4.7133,-4.7133,-4.7088,-4.6998,-4.6998,-4.7066,-4.7151,-4.7043,-4.7066,-4.7156,0.0,0.0,0.0,0.0,0.0,0.0,0.0,0.0,0.0,0.0,0.0,0.0,-1.78,-1.78,-1.78,-1.78,0.0,0.0,0.0,0.0,0.0,0.0,0.0,0.0,-1.8776,-1.9306,-1.9283,-1.8621,0.0,0.0,-2.7449,-2.7969,-3.0692,-3.4873,-3.052,-2.8151,-2.7282,0.0,0.0,0.0,0.0,-2.4784,-2.4927,-2.7028,-2.7919,-2.7625,-2.4655,0.0,0.0,0.0,0.0,0.0,0.0,0.0,-1.9571,0.0,0.0,0.0,0.0,0.0,0.0,0.0,0.0,0.0,0.0,0.0,0.0,0.0,0.0,0.0,0.0,0.0,0.0,0.0,0.0,0.0,0.0,0.0,-4.2992,-4.3028,-4.3028,-4.3028,-4.3028,-4.3697,-4.3842,-4.3063,-4.3715,-4.3824,-4.3082,-4.2969,-4.329,-4.4048,-4.3949,-4.4248,-4.5,-4.4878,-4.4771,-4.4678,-4.4656,-4.5088,-4.5856,-4.5873,-4.6306,-4.7025,-4.7156,-4.7133,-4.702,-4.702,-4.702,-4.6998,-4.6998,-4.7002,-4.702,-4.7002,-4.7002,-4.702,0.0,0.0,0.0,0.0,0.0,0.0,0.0,0.0,0.0,0.0,0.0,0.0,0.0,-1.78,-1.78,-1.78,-1.78,0.0,0.0,0.0,0.0,0.0,0.0,0.0,0.0,-1.8551,-1.8757,0.0,0.0,-2.1083,-2.5261,-2.5974,-2.7437,-2.9504,-2.8908,-2.9179,-2.9851,-2.5331,0.0,0.0,0.0,-2.6965,-2.8727,-2.8564,-2.9688,-3.0944,0.0,0.0,0.0,0.0,0.0,0.0,-2.1055,-2.033,-1.9454,-1.8244,0.0,0.0,0.0,0.0,0.0,0.0,0.0,0.0,0.0,0.0,0.0,0.0,0.0,0.0,0.0,0.0,0.0,0.0,0.0,0.0,0.0,0.0,0.0,-4.2901,-4.2901,-4.2901,-4.2901,-4.3173,-4.3227,-4.2919,-4.3115,-4.313,-4.2841,-4.2727,-4.2794,-4.31,-4.3061,-4.3144,-4.3389,-4.3268,-4.3435,-4.3889,-4.3889,-4.4282,-4.5049,-4.557,-4.5963,-4.6266,-4.6829,-4.7043,-4.6998,-4.6998,-4.6998,-4.6998,-4.6998,-4.6998,-4.6998,-4.6998,-4.6998,-4.702,0.0,0.0,0.0,0.0,0.0,0.0,0.0,0.0,0.0,-1.8149,0.0,0.0,0.0,0.0,-1.8442,-1.8189,-1.8166,-1.8065,-1.7817,-1.7692,0.0,0.0,0.0,0.0,0.0,-1.8766,-1.9002,0.0,0.0,0.0,0.0,-2.4398,-2.5611,-2.7133,-2.7387,-2.8636,0.0,0.0,0.0,-2.7066,0.0,0.0,-3.1455,-3.2017,-3.3301,-3.4407,0.0,0.0,0.0,0.0,0.0,0.0,-2.2293,-2.07,-1.905,-1.7854,-1.8352,0.0,0.0,0.0,0.0,0.0,0.0,0.0,0.0,0.0,0.0,0.0,0.0,0.0,0.0,0.0,0.0,0.0,0.0,0.0,0.0,0.0,0.0,0.0,-4.2862,-4.2862,-4.2862,-4.29,-4.29,-4.2862,-4.2841,0.0,-4.2745,-4.2627,-4.2548,-4.251,-4.251,-4.2488,-4.2425,-4.2328,-4.2555,-4.3108,-4.3108,-4.35,-4.4246,-4.4785,-4.516,-4.5445,-4.6248,-4.6748,-4.6998,-4.6998,-4.6998,-4.6998,-4.6998,-4.6998,-4.6998,-4.6998,-4.6998,-4.7002,0.0,0.0,0.0,0.0,0.0,0.0,0.0,0.0,-1.8121,-1.8843,0.0,0.0,0.0,0.0,0.0,-1.8995,-1.891,-1.8589,-1.7884,-1.7755,0.0,0.0,0.0,0.0,0.0,-1.9956,-1.9975,-1.8505,-1.9237,-2.069,-2.2791,0.0,-2.563,-2.8412,-2.6336,-2.6485,-2.8381,0.0,-2.9911,-2.9587,0.0,-3.2886,-3.285,0.0,0.0,0.0,-3.6107,-3.4879,0.0,-3.0127,0.0,0.0,0.0,-2.1252,-1.8406,-1.7751,-1.8038,0.0,0.0,0.0,0.0,0.0,0.0,0.0,0.0,0.0,0.0,0.0,0.0,0.0,0.0,0.0,0.0,0.0,0.0,0.0,0.0,0.0,0.0,0.0,0.0,-4.2783,-4.2783,-4.2843,-4.2862,-4.2803,-4.2783,-4.2725,-4.2609,-4.2526,-4.2425,-4.2308,-4.2308,-4.2308,-4.2308,-4.2308,-4.2308,-4.2308,-4.2308,-4.2697,-4.3483,-4.35,-4.3889,-4.4603,-4.5427,-4.6212,-4.6962,-4.698,-4.6998,-4.6998,-4.6998,-4.6998,-4.6998,-4.6998,-4.6998,-4.6975,0.0,0.0,0.0,0.0,0.0,-1.9393,-1.9393,-1.9393,-1.9461,0.0,0.0,0.0,-1.9985,-2.0002,-1.9917,-1.971,-1.9215,-1.8809,-1.8606,-1.8036,-1.7687,-1.7664,-1.8968,-1.9355,-1.8593,-1.9983,-1.9975,-1.8505,-1.9237,-1.9634,-1.9763,-2.1622,-2.3026,-2.3987,-2.5259,-2.5851,-2.5831,-2.5357,0.0,0.0,-3.0093,-3.2234,0.0,0.0,0.0,0.0,0.0,-3.7055,-3.5322,0.0,-3.0785,-2.8503,0.0,0.0,-1.9253,-1.9068,-1.9528,0.0,-1.9697,0.0,0.0,0.0,0.0,0.0,0.0,0.0,0.0,0.0,0.0,0.0,0.0,0.0,0.0,0.0,0.0,0.0,0.0,0.0,0.0,0.0,0.0,0.0,-4.2649,-4.2688,-4.2688,0.0,-4.2606,-4.2584,-4.2526,-4.2425,-4.2346,-4.2308,-4.2308,-4.2308,-4.2308,-4.2308,-4.2308,-4.2308,-4.2308,-4.2412,-4.2644,-4.3233,-4.3604,-4.3836,-4.4585,-4.5392,-4.6177,-4.6748,-4.6998,-4.6998,-4.6998,-4.6998,-4.6998,-4.6998,-4.6754,-4.6405,0.0,0.0,0.0,0.0,-1.971,-2.0002,-2.0002,-2.0002,-2.0132,0.0,0.0,0.0,-2.135,-2.1688,-2.162,-2.1011,-2.0281,-1.9599,-1.8939,-1.8464,-1.8193,-1.8158,-1.9198,-1.9707,-1.9521,-2.0608,-2.045,-1.8969,-1.9697,-1.9528,-1.8589,-2.058,-2.1401,-2.1281,-2.3229,-2.3908,-2.3498,0.0,0.0,0.0,-3.0984,0.0,0.0,-3.8192,-3.9427,0.0,0.0,0.0,-3.7551,-3.6284,-3.3682,0.0,0.0,0.0,0.0,0.0,0.0,0.0,0.0,0.0,0.0,0.0,0.0,0.0,0.0,-2.8979,0.0,0.0,0.0,0.0,0.0,0.0,0.0,0.0,0.0,0.0,0.0,0.0,0.0,0.0,0.0,0.0,-4.2548,-4.257,-4.2589,-4.2548,-4.2506,-4.2483,-4.2425,-4.2346,-4.2308,-4.2308,-4.2308,-4.2308,-4.2308,-4.2308,-4.2308,-4.2287,-4.2065,-4.2065,-4.2305,-4.2541,-4.2793,-4.3036,-4.3822,-4.4284,-4.4586,-4.5721,-4.6359,-4.6637,-4.6387,-4.6273,-4.6273,-4.6273,-4.6102,-4.5827,0.0,0.0,-2.012,-2.012,-2.0187,-2.0272,-2.0369,-2.0318,-2.0572,0.0,-2.1647,-2.2223,-2.3613,-2.4288,-2.4101,-2.2769,-2.1837,-2.075,-1.9367,-1.9029,-1.892,-1.8932,-1.9547,-2.0187,-2.08,-2.1516,-2.1204,-1.9774,-2.0321,-1.9933,-1.8751,-2.0184,-2.0505,-1.9933,-2.099,-2.1506,-2.1668,0.0,0.0,-2.7647,-3.2982,-3.508,0.0,0.0,-4.1144,-4.0763,-4.1505,-4.0951,-3.985,-3.9389,-3.6239,0.0,0.0,0.0,0.0,0.0,-2.2246,0.0,0.0,0.0,0.0,0.0,0.0,0.0,-2.8103,-2.827,-2.8639,0.0,0.0,0.0,0.0,0.0,0.0,0.0,0.0,0.0,0.0,0.0,0.0,0.0,0.0,0.0,-4.2483,-4.2528,-4.2548,-4.2483,-4.2483,-4.2425,-4.2308,-4.2308,-4.2308,-4.2308,-4.2308,-4.2308,-4.2308,-4.2246,-4.2207,-4.2207,-4.1683,-4.1666,-4.2124,-4.1644,-4.1666,-4.216,-4.2889,-4.297,-4.2729,-4.4043,-4.511,-4.5922,-4.5468,-4.5303,-4.5303,-4.5303,-4.525,-4.5197,0.0,-2.0433,-2.097,-2.097,-2.1465,-2.2043,-2.2649,-2.2243,-2.233,-2.3678,-2.4374,-2.5084,-2.5964,-2.5642,-2.527,-2.4983,-2.3207,-2.1972,-2.1667,-1.9925,-1.9152,-1.9736,-1.9841,-2.0239,-2.0948,-2.1573,-2.1511,-2.0719,-2.0099,-1.9704,-1.9488,-1.9814,-1.9903,-1.9852,-2.0726,-2.1366,-2.1926,0.0,0.0,-2.8433,-3.0247,0.0,-3.7667,-3.9242,-4.0689,-4.189,-4.2051,-4.1464,-4.0377,-3.8751,-3.6256,-3.3347,0.0,0.0,0.0,-2.5623,-2.574,-2.647,-2.559,0.0,0.0,0.0,0.0,0.0,-2.4245,-2.4861,-2.6296,0.0,0.0,0.0,0.0,0.0,0.0,0.0,0.0,0.0,0.0,0.0,0.0,0.0,0.0,0.0,-4.2346,-4.2348,-4.2348,-4.2346,-4.2346,-4.2346,-4.2308,-4.2308,-4.2308,-4.2308,-4.2308,-4.2308,-4.2308,-4.1878,-4.1666,-4.1644,-4.1174,-4.099,-4.1082,-4.099,-4.099,-4.1082,-4.1279,-4.1632,-4.2126,-4.1953,-4.2937,-4.4637,-4.5113,-4.5303,-4.5303,-4.5303,-4.5028,-4.4652,0.0,-2.1228,-2.1752,-2.1752,-2.2361,-2.297,-2.3342,-2.3393,-2.3917,-2.5405,-2.6911,-2.7689,-2.73,-2.6911,-2.6404,-2.566,-2.3917,-2.253,-2.1803,-2.0683,-2.0209,-2.0585,-2.0507,-2.0777,-2.1485,-2.1757,-2.1563,-2.0847,-2.0381,-1.9804,-1.9168,-1.9974,-2.0378,-2.0488,-2.1139,-2.1902,0.0,0.0,-2.4855,-2.7329,-3.1231,0.0,-3.8426,-4.0401,-4.1738,-4.2537,-4.2537,-4.2239,-4.1417,-3.8646,-3.6987,0.0,0.0,-3.1571,-3.112,0.0,-2.8323,-2.9052,-2.723,0.0,0.0,-2.647,0.0,0.0,0.0,-2.5045,-2.5493,-2.7057,0.0,0.0,0.0,0.0,0.0,0.0,0.0,0.0,0.0,0.0,0.0,0.0,0.0,0.0,-4.1645,-4.1698,-4.1859,-4.2272,-4.2308,-4.2308,-4.2308,-4.2044,-4.2023,-4.2287,-4.1813,-4.1661,-4.1899,-4.1401,-4.1134,-4.1134,-4.0642,-4.0546,-4.0778,-4.0521,-4.0546,-4.0802,-4.0802,-4.0865,-4.0998,-4.107,-4.1576,-4.2407,-4.3498,-4.413,-4.444,-4.444,-4.4288,-4.4064,0.0,-2.1887,-2.2296,-2.2296,-2.2919,-2.3444,-2.3594,-2.4118,-2.5134,-2.6911,-2.9127,-3.0176,-2.9193,-2.8956,-2.8449,-2.7418,-2.5575,-2.3915,-2.2561,-2.1935,-2.1613,-2.1613,-2.1242,-2.1426,-2.2228,-2.2039,-2.1599,-2.0943,-2.0649,-1.9983,-1.9051,-2.0217,-2.0787,-2.0881,-2.1848,0.0,0.0,0.0,0.0,-2.7658,0.0,-3.6164,-3.743,-4.089,-4.2231,-4.2266,-4.253,-4.2616,-4.2135,-3.8881,-3.7923,-3.7473,-3.3791,-3.354,0.0,0.0,0.0,0.0,0.0,0.0,0.0,0.0,0.0,-2.7572,0.0,0.0,0.0,-2.7303,0.0,0.0,0.0,0.0,0.0,0.0,0.0,0.0,0.0,0.0,0.0,0.0,0.0,0.0,-4.036,-4.0289,-4.0646,-4.1752,-4.1556,-4.1573,-4.2037,-4.1703,-4.1687,-4.2145,-4.1265,-4.099,-4.1361,-4.0879,-4.0659,-4.0635,-4.012,-4.0095,-4.049,-4.007,-4.0095,-4.0514,-4.0514,-4.0269,-3.9918,-4.0499,-4.0615,-4.0542,-4.1789,-4.2738,-4.3383,-4.3383,-4.3466,-4.3598,-2.2192,-2.2229,-2.2296,-2.2296,-2.2919,-2.3613,-2.4271,-2.444,-2.5523,-2.8367,-3.0668,-3.2479,-3.3609,-3.3169,0.0,0.0,-3.0347,-2.7977,-2.7114,0.0,-2.3139,-2.3139,-2.187,-2.1795,-2.3123,-2.2394,-2.1934,-2.185,-2.0412,-2.0006,-2.0553,-2.0067,-1.9873,-2.0062,-2.2506,0.0,0.0,0.0,-2.863,0.0,-3.4413,-3.3991,0.0,-3.8029,-3.9786,-3.995,-4.1206,-4.1656,-4.1363,0.0,-3.871,-3.8092,0.0,-3.5761,-3.6166,-3.31,0.0,0.0,0.0,0.0,0.0,0.0,-3.0696,0.0,0.0,0.0,-2.6509,-2.4846,0.0,0.0,0.0,0.0,0.0,0.0,0.0,0.0,0.0,0.0,0.0,0.0,0.0,0.0,-3.7988,-3.7345,-3.7826,-4.0002,-3.8897,-3.9041,-4.1127,-4.1403,-4.1534,-4.16,-4.1082,-4.0825,-4.0873,-4.0351,-4.0103,-4.0078,-3.9592,-3.9415,-3.9468,-3.9415,-3.9415,-3.9468,-3.9468,-3.9441,-3.9379,-3.9462,-3.9866,-4.0475,-4.1243,-4.1976,-4.2605,-4.2605,-4.3035,-4.3598,-2.2296,-2.2296,-2.2296,-2.2296,-2.2919,-2.3646,-2.4389,-2.708,-2.9331,-3.0178,-3.2577,-3.4286,0.0,0.0,0.0,0.0,0.0,-2.9883,0.0,0.0,-2.5304,-2.5304,-2.3448,-2.2897,-2.3927,-2.266,-2.2013,-2.2013,-2.0939,-2.0594,-2.0905,-2.0642,-2.1203,-2.2536,-2.4301,0.0,-2.7665,0.0,-2.9026,0.0,0.0,0.0,0.0,-3.8438,-4.0851,-4.0699,-4.13,-4.1503,-4.1218,0.0,-3.8604,0.0,0.0,0.0,0.0,0.0,0.0,0.0,0.0,0.0,0.0,0.0,0.0,0.0,-2.7381,0.0,-2.5988,0.0,0.0,0.0,0.0,0.0,0.0,0.0,0.0,0.0,0.0,0.0,0.0,0.0,0.0,0.0,-3.5435,-3.551,-3.6327,-3.8415,-3.7394,-3.7767,-4.0269,-4.0403,-4.0749,-4.1494,-4.049,-4.0062,-4.0326,-3.9833,-3.9592,-3.9592,-3.9388,-3.9299,-3.9299,-3.9299,-3.9299,-3.9299,-3.9299,-3.9299,-3.9299,-3.9299,-3.9481,-3.9796,-4.005,-4.0878,-4.1844,-4.1844,-4.2324,-4.2953,-2.2296,0.0,0.0,0.0,-2.2919,-2.3849,-2.5202,-2.8993,-3.1735,-3.1782,-3.4011,0.0,-3.5707,-3.525,0.0,0.0,-3.4197,-3.2553,0.0,0.0,-2.7926,-2.7926,-2.556,-2.4467,-2.4957,-2.3432,-2.2417,-2.194,-2.1256,-2.0905,-2.0905,-2.0988,-2.1871,-2.3511,-2.5656,-2.7909,-3.0122,0.0,0.0,-3.1585,-3.3055,-3.3422,-3.3652,-3.8978,-4.1216,-4.1481,-4.1348,-4.1321,-4.1044,-3.9301,-3.8556,0.0,-3.7826,0.0,0.0,0.0,0.0,0.0,-3.4005,0.0,0.0,0.0,0.0,0.0,0.0,0.0,0.0,0.0,0.0,0.0,0.0,0.0,0.0,0.0,0.0,0.0,0.0,0.0,0.0,0.0,0.0,0.0,0.0,-3.2489,-3.3494,-3.6008,-3.4977,-3.5646,-3.8901,-3.909,-3.9635,-4.0763,-3.9817,-3.9451,-3.9791,-3.9451,-3.9299,-3.9299,-3.9299,-3.9299,-3.9299,-3.9299,-3.9299,-3.9299,-3.9299,-3.9299,-3.9299,-3.9299,-3.9299,-3.9299,-3.9299,-3.9901,-4.0845,-4.1061,-4.1591,-4.2224,-2.2296,-2.2296,0.0,0.0,0.0,-2.4374,-2.7249,-2.9092,-3.0917,-3.3051,0.0,0.0,0.0,0.0,0.0,0.0,0.0,-3.7043,-3.5504,0.0,-3.1055,-3.1055,-2.818,-2.6539,0.0,-2.4977,-2.3425,-2.1812,-2.1066,-2.0716,-2.0716,-2.0775,-2.0852,-2.113,-2.6049,-2.8925,-3.0268,-3.2792,-3.6007,-3.9303,-3.7896,-3.8856,-4.0902,0.0,-3.9491,-4.1437,-4.0995,0.0,0.0,-3.9411,-3.8905,0.0,0.0,0.0,0.0,0.0,0.0,0.0,0.0,0.0,0.0,-3.1615,0.0,0.0,0.0,0.0,-2.8887,0.0,0.0,0.0,0.0,0.0,0.0,0.0,0.0,0.0,0.0,0.0,0.0,0.0,0.0,0.0,0.0,-2.7332,-2.82,0.0,-3.0835,-3.1829,-3.6742,-3.7543,-3.8197,-3.896,-3.9198,-3.9299,-3.9325,-3.9299,-3.9299,-3.9299,-3.9299,-3.9299,-3.9299,-3.9299,-3.9299,-3.9299,-3.9299,-3.9299,-3.9299,-3.9299,-3.9299,-3.9299,-3.9299,-3.9332,-3.9448,-4.0177,-4.0862,-4.1529,0.0,0.0,0.0,0.0,0.0,-2.3818,-2.7266,-3.0342,-3.3085,0.0,0.0,0.0,0.0,-4.046,-4.0977,0.0,0.0,-3.9593,-3.8397,-3.5681,0.0,0.0,0.0,-2.9159,0.0,0.0,0.0,0.0,0.0,0.0,0.0,0.0,0.0,-2.3316,-2.6538,-2.9296,0.0,0.0,0.0,0.0,0.0,-3.8343,-4.1389,0.0,-4.0319,-4.0972,-4.0507,-4.0279,0.0,-3.9724,-3.9118,-3.8597,-3.8908,-3.8354,-3.7593,-3.7936,-3.7751,-3.7367,0.0,0.0,-3.7003,-3.3557,0.0,0.0,0.0,0.0,0.0,0.0,0.0,0.0,0.0,0.0,0.0,0.0,0.0,0.0,0.0,0.0,0.0,0.0,0.0,0.0,0.0,0.0,0.0,0.0,-2.9582,0.0,-3.5216,-3.6028,-3.692,-3.8139,-3.8412,-3.8808,-3.9299,-3.9299,-3.9299,-3.9299,-3.9299,-3.9299,-3.9299,-3.9299,-3.9299,-3.9299,-3.9299,-3.9299,-3.9299,-3.9299,-3.9299,-3.9299,-3.9299,-3.9299,-3.9332,-3.958,-4.0127,-4.0912,-2.3444,0.0,0.0,0.0,0.0,0.0,-2.8128,0.0,0.0,0.0,-3.8464,0.0,-4.1424,0.0,-4.2012,0.0,-4.2421,-4.1469,-4.0302,-3.8326,0.0,-3.6823,-3.4032,0.0,0.0,0.0,0.0,0.0,0.0,-2.3987,0.0,0.0,0.0,0.0,0.0,-2.9519,-3.2633,0.0,-3.6521,0.0,0.0,-3.8831,0.0,0.0,-4.0635,-4.0731,0.0,-4.0037,-3.9961,-3.9961,-3.9504,-3.9032,-3.9578,-3.8938,-3.8066,-3.8626,-3.8349,-3.7831,-3.7566,-3.7847,0.0,-3.4866,-3.3822,0.0,-2.9798,0.0,0.0,0.0,0.0,0.0,0.0,0.0,0.0,0.0,0.0,0.0,0.0,0.0,0.0,0.0,0.0,0.0,0.0,0.0,-2.5089,-2.8989,-2.802,0.0,0.0,-3.4457,-3.5648,-3.711,-3.7827,-3.8543,-3.9299,-3.9299,-3.9299,-3.9299,-3.9299,-3.9299,-3.9299,-3.9299,-3.9299,-3.9299,-3.9299,-3.9299,-3.9299,-3.9299,-3.9299,-3.9299,-3.9299,-3.9299,-3.9299,-3.9299,-3.9779,-4.0542,0.0,0.0,0.0,0.0,-2.5338,0.0,0.0,0.0,-3.614,0.0,-3.9276,-4.0773,-4.2236,-4.2405,-4.2692,-4.3392,-4.3443,-4.2861,-4.1407,-4.0629,0.0,0.0,-3.7726,-3.6191,-3.4671,0.0,0.0,0.0,0.0,0.0,0.0,0.0,0.0,0.0,-2.6268,0.0,-3.2911,-3.6056,-3.8715,-4.0748,-4.0279,-4.0377,-4.0754,-4.0279,-4.0402,-4.0731,-4.0254,-4.0113,-4.007,-4.007,-3.9986,-3.9875,-3.9875,-3.9694,-3.9501,-3.9501,-3.9405,-3.9149,-3.8444,-3.8261,-3.7748,-3.5595,-3.5015,0.0,0.0,0.0,-3.3491,0.0,0.0,0.0,0.0,0.0,0.0,0.0,0.0,0.0,0.0,0.0,0.0,0.0,0.0,0.0,0.0,0.0,-2.2711,-2.7297,-2.6077,0.0,0.0,-3.2866,-3.4336,-3.5893,-3.7384,-3.8526,-3.9299,-3.9299,-3.9299,-3.9299,-3.9299,-3.9299,-3.9299,-3.9299,-3.9299,-3.9299,-3.9299,-3.9299,-3.9299,-3.9299,-3.9299,-3.9299,-3.9299,-3.9299,-3.9299,-3.9299,-3.9746,-4.0359,-2.4355,-2.5541,-2.686,0.0,-2.708,-2.7842,0.0,0.0,0.0,0.0,-4.0815,-4.233,-4.3853,-4.4022,-4.409,-4.4265,-4.4282,0.0,0.0,0.0,0.0,-4.1457,-3.9495,-3.8244,-3.7831,-3.4721,0.0,-3.0249,0.0,0.0,-2.4729,0.0,0.0,0.0,0.0,0.0,-3.1743,-3.4793,-3.771,-4.0254,-4.0146,-4.0377,-4.0754,0.0,-4.0402,-4.0731,-4.0254,-4.0037,-3.9935,-3.9935,-3.9798,-3.959,-3.959,-3.9501,-3.9352,-3.9352,-3.9325,-3.9265,-3.9083,-3.9033,-3.8742,-3.7632,-3.6539,-3.5379,0.0,0.0,0.0,0.0,0.0,0.0,0.0,0.0,0.0,0.0,0.0,0.0,0.0,0.0,0.0,0.0,0.0,0.0,0.0,0.0,-2.3422,-2.5283,-2.5404,0.0,0.0,0.0,-3.2531,-3.5098,-3.6622,-3.7996,-3.9282,-3.9299,-3.9299,-3.9299,-3.9299,-3.9299,-3.9299,-3.9299,-3.9299,-3.9299,-3.9299,-3.9299,-3.9299,-3.9299,-3.9299,-3.9299,-3.9299,-3.9299,-3.9299,-3.9299,-3.9431,-3.9663,-2.6031,0.0,0.0,-3.121,0.0,0.0,-3.3372,-3.5013,0.0,-3.974,-4.166,0.0,-4.3978,-4.4942,-4.5579,-4.5579,-4.5579,0.0,-4.3995,0.0,0.0,-4.2337,-4.1424,-4.0629,-3.9986,-3.7263,0.0,-3.26,0.0,0.0,-2.538,0.0,0.0,0.0,0.0,-2.8681,0.0,-3.5357,-3.8244,-4.0096,-4.0096,-4.0254,0.0,-4.0196,-4.0254,-4.0434,-4.0121,-3.9961,-3.9901,-3.9901,-3.972,-3.9501,-3.9501,-3.9422,-3.9299,-3.9299,-3.9299,-3.9299,-3.9299,-3.9299,-3.9199,-3.8775,-3.8046,-3.7168,-3.6108,-3.6191,-3.6257,0.0,-3.5727,-3.5909,0.0,0.0,0.0,0.0,0.0,0.0,0.0,0.0,0.0,0.0,0.0,0.0,0.0,0.0,0.0,0.0,0.0,0.0,0.0,0.0,-3.1901,-3.3872,-3.5992,-3.7649,-3.8808,-3.9149,-3.9299,-3.9299,-3.9299,-3.9299,-3.9299,-3.9299,-3.9299,-3.9299,-3.9299,-3.9299,-3.9299,-3.9299,-3.9299,-3.9299,-3.9299,-3.9299,-3.9299,-3.9299,-3.9299,-3.9365,0.0,0.0,0.0,0.0,0.0,0.0,0.0,-3.7527,0.0,-4.0485,0.0,-4.3832,-4.3832,-4.5618,-4.6786,-4.6786,0.0,-4.6244,-4.4987,-4.5483,-4.4925,-4.2828,-4.3267,-4.2878,-4.139,-3.98,-3.7486,0.0,0.0,0.0,0.0,0.0,0.0,0.0,0.0,0.0,0.0,-3.6726,-3.9326,-4.0096,-4.0096,-4.007,-4.007,-4.007,-4.0045,-4.002,-3.9926,-3.9901,-3.9901,-3.9875,-3.972,-3.9501,-3.9501,-3.9422,-3.9299,-3.9299,-3.9299,-3.9299,-3.9299,-3.9299,-3.9299,-3.9299,-3.9299,-3.8967,-3.7682,-3.74,-3.74,-3.74,-3.6373,-3.6158,-3.8453,0.0,0.0,0.0,0.0,0.0,0.0,0.0,0.0,0.0,0.0,0.0,0.0,0.0,0.0,0.0,0.0,0.0,0.0,0.0,-3.1553,-3.2669,-3.5462,-3.7367,-3.8195,-3.8924,-3.9299,-3.9299,-3.9299,-3.9299,-3.9299,-3.9299,-3.9299,-3.9299,-3.9299,-3.9299,-3.9299,-3.9299,-3.9299,-3.9299,-3.9299,-3.9299,-3.9299,-3.9299,-3.9299,-3.9299,0.0,0.0,0.0,0.0,0.0,-3.958,-4.0916,-4.0849,-4.139,-4.3532,-4.5196,-4.6194,-4.6194,-4.6549,-4.6786,-4.6786,-4.6786,0.0,0.0,0.0,0.0,-4.5145,-4.4637,-4.3656,-4.2134,-4.007,-3.7486,0.0,0.0,0.0,0.0,0.0,0.0,0.0,0.0,0.0,-3.3982,-3.6757,0.0,-4.0096,-4.0096,-4.0037,-3.9952,-3.9952,-3.9858,-3.9781,-3.9755,-3.9824,-3.9875,-3.9781,-3.9642,-3.9501,-3.9501,-3.9422,-3.9299,-3.9299,-3.9299,-3.9299,-3.9299,-3.9299,-3.9299,-3.9299,-3.9299,-3.9232,-3.8984,-3.8917,-3.8917,-3.8917,-3.8718,-3.8138,-3.682,0.0,0.0,0.0,0.0,0.0,0.0,0.0,0.0,0.0,0.0,0.0,0.0,0.0,0.0,0.0,0.0,0.0,0.0,0.0,-2.9486,0.0,-3.4965,-3.6837,0.0,0.0,-3.9299,-3.9299,-3.9299,-3.9299,-3.9299,-3.9299,-3.9299,-3.9299,-3.9299,-3.9299,-3.9299,-3.9299,-3.9299,-3.9299,-3.9299,-3.9299,-3.9299,-3.9299,-3.9299,-3.9299,0.0,0.0,0.0,0.0,0.0,0.0,0.0,-4.4418,-4.4654,-4.4615,-4.5534,-4.6227,-4.6227,-4.7242,-4.7936,-4.7936,-4.7936,-4.7784,-4.7411,-4.7378,-4.7039,-4.6295,-4.5551,-4.4637,-4.3532,-4.1288,-3.8635,-3.5531,0.0,0.0,0.0,0.0,0.0,0.0,0.0,-3.1056,0.0,0.0,0.0,-4.0663,-4.0585,-4.0744,-4.1045,-4.0966,-4.0886,-4.0833,-4.0769,-4.0769,-4.0705,-3.9883,-3.9511,-3.9395,-3.9395,-3.9352,-3.9299,-3.9299,-3.9299,-3.9299,-3.9299,-3.9299,-3.9299,-3.9299,-3.9299,-3.9299,-3.9299,-3.9299,-3.9299,-3.9299,-3.9299,-3.8619,-3.6406,-3.4502,0.0,0.0,0.0,0.0,0.0,0.0,0.0,0.0,0.0,0.0,0.0,0.0,0.0,0.0,0.0,0.0,0.0,0.0,-2.8608,0.0,0.0,0.0,-3.7632,0.0,-3.9299,-3.9299,-3.9299,-3.9299,-3.9299,-3.9299,-3.9299,-3.9299,-3.9299,-3.9299,-3.9299,-3.9299,-3.9299,-3.9299,-3.9299,-3.9299,-3.9299,-3.9299,-3.9299,-3.9299,0.0,-3.8734,0.0,0.0,-4.254,0.0,-4.5669,-4.7208,-4.7513,-4.5754,-4.6041,-4.6397,-4.6397,-4.797,-4.9001,-4.9001,-4.9001,-4.8765,-4.8159,-4.8125,-4.7817,-4.7073,-4.6481,-4.5686,-4.4632,-4.2828,-4.0256,0.0,0.0,0.0,0.0,0.0,0.0,0.0,0.0,0.0,0.0,0.0,-3.9834,-4.1388,-4.1247,-4.152,-4.1997,-4.1904,-4.1821,-4.1794,-4.1671,-4.1643,-4.1461,-4.0296,-3.9844,-3.973,-3.958,-3.9531,-3.9497,-3.9348,-3.9299,-3.9299,-3.9299,-3.9299,-3.9299,-3.9299,-3.9299,-3.9299,-3.9299,-3.9299,-3.9299,-3.9299,-3.9299,-3.8669,-3.6605,-3.5528,0.0,0.0,0.0,0.0,0.0,0.0,0.0,0.0,0.0,0.0,0.0,0.0,0.0,0.0,0.0,0.0,-2.4183,-2.589,-2.7876,0.0,0.0,-3.5297,-3.6622,0.0,-3.9299,-3.9299,-3.9299,-3.9299,-3.9299,-3.9299,-3.9299,-3.9299,-3.9299,-3.9299,-3.9299,-3.9299,-3.9299,-3.9299,-3.9299,-3.9299,-3.9299,-3.9299,-3.9299,-3.9299,0.0,0.0,0.0,0.0,0.0,0.0,-4.665,-4.7953,-4.8832,-4.8612,-4.8646,-4.8697,-4.8697,-4.8883,-4.9001,-4.9001,-4.9001,-4.8968,-4.89,-4.89,-4.8578,-4.7821,-4.772,-4.6735,-4.4649,-4.4395,-4.2091,0.0,0.0,-3.2014,0.0,0.0,0.0,0.0,0.0,0.0,0.0,-3.8129,-3.9828,-4.1987,-4.1886,-4.1771,-4.1744,-4.1716,-4.1599,-4.1453,-4.1425,-4.1425,-4.1409,-4.1259,-4.121,-4.111,-4.0509,-4.031,-4.0177,-3.9497,-3.9299,-3.9299,-3.9299,-3.9299,-3.9299,-3.9299,-3.9299,-3.9299,-3.9299,-3.9299,-3.9299,-3.9299,-3.9299,-3.8834,-3.7284,-3.7963,-3.7459,0.0,0.0,0.0,0.0,0.0,0.0,0.0,0.0,0.0,0.0,-2.2742,0.0,0.0,0.0,0.0,-2.4895,-2.5193,-2.6601,-2.9397,-3.2365,-3.4286,-3.5098,-3.7906,-3.9299,-3.9299,-3.9299,-3.9299,-3.9299,-3.9299,-3.9299,-3.9299,-3.9299,-3.9299,-3.9299,-3.9299,-3.9299,-3.9299,-3.9299,-3.9299,-3.9299,-3.9299,-3.9299,-3.9299,0.0,0.0,0.0,0.0,0.0,0.0,0.0,-4.8629,-4.9001,-4.9001,-4.9001,-4.9001,-4.9001,-4.9001,-4.9001,-4.9001,-4.9001,-4.9001,-4.9001,-4.9001,-4.8883,-4.8578,-4.8125,-4.7496,-4.6599,-4.5263,-4.3223,0.0,0.0,0.0,0.0,0.0,0.0,0.0,0.0,-3.6428,-3.8162,-3.98,-4.1335,-4.2624,-4.244,-4.2655,-4.3003,-4.29,-4.2796,-4.2704,-4.2704,-4.2704,-4.2704,-4.2704,-4.2125,-4.1331,-4.1077,-4.0994,-4.0862,-4.0177,-3.9962,-3.9862,-3.9431,-3.9299,-3.9299,-3.9299,-3.9299,-3.9299,-3.9299,-3.9299,-3.9299,-3.9299,-3.9299,-3.9116,-3.8536,-3.8179,-3.7549,-3.6224,0.0,0.0,0.0,0.0,0.0,0.0,0.0,0.0,0.0,0.0,0.0,0.0,0.0,0.0,-2.3637,-2.4596,-2.6038,-2.8094,0.0,-3.4154,-3.4883,-3.784,-3.9299,-3.9299,-3.9299,-3.9299,-3.9299,-3.9299,-3.9299,-3.9299,-3.9299,-3.9299,-3.9299,-3.9299,-3.9299,-3.9299,-3.9299,-3.9299,-3.9299,-3.9299,-3.9299,-3.9299,-4.5173,0.0,-4.5043,0.0,-4.7192,-4.753,-4.9086,-4.9509,-4.9661,-4.9661,-4.9661,-4.9492,-4.9052,-4.9001,-4.9001,-4.9001,-4.9001,-4.9001,-4.9001,-4.9001,-4.9001,-4.9001,-4.8511,0.0,-4.7889,-4.6304,-4.4739,-4.3225,-4.0253,0.0,0.0,0.0,0.0,0.0,-3.7145,-3.8759,-3.9811,-4.1405,-4.2545,-4.3242,-4.3036,-4.3294,-4.3793,-4.3658,-4.3598,-4.3598,-4.3598,-4.3598,-4.3598,-4.3598,-4.2903,-4.1993,-4.1778,-4.1711,-4.1607,-4.0895,-4.068,-4.0558,-3.9829,-3.963,-3.9564,-3.9348,-3.9299,-3.9299,-3.9299,-3.9299,-3.9299,-3.9299,-3.9299,-3.9299,-3.9299,-3.8444,-3.7632,-3.7301,0.0,0.0,0.0,0.0,0.0,0.0,-2.9251,-2.7497,-2.6003,0.0,0.0,0.0,0.0,0.0,0.0,0.0,0.0,0.0,0.0,0.0,-3.5214,-3.7939,-3.9299,-3.9299,-3.9299,-3.9299,-3.9299,-3.9299,-3.9299,-3.9299,-3.9299,-3.9299,-3.9299,-3.9299,-3.9299,-3.9299,-3.9299,-3.9299,-3.9299,-3.9299,-3.9299,-3.9299,-4.6481,-4.6752,-4.7225,-4.8714,-4.956,-5.005,-5.0067,-5.071,-5.1183,-5.1183,-5.1183,-5.0642,-4.9171,-4.9001,-4.9001,-4.9001,-4.9001,-4.9001,-4.9001,-4.9001,-4.9001,0.0,0.0,-4.8663,-4.7906,-4.7669,-4.6945,-4.5669,0.0,0.0,-3.9603,0.0,-3.7814,-3.9249,-4.0028,-4.1255,-4.2732,-4.256,-4.3036,-4.3881,-4.3687,-4.3582,-4.3598,-4.3598,-4.3598,-4.3598,-4.3598,-4.3598,-4.3598,-4.3598,-4.3582,-4.3449,-4.2704,-4.2473,-4.2324,-4.1595,-4.1409,-4.1243,-4.0591,-4.0393,-4.021,-3.9481,-3.9299,-3.9299,-3.9299,-3.9299,-3.9299,-3.9299,-3.9299,-3.9299,-3.9299,-3.9282,-3.8321,-3.5413,0.0,0.0,0.0,0.0,0.0,0.0,-2.8194,-2.6735,-2.5259,0.0,0.0,0.0,0.0,0.0,0.0,0.0,0.0,-3.1416,-3.3011,0.0,-3.5976,-3.8205,-3.9299,-3.9299,-3.9299,-3.9299,-3.9299,-3.9299,-3.9299,-3.9299,-3.9299,-3.9299,-3.9299,-3.9299,-3.9299,-3.9299,-3.9299,-3.9299,-3.9299,-3.9299,-3.9299,-3.9299,-4.8951,-4.9458,-4.9965,-5.0439,-5.0693,-5.0862,-5.0862,-5.1065,-5.1185,-5.1185,-5.1185,-5.1031,-5.0557,-5.0507,-5.0507,0.0,-5.0033,-4.9746,0.0,-4.9272,-4.9001,-4.9001,-4.9001,-4.89,-4.8663,-4.7956,-4.7406,-4.7012,0.0,0.0,0.0,-4.0525,-4.0282,-4.0763,-4.1508,-4.2133,-4.2659,-4.3608,-4.4172,-4.4497,-4.4934,-4.4804,-4.4357,-4.4357,-4.4042,-4.3598,-4.3598,-4.3598,-4.3598,-4.3598,-4.3598,-4.3549,-4.3317,-4.3251,-4.3102,-4.2357,-4.2142,-4.2005,-4.1276,-4.0746,-4.0343,-4.0111,-3.968,-3.9299,-3.9299,-3.9299,-3.9299,-3.9299,-3.9299,-3.9299,-3.9299,-3.9299,-3.8669,-3.6721,-3.6804,0.0,0.0,0.0,0.0,0.0,-2.9632,-2.8555,0.0,-2.7323,0.0,0.0,0.0,0.0,0.0,0.0,0.0,0.0,-3.3491,0.0,-3.6009,-3.8205,-3.9299,-3.9299,-3.9299,-3.9299,-3.9299,-3.9299,-3.9299,-3.9299,-3.9299,-3.9299,-3.9299,-3.9299,-3.9299,-3.9299,-3.9299,-3.9299,-3.9299,-3.9299,-3.9299,-3.9299,-5.0507,-5.0896,-5.1185,-5.1185,-5.1437,-5.1623,-5.1623,-5.1877,-5.208,-5.208,-5.208,-5.208,-5.208,-5.208,0.0,-5.1236,-5.0777,-5.0507,-5.0507,-5.0084,-4.9712,-4.9424,-4.9407,-4.9258,-4.8925,-4.8298,0.0,-4.7953,-4.6486,-4.5103,-4.3817,-4.3293,-4.3048,-4.3081,-4.3545,-4.3744,-4.381,-4.4721,-4.5102,-4.5135,-4.5599,-4.5516,-4.5102,-4.5102,-4.4821,-4.4406,-4.4125,-4.4026,-4.3976,-4.3681,-4.3598,-4.3598,-4.3598,-4.3598,-4.3499,-4.3035,-4.2903,-4.2738,-4.1993,-4.1508,-4.1044,-4.0542,-4.0061,-3.9647,-3.9365,-3.9299,-3.9299,-3.9299,-3.9299,-3.9299,-3.9299,-3.9299,-3.8818,-3.735,-3.7102,-3.6241,-3.3723,0.0,0.0,0.0,0.0,0.0,0.0,-2.9439,-2.9323,0.0,0.0,0.0,0.0,0.0,-3.0638,-3.1851,-3.4833,-3.6688,-3.7218,-3.8619,-3.9299,-3.9299,-3.9299,-3.9299,-3.9299,-3.9299,-3.9299,-3.9299,-3.9299,-3.9299,-3.9299,-3.9299,-3.9299,-3.9299,-3.9299,-3.9299,-3.9299,-3.9299,-3.9299,-3.9348,-5.1302,-5.1303,-5.1369,0.0,-5.1944,-5.2384,-5.2384,-5.3027,-5.3501,-5.3501,-5.3501,-5.3501,-5.3501,-5.3501,-5.2926,-5.1472,0.0,0.0,-5.1269,-5.1219,-5.0881,-5.0202,-5.0168,-4.9767,-4.8902,-4.8662,-4.8534,-4.8452,-4.7591,-4.6812,-4.6048,-4.586,-4.5798,-4.5798,-4.5798,-4.5798,-4.5798,-4.5847,-4.5864,-4.5864,-4.5914,-4.5914,-4.5864,-4.5864,-4.5831,-4.5698,-4.5003,-4.4771,-4.4655,-4.3962,-4.3714,-4.3664,-4.3664,-4.3631,-4.3598,-4.3598,-4.3598,-4.3449,-4.2754,-4.2522,-4.2204,-4.0862,-4.0475,-4.021,-3.9481,-3.9299,-3.9299,-3.9299,-3.9299,-3.9299,-3.9299,-3.9299,-3.8818,-3.735,-3.7069,-3.6009,-3.3116,0.0,0.0,0.0,0.0,0.0,-2.9761,-3.0986,-3.1797,0.0,0.0,0.0,0.0,0.0,-3.1752,-3.5876,-3.6771,-3.7864,-3.9282,-3.9299,-3.9299,-3.9299,-3.9299,-3.9299,-3.9299,-3.9299,-3.9299,-3.9299,-3.9299,-3.9299,-3.9299,-3.9299,-3.9299,-3.9299,-3.9299,-3.9299,-3.9299,-3.9299,-3.9299,-3.9415,0.0,0.0,-5.2959,-5.2959,-5.3112,-5.3213,-5.3213,-5.3382,-5.3501,-5.3501,-5.3501,-5.3501,-5.3501,-5.3501,-5.3365,-5.2993,-5.2302,-5.1899,-5.1899,-5.1228,-5.0791,-5.0787,-5.077,-5.0433,-4.9661,-4.9451,-4.894,-4.8131,-4.7368,-4.6872,-4.6673,-4.6094,-4.5798,-4.5798,-4.5798,-4.5798,-4.5831,-4.6394,-4.6626,-4.6692,-4.7255,-4.7139,-4.6626,-4.6626,-4.6278,-4.5765,-4.5582,-4.5533,-4.55,-4.5334,-4.4903,-4.444,-4.444,-4.4059,-4.3598,-4.3598,-4.3598,-4.3565,-4.3383,-4.292,-4.2406,-4.2104,-4.1193,-4.021,-3.9481,-3.9299,-3.9299,-3.9299,-3.9299,-3.9299,-3.9299,-3.9299,-3.8818,-3.735,-3.6638,-3.5429,-3.305,-3.2702,0.0,0.0,-3.2332,-3.2945,-3.2779,-3.3591,-3.3657,0.0,0.0,-3.3789,-3.3789,-3.4203,-3.4932,-3.5976,-3.7268,-3.8377,-3.9282,-3.9299,-3.9299,-3.9299,-3.9299,-3.9299,-3.9299,-3.9299,-3.9299,-3.9299,-3.9299,-3.9299,-3.9299,-3.9299,-3.9299,-3.9299,-3.9299,-3.9299,-3.9299,-3.9299,-3.9299,-3.9415,-5.2858,-5.3213,-5.3501,-5.3501,-5.3501,-5.3501,-5.3501,-5.3501,-5.3501,-5.3501,-5.3501,-5.3501,-5.3501,-5.3501,-5.3501,-5.3501,-5.2944,-5.259,-5.259,-5.2051,-5.1598,-5.1396,-5.1446,-5.1076,-5.0157,-5.0107,-4.9592,-4.8514,-4.81,-4.7736,-4.7388,-4.699,-4.6808,-4.6808,-4.6808,-4.6808,-4.6825,-4.7222,-4.7404,-4.7438,-4.7835,-4.7769,-4.7404,-4.7404,-4.7156,-4.6758,-4.6411,-4.6295,-4.6245,-4.5897,-4.5516,-4.5185,-4.5185,-4.492,-4.4556,-4.4208,-4.3876,-4.3598,-4.3598,-4.33,-4.292,-4.2572,-4.1442,-4.031,-3.9895,-3.9547,-3.9299,-3.9299,-3.9299,-3.9299,-3.9299,-3.9299,-3.8818,-3.735,-3.6771,-3.5727,-3.3508,-3.3216,-3.3176,-3.3127,-3.3822,-3.4568,-3.5247,-3.5678,-3.5578,-3.4767,-3.5081,0.0,-3.5313,-3.639,-3.7019,-3.7019,-3.8112,-3.8891,-3.9299,-3.9299,-3.9299,-3.9299,-3.9299,-3.9299,-3.9299,-3.9299,-3.9299,-3.9299,-3.9299,-3.9299,-3.9299,-3.9299,-3.9299,-3.9299,-3.9299,-3.9299,-3.9299,-3.9299,-3.9299,-3.9448,-5.3501,-5.3501,-5.3501,-5.3501,-5.3501,-5.3501,-5.3501,-5.3501,-5.3501,-5.3501,-5.3501,-5.3501,-5.3467,-5.3467,-5.3433,-5.3433,-5.323,-5.311,-5.3144,-5.2955,-5.2549,-5.1948,-5.2084,-5.1665,-5.0592,-5.0593,-5.0193,-4.9276,-4.9276,-4.8895,-4.8166,-4.8166,-4.8117,-4.8001,-4.8001,-4.8001,-4.8001,-4.8001,-4.8001,-4.8001,-4.8001,-4.8001,-4.8001,-4.8001,-4.8001,-4.7918,-4.7289,-4.7073,-4.6957,-4.6344,-4.6046,-4.5963,-4.5963,-4.5881,-4.5665,-4.5036,-4.434,-4.3731,-4.3631,-4.3598,-4.3416,-4.2671,-4.1607,-4.0674,-4.0459,-3.9928,-3.9431,-3.9315,-3.9299,-3.9299,-3.9299,-3.9299,-3.8785,-3.7201,-3.6936,-3.6158,-3.3938,0.0,-3.4187,-3.4816,-3.5197,-3.5893,-3.7152,-3.7284,-3.7317,-3.7417,-3.7334,-3.7317,-3.7433,-3.803,-3.8377,-3.8377,-3.8984,-3.9299,-3.9299,-3.9299,-3.9299,-3.9299,-3.9299,-3.9299,-3.9299,-3.9299,-3.9299,-3.9299,-3.9299,-3.9299,-3.9299,-3.9299,-3.9299,-3.9299,-3.9299,-3.9299,-3.9299,-3.9299,-3.9365,-3.9663,-5.3501,-5.3501,-5.3501,-5.3501,-5.3501,-5.3501,-5.3501,-5.3501,-5.3501,-5.3501,-5.3501,-5.3433,-5.3264,-5.3264,-5.3195,-5.3024,-5.2799,-5.2764,-5.2938,-5.264,-5.2501,-5.2474,-5.2492,-5.2142,-5.1358,-5.0639,-5.0188,-5.0038,-5.0038,-4.9657,-4.8945,-4.8945,-4.8597,-4.8001,-4.8001,-4.8001,-4.8001,-4.8001,-4.8001,-4.8001,-4.8001,-4.8001,-4.8001,-4.8001,-4.8001,-4.7984,-4.7868,-4.7835,-4.7819,-4.7703,-4.7239,-4.6725,-4.6725,-4.6295,-4.5765,-4.5649,-4.5102,-4.439,-4.3764,-4.3598,-4.3416,-4.2671,-4.2324,-4.1872,-4.0691,-4.031,-4.0061,-3.9431,-3.9299,-3.9299,-3.9299,-3.9299,-3.8619,-3.6506,-3.6174,-3.5396,-3.3176,0.0,-3.4767,-3.4883,-3.6555,-3.7798,-3.803,-3.8046,-3.8295,-3.8917,-3.8377,-3.8311,-3.8934,-3.9083,-3.9133,-3.9133,-3.9249,-3.9299,-3.9299,-3.9299,-3.9299,-3.9299,-3.9299,-3.9299,-3.9299,-3.9299,-3.9299,-3.9299,-3.9299,-3.9299,-3.9299,-3.9299,-3.9299,-3.9299,-3.9299,-3.9299,-3.9299,-3.9299,-3.9696,-4.0343,-5.3501,-5.3501,-5.3501,-5.3501,-5.3501,-5.3501,-5.3501,-5.3501,-5.3501,-5.3501,-5.3433,-5.3298,-5.3213,-5.311,-5.3007,-5.2903,-5.2711,-5.2624,-5.2729,-5.2516,-5.2445,-5.2499,-5.257,-5.2439,-5.2089,-5.165,-5.1181,-5.0783,-5.0783,-5.0419,-4.9707,-4.9707,-4.9525,-4.9177,-4.8779,-4.8597,-4.858,-4.8166,-4.8001,-4.8001,-4.8001,-4.8001,-4.8001,-4.8001,-4.8001,-4.8001,-4.8001,-4.8001,-4.8001,-4.8001,-4.7769,-4.7487,-4.7487,-4.7255,-4.6908,-4.651,-4.5582,-4.4522,-4.378,-4.3598,-4.3515,-4.3168,-4.2787,-4.2324,-4.169,-4.0928,-4.031,-3.9962,-3.958,-3.9299,-3.9299,-3.9299,-3.8851,-3.7417,-3.6854,-3.6241,-3.5214,-3.5313,-3.5794,-3.6589,-3.7582,-3.8308,-3.8593,-3.8722,-3.8897,-3.9131,-3.8904,-3.895,-3.9282,-3.9299,-3.9299,-3.9299,-3.9299,-3.9299,-3.9299,-3.9299,-3.9299,-3.9299,-3.9299,-3.9299,-3.9299,-3.9299,-3.9299,-3.9299,-3.9299,-3.9299,-3.9299,-3.9299,-3.9299,-3.9299,-3.9299,-3.9299,-3.9299,-3.9299,-3.9779,-4.0509,-5.3501,-5.3501,-5.3501,-5.3501,-5.3501,-5.3501,-5.3501,-5.3501,-5.3501,-5.3501,-5.3332,-5.3179,-5.3161,-5.2938,-5.2799,-5.2781,-5.2624,-5.257,-5.257,-5.2445,-5.2409,-5.2409,-5.2499,-5.257,-5.257,-5.2445,-5.2127,-5.1564,-5.1564,-5.1164,-5.0469,-5.0469,-5.0369,-5.0187,-4.9624,-4.9375,-4.9326,-4.8763,-4.8514,-4.8514,-4.8332,-4.8266,-4.8249,-4.8067,-4.8001,-4.8001,-4.8001,-4.8001,-4.8001,-4.8001,-4.8001,-4.8001,-4.8001,-4.8001,-4.7885,-4.7322,-4.6228,-4.5003,-4.4108,-4.3714,-4.3598,-4.3598,-4.3168,-4.2704,-4.2522,-4.1657,-4.0829,-4.0663,-4.0061,-3.9564,-3.9564,-3.9415,-3.9017,-3.8096,0.0,-3.7251,-3.6903,-3.6655,-3.6936,-3.8079,-3.8361,-3.8596,-3.8974,-3.9148,-3.9175,-3.9023,-3.9148,-3.9245,-3.9299,-3.9299,-3.9299,-3.9299,-3.9299,-3.9299,-3.9299,-3.9299,-3.9299,-3.9299,-3.9299,-3.9299,-3.9299,-3.9299,-3.9299,-3.9299,-3.9299,-3.9299,-3.9299,-3.9299,-3.9299,-3.9299,-3.9299,-3.9299,-3.9299,-3.9299,-3.9879,-4.0696,-5.3501,-5.3501,-5.3501,-5.3501,-5.3501,-5.3501,-5.3501,-5.3501,-5.3501,-5.3501,-5.3332,-5.311,-5.2938,-5.2729,-5.257,-5.2445,-5.2409,-5.2409,-5.2409,-5.2426,-5.2409,-5.2409,-5.2409,-5.2409,-5.2409,-5.2426,-5.2393,-5.2343,-5.2343,-5.1962,-5.1232,-5.1232,-5.085,-5.022,-5.0154,-5.0137,-5.0137,-5.0071,-5.0055,-4.9988,-4.9293,-4.9028,-4.8945,-4.8266,-4.8001,-4.8001,-4.8001,-4.8001,-4.8001,-4.8001,-4.8001,-4.8001,-4.8001,-4.8001,-4.7984,-4.7934,-4.7355,-4.6427,-4.4986,-4.4125,-4.3598,-4.3598,-4.3549,-4.3333,-4.2655,-4.2406,-4.217,-4.1475,-4.0779,-4.0326,-4.0326,-3.9763,-3.8834,-3.7417,0.0,0.0,-3.6274,-3.7218,-3.8096,-3.8195,-3.8791,-3.9152,-3.9023,-3.9023,-3.9023,-3.8996,-3.9023,-3.9094,-3.9299,-3.9299,-3.9299,-3.9299,-3.9299,-3.9299,-3.9299,-3.9299,-3.9299,-3.9299,-3.9299,-3.9299,-3.9299,-3.9299,-3.9299,-3.9299,-3.9299,-3.9299,-3.9299,-3.9299,-3.9299,-3.9299,-3.9299,-3.9299,-3.9299,-3.9299,-4.015,-4.1342,-5.3501,-5.3501,-5.3501,-5.3501,-5.3501,-5.3501,-5.3501,-5.3501,-5.3467,-5.3348,-5.3127,-5.2938,-5.2729,-5.257,-5.2445,-5.2409,-5.2409,-5.2409,-5.2409,-5.2409,-5.2409,-5.2409,-5.2409,-5.2409,-5.2409,-5.2409,-5.2409,-5.2409,-5.2409,-5.2277,-5.1995,-5.1995,-5.181,-5.1529,-5.1082,-5.0866,-5.085,-5.0402,-5.022,-5.0187,-4.9906,-4.979,-4.9756,-4.9475,-4.9375,-4.9309,-4.8862,-4.868,-4.8614,-4.815,-4.8001,-4.8001,-4.8001,-4.8001,-4.8001,-4.8001,-4.7487,-4.6775,-4.6212,-4.5185,-4.4175,-4.3698,-4.3598,-4.3515,-4.3234,-4.282,-4.2406,-4.2125,-4.1524,-4.0895,-4.0492,-4.0177,-3.9663,-3.8609,0.0,-3.8162,-3.8046,-3.8146,-3.8377,-3.8825,-3.9133,-3.9218,-3.9023,-3.9121,-3.9121,-3.8996,-3.9121,-3.9218,-3.9299,-3.9299,-3.9299,-3.9299,-3.9299,-3.9299,-3.9299,-3.9299,-3.9299,-3.9299,-3.9299,-3.9299,-3.9299,-3.9299,-3.9299,-3.9299,-3.9299,-3.9299,-3.9299,-3.9299,-3.9299,-3.9299,-3.9299,-3.9299,-3.9365,-3.9812,-4.058,-4.1409,-5.3501,-5.3467,-5.3433,-5.3433,-5.3433,-5.3382,-5.3314,-5.3348,-5.3348,-5.311,-5.2938,-5.2764,-5.2624,-5.248,-5.2409,-5.2409,-5.2409,-5.2409,-5.2409,-5.2409,-5.2409,-5.2409,-5.2409,-5.2409,-5.2409,-5.2409,-5.2409,-5.2409,-5.2409,-5.2409,-5.2409,-5.2409,-5.2409,-5.2393,-5.1879,-5.1663,-5.163,-5.1115,-5.0899,-5.0883,-5.0651,-5.0551,-5.0518,-5.0303,-5.022,-5.0154,-4.9641,-4.9458,-4.9342,-4.8597,-4.8349,-4.8299,-4.8084,-4.8001,-4.8001,-4.8001,-4.7636,-4.7189,-4.6957,-4.6146,-4.5152,-4.4191,-4.3764,-4.3598,-4.3598,-4.3201,-4.2837,-4.2837,-4.2258,-4.1607,-4.1143,-4.0707,-4.0243,-3.973,-3.9023,-3.8709,-3.9232,-3.8858,-3.8725,-3.9249,-3.9299,-3.9218,-3.9023,-3.9121,-3.9148,-3.8996,-3.9121,-3.9245,-3.9299,-3.9299,-3.9299,-3.9299,-3.9299,-3.9299,-3.9299,-3.9299,-3.9299,-3.9299,-3.9299,-3.9299,-3.9299,-3.9299,-3.9299,-3.9299,-3.9299,-3.9299,-3.9299,-3.9299,-3.9299,-3.9299,-3.9299,-3.9299,-3.9398,-4.0144,-4.0812,-4.1413,-5.3501,-5.3348,-5.3179,-5.3179,-5.3179,-5.311,-5.2938,-5.3076,-5.311,-5.2903,-5.2729,-5.2589,-5.2589,-5.248,-5.2409,-5.2409,-5.2409,-5.2409,-5.2409,-5.2409,-5.2409,-5.2409,-5.2409,-5.2409,-5.2409,-5.2409,-5.2409,-5.2409,-5.2409,-5.2409,-5.2409,-5.2409,-5.2409,-5.2409,-5.2409,-5.2409,-5.2409,-5.2409,-5.2409,-5.2359,-5.1614,-5.1315,-5.1249,-5.0502,-5.0237,-5.0237,-5.022,-5.022,-5.0104,-4.9375,-4.9127,-4.8978,-4.8249,-4.8001,-4.8001,-4.8001,-4.8001,-4.7835,-4.7106,-4.6891,-4.6543,-4.5052,-4.4158,-4.3598,-4.3598,-4.3598,-4.3598,-4.3598,-4.3019,-4.2489,-4.2489,-4.1359,-4.0426,-4.0409,-3.9796,-3.9315,-3.9299,-3.9299,-3.9299,-3.9299,-3.9299,-3.9202,-3.9023,-3.8996,-3.8996,-3.8996,-3.8996,-3.9094,-3.9299,-3.9299,-3.9299,-3.9299,-3.9299,-3.9299,-3.9299,-3.9299,-3.9299,-3.9299,-3.9299,-3.9299,-3.9299,-3.9299,-3.9299,-3.9299,-3.9299,-3.9299,-3.9299,-3.9299,-3.9299,-3.9299,-3.9299,-3.9299,-3.9398,-4.0144,-4.0812,-4.1508,-5.3298,-5.323,-5.3179,-5.3179,-5.3076,-5.3007,-5.311,-5.3041,-5.2903,-5.2711,-5.2624,-5.2553,-5.248,-5.2409,-5.2409,-5.2409,-5.2409,-5.2409,-5.2409,-5.2409,-5.2409,-5.2409,-5.2409,-5.2409,-5.2409,-5.2409,-5.2409,-5.2409,-5.2409,-5.2409,-5.2409,-5.2409,-5.2409,-5.2409,-5.2409,-5.2409,-5.2409,-5.2409,-5.2409,-5.2393,-5.2177,-5.2078,-5.2061,-5.181,-5.1728,-5.1661,-5.1148,-5.0949,-5.085,-5.0121,-4.9889,-4.9756,-4.9011,-4.8431,-4.8001,-4.8001,-4.8001,-4.7951,-4.7736,-4.7289,-4.6543,-4.5052,-4.4522,-4.4241,-4.3714,-4.3598,-4.3598,-4.3598,-4.3416,-4.3102,-4.2589,-4.217,-4.1558,-4.0575,-4.0227,-3.9895,-3.9381,-3.9299,-3.9299,-3.9299,-3.9299,-3.9272,-3.9218,-3.9202,-3.9202,-3.9202,-3.9202,-3.9245,-3.9299,-3.9299,-3.9299,-3.9299,-3.9299,-3.9299,-3.9299,-3.9299,-3.9299,-3.9299,-3.9299,-3.9299,-3.9299,-3.9299,-3.9299,-3.9299,-3.9299,-3.9299,-3.9299,-3.9299,-3.9299,-3.9299,-3.9299,-3.9299,-3.9398,-4.0144,-4.0542,-4.0713,-5.323,-5.3161,-5.3041,-5.2972,-5.2868,-5.2799,-5.2885,-5.2816,-5.2711,-5.2535,-5.2535,-5.2499,-5.2409,-5.2409,-5.2409,-5.2409,-5.2409,-5.2409,-5.2409,-5.2409,-5.2409,-5.2409,-5.2409,-5.2409,-5.2409,-5.2409,-5.2409,-5.2409,-5.2409,-5.2409,-5.2409,-5.2409,-5.2409,-5.2409,-5.2409,-5.2409,-5.2409,-5.2409,-5.2409,-5.2409,-5.2409,-5.2409,-5.2409,-5.2409,-5.2409,-5.2359,-5.1912,-5.1746,-5.163,-5.0866,-5.0452,-5.0137,-4.969,-4.9028,-4.8448,-4.8448,-4.8233,-4.8001,-4.8001,-4.7669,-4.7057,-4.5864,-4.5334,-4.4937,-4.4208,-4.4042,-4.3959,-4.3648,-4.3598,-4.3449,-4.3019,-4.2688,-4.2237,-4.1375,-4.0978,-4.0531,-3.9846,-3.9746,-3.963,-3.9332,-3.9299,-3.9299,-3.9299,-3.9299,-3.9299,-3.9299,-3.9299,-3.9299,-3.9299,-3.9299,-3.9299,-3.9299,-3.9299,-3.9299,-3.9299,-3.9299,-3.9299,-3.9299,-3.9299,-3.9299,-3.9299,-3.9299,-3.9299,-3.9299,-3.9299,-3.9299,-3.9299,-3.9299,-3.9299,-3.9299,-3.9299,-3.9299,-3.9398,-4.0144,-4.0409,-4.0442,-5.3213,-5.3007,-5.2799,-5.2624,-5.2589,-5.2535,-5.2445,-5.2499,-5.2535,-5.2409,-5.2409,-5.2409,-5.2409,-5.2409,-5.2409,-5.2409,-5.2409,-5.2409,-5.2409,-5.2409,-5.2409,-5.2409,-5.2409,-5.2409,-5.2409,-5.2409,-5.2409,-5.2409,-5.2409,-5.2409,-5.2409,-5.2409,-5.2409,-5.2409,-5.2409,-5.2409,-5.2409,-5.2409,-5.2409,-5.2409,-5.2409,-5.2409,-5.2409,-5.2409,-5.2409,-5.2409,-5.2409,-5.2409,-5.231,-5.163,-5.0899,-5.0303,-5.0303,-4.9806,-4.9193,-4.9127,-4.863,-4.8084,-4.8017,-4.8001,-4.7835,-4.7173,-4.6493,-4.5781,-4.497,-4.4738,-4.4506,-4.383,-4.3648,-4.3598,-4.3598,-4.3035,-4.2572,-4.2506,-4.1926,-4.1276,-4.0564,-4.0492,-4.0227,-3.9497,-3.9398,-3.9381,-3.9315,-3.9299,-3.9299,-3.9299,-3.9299,-3.9299,-3.9299,-3.9299,-3.9299,-3.9299,-3.9299,-3.9299,-3.9299,-3.9299,-3.9299,-3.9299,-3.9299,-3.9299,-3.9299,-3.9299,-3.9299,-3.9299,-3.9299,-3.9299,-3.9299,-3.9299,-3.9299,-3.9299,-3.9299,-3.9299,-3.9381,-4.0061,-4.031,-4.0365,-5.3007,-5.2799,-5.2659,-5.2605,-5.2499,-5.248,-5.2535,-5.2499,-5.2445,-5.2409,-5.2409,-5.2409,-5.2409,-5.2409,-5.2409,-5.2409,-5.2409,-5.2409,-5.2409,-5.2409,-5.2409,-5.2409,-5.2409,-5.2409,-5.2409,-5.2409,-5.2409,-5.2409,-5.2409,-5.2409,-5.2409,-5.2409,-5.2409,-5.2409,-5.2409,-5.2409,-5.2409,-5.2409,-5.2409,-5.2409,-5.2409,-5.2409,-5.2409,-5.2409,-5.2409,-5.2409,-5.2409,-5.2409,-5.2393,-5.2227,-5.1661,-5.1048,-5.1048,-5.0551,-4.9856,-4.9276,-4.8995,-4.8746,-4.8166,-4.8001,-4.7968,-4.7802,-4.7636,-4.7173,-4.5847,-4.5102,-4.4638,-4.4489,-4.4009,-4.3598,-4.3598,-4.3466,-4.3168,-4.2589,-4.2357,-4.2021,-4.1293,-4.1193,-4.0928,-4.0243,-4.016,-3.9928,-3.9365,-3.9299,-3.9299,-3.9299,-3.9299,-3.9299,-3.9299,-3.9299,-3.9299,-3.9299,-3.9299,-3.9299,-3.9299,-3.9299,-3.9299,-3.9299,-3.9299,-3.9299,-3.9299,-3.9299,-3.9299,-3.9299,-3.9299,-3.9299,-3.9299,-3.9299,-3.9299,-3.9299,-3.9299,-3.9299,-3.9315,-3.9481,-3.9547,-3.9466,-5.2799,-5.2659,-5.257,-5.2499,-5.2445,-5.2409,-5.2499,-5.2445,-5.2409,-5.2409,-5.2409,-5.2409,-5.2409,-5.2409,-5.2409,-5.2409,-5.2409,-5.2409,-5.2409,-5.2409,-5.2409,-5.2409,-5.2409,-5.2409,-5.2409,-5.2409,-5.2409,-5.2409,-5.2409,-5.2409,-5.2409,-5.2409,-5.2409,-5.2409,-5.2409,-5.2409,-5.2409,-5.2409,-5.2409,-5.2409,-5.2409,-5.2409,-5.2409,-5.2409,-5.2409,-5.2409,-5.2409,-5.2409,-5.2409,-5.2409,-5.2161,-5.1829,-5.1829,-5.1313,-5.0651,-5.0253,-4.9657,-4.9028,-4.863,-4.8266,-4.8001,-4.8001,-4.8001,-4.7703,-4.6576,-4.6013,-4.5632,-4.5284,-4.4638,-4.4125,-4.4125,-4.383,-4.3466,-4.3085,-4.3019,-4.2754,-4.2026,-4.191,-4.1674,-4.0961,-4.0878,-4.0729,-4.0332,-4.0028,-3.9829,-3.9829,-3.9497,-3.9299,-3.9299,-3.9299,-3.9299,-3.9299,-3.9299,-3.9299,-3.9299,-3.9299,-3.9299,-3.9299,-3.9299,-3.9299,-3.9299,-3.9299,-3.9299,-3.9299,-3.9299,-3.9299,-3.9299,-3.9299,-3.9299,-3.9299,-3.9299,-3.9299,-3.9299,-3.9299,-3.9299,-3.9245,-5.2624,-5.257,-5.2535,-5.2409,-5.2409,-5.2409,-5.2409,-5.2409,-5.2409,-5.2409,-5.2409,-5.2409,-5.2409,-5.2409,-5.2409,-5.2409,-5.2409,-5.2409,-5.2409,-5.2409,-5.2409,-5.2409,-5.2409,-5.2409,-5.2409,-5.2409,-5.2409,-5.2409,-5.2409,-5.2409,-5.2409,-5.2409,-5.2409,-5.2409,-5.2409,-5.2409,-5.2409,-5.2409,-5.2409,-5.2409,-5.2409,-5.2409,-5.2409,-5.2409,-5.2409,-5.2409,-5.2409,-5.2409,-5.2409,-5.2409,-5.2409,-5.2409,-5.2409,-5.1995,-5.1464,-5.1348,-5.0419,-4.9425,-4.9177,-4.8663,-4.8166,-4.8034,-4.8001,-4.7835,-4.7222,-4.699,-4.6725,-4.6096,-4.5384,-4.4837,-4.4735,-4.4208,-4.3731,-4.3615,-4.3598,-4.3383,-4.2754,-4.2688,-4.2406,-4.1662,-4.1491,-4.1409,-4.1409,-4.0895,-4.0591,-4.0591,-4.0011,-3.9663,-3.9663,-3.9663,-3.9663,-3.9663,-3.9663,-3.9613,-3.9497,-3.9497,-3.9431,-3.9299,-3.9299,-3.9299,-3.9299,-3.9299,-3.9299,-3.9299,-3.9299,-3.9299,-3.9299,-3.9299,-3.9299,-3.9299,-3.9299,-3.9299,-3.9299,-3.9299,-3.9299,-3.9299,-5.2605,-5.2516,-5.2409,-5.2409,-5.2409,-5.2409,-5.2409,-5.2409,-5.2409,-5.2409,-5.2409,-5.2409,-5.2409,-5.2409,-5.2409,-5.2409,-5.2409,-5.2409,-5.2409,-5.2409,-5.2409,-5.2409,-5.2409,-5.2409,-5.2409,-5.2409,-5.2409,-5.2409,-5.2409,-5.2409,-5.2409,-5.2409,-5.2409,-5.2409,-5.2409,-5.2409,-5.2409,-5.2409,-5.2409,-5.2409,-5.2409,-5.2409,-5.2409,-5.2409,-5.2409,-5.2409,-5.2409,-5.2409,-5.2409,-5.2409,-5.2409,-5.2409,-5.2409,-5.2307,-5.2144,-5.1498,-5.1166,-5.0701,-4.9442,-4.9028,-4.8812,-4.8166,-4.8001,-4.7968,-4.7868,-4.7355,-4.6874,-4.6775,-4.6146,-4.545,-4.4835,-4.4605,-4.434,-4.3698,-4.3598,-4.3565,-4.3466,-4.3449,-4.3168,-4.2423,-4.1778,-4.1409,-4.1409,-4.1326,-4.1276,-4.1276,-4.1177,-4.1127,-4.1127,-4.1127,-4.1127,-4.1127,-4.1127,-4.0845,-4.026,-4.026,-3.9928,-3.9299,-3.9299,-3.9299,-3.9299,-3.9299,-3.9299,-3.9299,-3.9299,-3.9299,-3.9299,-3.9299,-3.9299,-3.9299,-3.9299,-3.9299,-3.9299,-3.9299,-3.9299,-3.9299,-5.2499,-5.2445,-5.2409,-5.2409,-5.2409,-5.2409,-5.2409,-5.2409,-5.2409,-5.2409,-5.2409,-5.2409,-5.2409,-5.2409,-5.2409,-5.2409,-5.2409,-5.2409,-5.2409,-5.2409,-5.2409,-5.2409,-5.2409,-5.2409,-5.2409,-5.2409,-5.2409,-5.2409,-5.2409,-5.2409,-5.2409,-5.2409,-5.2409,-5.2409,-5.2409,-5.2409,-5.2409,-5.2409,-5.2409,-5.2409,-5.2409,-5.2409,-5.2409,-5.2409,-5.2409,-5.2409,-5.2409,-5.2409,-5.2409,-5.2409,-5.2409,-5.2409,-5.2409,-5.2409,-5.2359,-5.2028,-5.163,-5.1166,-5.0502,-4.9723,-4.9028,-4.8696,-4.8299,-4.8001,-4.8001,-4.7752,-4.7504,-4.7504,-4.6924,-4.6311,-4.598,-4.5251,-4.4572,-4.4274,-4.3863,-4.3598,-4.3598,-4.3598,-4.3466,-4.3151,-4.282,-4.2622,-4.2622,-4.2241,-4.1993,-4.1993,-4.1612,-4.1409,-4.1409,-4.1409,-4.1409,-4.1409,-4.1409,-4.1276,-4.0961,-4.0961,-4.0796,-4.0464,-4.0464,-4.005,-3.9299,-3.9299,-3.9299,-3.9299,-3.9299,-3.9299,-3.9299,-3.9299,-3.9299,-3.9299,-3.9299,-3.9299,-3.9299,-3.9299,-3.9299,-3.9299]},{"header":{"parameterUnit":"m.s-1","parameterCategory":1,"la1":30.6,"la2":28.766,"lo1":-90.7593,"lo2":-88.6598,"dy":0.0162,"dx":0.0183,"nx":116,"ny":114,"refTime":"2024-05-29T06:00:00:Z","depth":0,"parameterNumber":3,"parameterNumberName":"V-component_of_WINDS"},"data":[0.0,0.0,0.0,0.0,0.0,0.0,0.0,0.0,0.0,0.0,0.0,0.0,0.0,0.0,0.0,0.0,0.0,0.0,0.0,0.0,0.0,0.0,0.0,0.0,0.0,0.0,0.0,0.0,0.0,0.0,0.0,0.0,0.0,0.0,0.0,0.0,0.0,0.0,0.0,0.0,0.0,0.0,0.0,0.0,0.0,0.0,0.0,0.0,0.0,0.0,0.0,0.0,0.0,0.0,0.0,0.0,0.0,0.0,0.0,0.0,0.0,0.0,0.0,0.0,0.0,0.0,0.0,0.0,0.0,0.0,0.0,0.0,0.0,0.0,0.0,0.0,0.0,0.0,0.0,0.0,0.0,0.0,0.0,0.0,0.0,0.0,0.0,0.0,0.0,0.0,0.0,0.0,0.0,0.0,0.0,0.0,0.0,0.0,0.0,0.0,0.0,0.0,0.0,0.0,0.0,0.0,0.0,0.0,0.0,0.0,0.0,0.0,0.0,0.0,0.0,0.0,0.0,0.0,0.0,0.0,0.0,0.0,0.0,0.0,0.0,0.0,0.0,0.0,0.0,0.0,0.0,0.0,0.0,0.0,0.0,0.0,0.0,0.0,0.0,0.0,0.0,0.0,0.0,0.0,0.0,0.0,0.0,0.0,0.0,0.0,0.0,0.0,0.0,0.0,0.0,0.0,0.0,0.0,0.0,0.0,0.0,0.0,0.0,0.0,0.0,0.0,0.0,0.0,0.0,0.0,0.0,0.0,0.0,0.0,0.0,0.0,0.0,0.0,0.0,0.0,0.0,0.0,0.0,0.0,0.0,0.0,0.0,0.0,0.0,0.0,0.0,0.0,0.0,0.0,0.0,0.0,0.0,0.0,0.0,0.0,0.0,0.0,0.0,0.0,0.0,0.0,0.0,0.0,0.0,0.0,0.0,0.0,0.0,0.0,0.0,0.0,0.0,0.0,0.0,0.0,0.0,0.0,0.0,0.0,0.0,0.0,0.0,0.0,0.0,0.0,0.0,0.0,0.0,0.0,0.0,0.0,0.0,0.0,0.0,0.0,0.0,0.0,0.0,0.0,0.0,0.0,0.0,0.0,0.0,0.0,0.0,0.0,0.0,0.0,0.0,0.0,0.0,0.0,0.0,0.0,0.0,0.0,0.0,0.0,0.0,0.0,0.0,0.0,0.0,0.0,0.0,0.0,0.0,0.0,0.0,0.0,0.0,0.0,0.0,0.0,0.0,0.0,0.0,0.0,0.0,0.0,0.0,0.0,0.0,0.0,0.0,0.0,0.0,0.0,0.0,0.0,0.0,0.0,0.0,0.0,0.0,0.0,0.0,0.0,0.0,0.0,0.0,0.0,0.0,0.0,0.0,0.0,0.0,0.0,0.0,0.0,0.0,0.0,0.0,0.0,0.0,0.0,0.0,0.0,0.0,0.0,0.0,0.0,0.0,0.0,0.0,0.0,0.0,0.0,0.0,0.0,0.0,0.0,0.0,0.0,0.0,0.0,0.0,0.0,0.0,0.0,0.0,0.0,0.0,0.0,0.0,0.0,0.0,0.0,0.0,0.0,0.0,0.0,0.0,0.0,0.0,0.0,0.0,0.0,0.0,0.0,0.0,0.0,0.0,0.0,0.0,0.0,0.0,0.0,0.0,0.0,0.0,0.0,0.0,0.0,0.0,0.0,0.0,0.0,0.0,0.0,0.0,0.0,0.0,0.0,0.0,0.0,0.0,0.0,0.0,0.0,0.0,0.0,0.0,0.0,0.0,0.0,0.0,0.0,0.0,0.0,0.0,0.0,0.0,0.0,0.0,0.0,0.0,0.0,0.0,0.0,0.0,0.0,0.0,0.0,0.0,0.0,0.0,0.0,0.0,0.0,0.0,0.0,0.0,0.0,0.0,0.0,0.0,0.0,0.0,0.0,0.0,0.0,0.0,0.0,0.0,0.0,0.0,0.0,0.0,0.0,0.0,0.0,0.0,0.0,0.0,0.0,0.0,0.0,0.0,0.0,0.0,0.0,0.0,0.0,0.0,0.0,0.0,0.0,0.0,0.0,0.0,0.0,0.0,0.0,0.0,0.0,0.0,0.0,0.0,0.0,0.0,0.0,0.0,0.0,0.0,0.0,0.0,0.0,0.0,0.0,0.0,0.0,0.0,0.0,0.0,0.0,0.0,0.0,0.0,0.0,0.0,0.0,0.0,0.0,0.0,0.0,0.0,0.0,0.0,0.0,0.0,0.0,0.0,0.0,0.0,0.0,0.0,0.0,0.0,0.0,0.0,0.0,0.0,0.0,0.0,0.0,0.0,0.0,0.0,0.0,0.0,0.0,0.0,0.0,0.0,0.0,0.0,0.0,0.0,0.0,0.0,0.0,0.0,0.0,0.0,0.0,0.0,0.0,0.0,0.0,0.0,0.0,0.0,0.0,0.0,0.0,0.0,0.0,0.0,0.0,0.0,0.0,0.0,0.0,0.0,0.0,0.0,0.0,0.0,0.0,0.0,0.0,0.0,0.0,0.0,0.0,0.0,0.0,0.0,0.0,0.0,0.0,0.0,0.0,0.0,0.0,0.0,0.0,0.0,0.0,0.0,0.0,0.0,0.0,0.0,0.0,0.0,0.0,0.0,0.0,0.0,0.0,0.0,0.0,0.0,0.0,0.0,0.0,0.0,0.0,0.0,0.0,0.0,0.0,0.0,0.0,0.0,0.0,0.0,0.0,0.0,0.0,0.0,0.0,0.0,0.0,0.0,0.0,0.0,0.0,0.0,0.0,0.0,0.0,0.0,0.0,0.0,0.0,0.0,0.0,0.0,0.0,0.0,0.0,0.0,0.0,0.0,0.0,0.0,0.0,0.0,0.0,0.0,0.0,0.0,0.0,0.0,0.0,0.0,0.0,0.0,0.0,0.0,0.0,0.0,0.0,0.0,0.0,0.0,0.0,0.0,0.0,0.0,0.0,0.0,0.0,0.0,0.0,0.0,0.0,0.0,0.0,0.0,0.0,0.0,0.0,0.0,0.0,0.0,0.0,0.0,0.0,0.0,0.0,0.0,0.0,0.0,0.0,0.0,0.0,0.0,0.0,0.0,0.0,0.0,0.0,0.0,0.0,0.0,0.0,0.0,0.0,0.0,0.0,0.0,0.0,0.0,0.0,0.0,0.0,0.0,0.0,0.0,0.0,0.0,0.0,0.0,0.0,0.0,0.0,0.0,0.0,0.0,0.0,0.0,0.0,0.0,0.0,0.0,0.0,0.0,0.0,0.0,0.0,0.0,0.0,0.0,0.0,0.0,0.0,0.0,0.0,0.0,0.0,0.0,0.0,0.0,0.0,0.0,0.0,0.0,0.0,0.0,0.0,0.0,0.0,0.0,0.0,0.0,0.0,0.0,0.0,0.0,0.0,0.0,0.0,0.0,0.0,0.0,0.0,0.0,0.0,0.0,0.0,0.0,0.0,0.0,0.0,0.0,0.0,0.0,0.0,0.0,0.0,0.0,0.0,0.0,0.0,0.0,0.0,0.0,0.0,0.0,0.0,0.0,0.0,0.0,0.0,0.0,0.0,0.0,0.0,0.0,0.0,0.0,0.0,0.0,0.0,0.0,0.0,0.0,0.0,0.0,0.0,0.0,0.0,0.0,0.0,0.0,0.0,0.0,0.0,0.0,0.0,0.0,0.0,0.0,0.0,0.0,0.0,0.0,0.0,0.0,0.0,0.0,0.0,0.0,0.0,0.0,0.0,0.0,0.0,0.0,0.0,0.0,0.0,0.0,0.0,0.0,0.0,0.0,0.0,0.0,0.0,0.0,0.0,0.0,0.0,0.0,0.0,0.0,0.0,0.0,0.0,0.0,0.0,0.0,0.0,0.0,0.0,0.0,0.0,0.0,0.0,0.0,0.0,0.0,0.0,0.0,0.0,0.0,0.0,0.0,0.0,0.0,0.0,0.0,0.0,0.0,0.0,0.0,0.0,0.0,0.0,0.0,0.0,0.0,0.0,0.0,0.0,0.0,0.0,0.0,0.0,0.0,0.0,0.0,0.0,0.0,0.0,0.0,0.0,0.0,0.0,0.0,0.0,0.0,0.0,0.0,0.0,0.0,0.0,0.0,0.0,0.0,0.0,0.0,0.0,0.0,0.0,0.0,0.0,0.0,0.0,0.0,0.0,0.0,0.0,0.0,0.0,0.0,0.0,0.0,0.0,0.0,0.0,0.0,0.0,0.0,0.0,0.0,0.0,0.0,0.0,0.0,0.0,0.0,0.0,0.0,0.0,0.0,0.0,0.0,0.0,0.0,0.0,0.0,0.0,0.0,0.0,0.0,0.0,0.0,0.0,0.0,0.0,0.0,0.0,0.0,0.0,0.0,0.0,0.0,0.0,0.0,0.0,0.0,0.0,0.0,0.0,0.0,0.0,0.0,0.0,0.0,0.0,0.0,0.0,0.0,0.0,0.0,0.0,0.0,0.0,0.0,0.0,0.0,0.0,0.0,0.0,0.0,0.0,0.0,0.0,0.0,0.0,0.0,0.0,0.0,0.0,0.0,0.0,0.0,0.0,0.0,0.0,0.0,0.0,0.0,0.0,0.0,0.0,0.0,0.0,0.0,0.0,0.0,0.0,0.0,0.0,0.0,0.0,0.0,0.0,0.0,0.0,0.0,0.0,0.0,0.0,0.0,0.0,0.0,0.0,0.0,0.0,0.0,0.0,0.0,0.0,0.0,0.0,0.0,0.0,0.0,0.0,0.0,0.0,0.0,0.0,0.0,0.0,0.0,0.0,0.0,0.0,0.0,0.0,0.0,0.0,0.0,0.0,0.0,0.0,0.0,0.0,0.0,0.0,0.0,0.0,0.0,0.0,0.0,0.0,0.0,0.0,0.0,0.0,0.0,0.0,0.0,0.0,0.0,0.0,0.0,0.0,0.0,0.0,0.0,0.0,0.0,0.0,0.0,0.0,0.0,0.0,0.0,0.0,0.0,0.0,0.0,0.0,0.0,0.0,0.0,0.0,0.0,0.0,0.0,0.0,0.0,0.0,0.0,0.0,0.0,0.0,0.0,0.0,0.0,0.0,0.0,0.0,0.0,0.0,0.0,0.0,0.0,0.0,0.0,0.0,0.0,0.0,0.0,0.0,0.0,0.0,0.0,0.0,0.0,0.0,0.0,0.0,0.0,0.0,0.0,0.0,0.0,0.0,0.0,0.0,0.0,0.0,0.0,0.0,0.0,0.0,0.0,0.0,0.0,0.0,0.0,0.0,0.0,0.0,0.0,0.0,0.0,0.0,0.0,0.0,0.0,0.0,0.0,0.0,0.0,0.0,0.0,0.0,0.0,0.0,0.0,0.0,0.0,0.0,0.0,0.0,0.0,0.0,0.0,0.0,0.0,0.0,0.0,0.0,0.0,0.0,0.0,0.0,0.0,0.0,0.0,0.0,0.0,0.0,0.0,0.0,0.0,0.0,0.0,0.0,0.0,0.0,0.0,0.0,0.0,0.0,0.0,0.0,0.0,0.0,0.0,0.0,0.0,0.0,0.0,0.0,0.0,0.0,0.0,0.0,0.0,0.0,0.0,0.0,0.0,0.0,0.0,0.0,0.0,0.0,0.0,0.0,0.0,0.0,0.0,0.0,0.0,0.0,0.0,0.0,0.0,0.0,0.0,0.0,0.0,0.0,0.0,0.0,0.0,0.0,0.0,0.0,0.0,0.0,0.0,0.0,0.0,0.0,0.0,0.0,0.0,0.0,0.0,0.0,0.0,0.0,0.0,0.0,0.0,0.0,0.0,0.0,0.0,0.0,0.0,0.0,0.0,0.0,0.0,0.0,0.0,0.0,0.0,0.0,0.0,0.0,0.0,0.0,0.0,0.0,0.0,0.0,0.0,0.0,0.0,0.0,0.0,0.0,0.0,0.0,0.0,0.0,0.0,0.0,0.0,0.0,0.0,0.0,0.0,0.0,0.0,0.0,0.0,0.0,0.0,0.0,0.0,0.0,0.0,0.0,0.0,0.0,0.0,0.0,0.0,0.0,0.0,0.0,0.0,0.0,0.0,0.0,0.0,0.0,0.0,0.0,0.0,0.0,0.0,0.0,0.0,0.0,0.0,0.0,0.3453,0.3996,0.0,0.0,0.0,0.0,0.0,0.0,0.0,0.0,0.0,0.0,0.0,0.0,0.0,0.0,0.0,0.0,0.0,0.0,0.0,0.0,0.0,0.0,0.0,0.3893,0.4052,0.4181,0.4315,0.4402,0.4402,0.0,0.0,0.0,0.0,0.0,0.3936,0.3936,0.4162,0.463,0.4764,0.5117,0.5661,0.5511,0.5217,0.4831,0.0,0.0,0.0,0.0,0.0,0.0,0.0,0.0,0.0,0.0,0.0,0.0,0.0,0.0,0.0,0.0,0.0,0.0,0.0,0.0,0.0,0.0,0.0,0.0,0.0,0.0,0.0,0.0,0.0,0.0,0.0,0.0,0.0,0.0,0.0,0.0,0.0,0.0,0.0,0.0,0.0,0.0,0.0,0.0,0.0,0.0,0.0,0.0,0.0,0.0,0.0,0.0,0.0,0.0,0.0,0.0,0.0,0.0,0.0,0.0,0.0,0.0,0.0,0.0,0.0,0.0,0.0,0.0,0.0,0.0,0.3544,0.383,0.0,0.0,0.0,0.0,0.0,0.0,0.0,0.0,0.0,0.0,0.0,0.0,0.0,0.0,0.0,0.0,0.0,0.0,0.0,0.0,0.0,0.3933,0.4063,0.416,0.4328,0.4609,0.4629,0.4629,0.4629,0.4583,0.0,0.0,0.0,0.4456,0.4402,0.4442,0.477,0.5373,0.5628,0.6157,0.6928,0.7201,0.682,0.5903,0.5641,0.0,0.0,0.0,0.0,0.0,0.0,0.0,0.0,0.0,0.0,0.0,0.0,0.0,0.0,0.0,0.0,0.0,0.0,0.0,0.0,0.0,0.0,0.0,0.0,0.0,0.0,0.0,0.0,0.0,0.0,0.0,0.0,0.0,0.0,0.0,0.0,0.0,0.0,0.0,0.0,0.0,0.0,0.0,0.0,0.0,0.0,0.0,0.0,0.0,0.0,0.0,0.0,0.0,0.0,0.0,0.0,0.0,0.0,0.0,0.0,0.0,0.0,0.0,0.3411,0.3533,0.4054,0.3547,0.3348,0.3433,0.3595,0.3545,0.3437,0.4065,0.0,0.0,0.0,0.0,0.0,0.0,0.0,0.0,0.0,0.0,0.0,0.0,0.0,0.0,0.0,0.0,0.0,0.0,0.0,0.4264,0.4341,0.4817,0.5239,0.5501,0.5528,0.5528,0.5528,0.5304,0.0,0.0,0.4748,0.4635,0.4409,0.4635,0.504,0.5658,0.6926,0.7776,0.8167,0.8437,0.849,0.829,0.6994,0.6393,0.6306,0.0,0.0,0.0,0.0,0.0,0.0,0.0,0.0,0.0,0.0,0.0,0.0,0.0,0.0,0.0,0.0,0.0,0.0,0.0,0.0,0.0,0.0,0.0,0.0,0.0,0.0,0.0,0.0,0.0,0.0,0.0,0.0,0.0,0.0,0.0,0.0,0.0,0.0,0.0,0.0,0.0,0.3688,0.396,0.0,0.0,0.0,0.0,0.0,0.0,0.0,0.0,0.0,0.0,0.0,0.0,0.0,0.3732,0.3329,0.3603,0.3437,0.2852,0.3041,0.3097,0.3092,0.3056,0.3039,0.3045,0.3093,0.0,0.34,0.3251,0.0,0.0,0.0,0.0,0.0,0.0,0.0,0.0,0.0,0.0,0.0,0.0,0.0,0.0,0.0,0.0,0.0,0.0,0.0,0.0,0.0,0.5263,0.5705,0.6166,0.6334,0.6313,0.6003,0.588,0.5588,0.5104,0.5084,0.5104,0.5122,0.5424,0.6131,0.7208,0.8357,0.8985,0.9139,0.9239,0.9299,0.9272,0.8617,0.7963,0.7273,0.6567,0.0,0.0,0.0,0.0,0.0,0.0,0.0,0.0,0.0,0.0,0.0,0.0,0.0,0.0,0.0,0.0,0.0,0.0,0.0,0.0,0.0,0.0,0.0,0.0,0.0,0.0,0.0,0.0,0.0,0.0,0.0,0.0,0.0,0.0,0.0,0.0,0.0,0.0,0.0,0.3807,0.4079,0.4674,0.4429,0.4342,0.0,0.0,0.0,0.0,0.0,0.0,0.0,0.0,0.0,0.3707,0.3758,0.3565,0.3145,0.3304,0.3208,0.2944,0.3049,0.3427,0.3934,0.339,0.3786,0.4892,0.4268,0.4422,0.4926,0.3857,0.4007,0.4941,0.0,0.0,0.0,0.0,0.7163,0.7138,0.0,0.0,0.0,0.0,0.0,0.0,0.0,0.0,0.0,0.0,0.0,0.0,0.5409,0.5794,0.6267,0.688,0.7054,0.6954,0.6559,0.6317,0.6001,0.5558,0.5447,0.5541,0.5818,0.6439,0.7323,0.8509,0.9467,0.9936,0.9943,1.006,1.0127,1.0127,1.0053,0.9406,0.8312,0.7632,0.6926,0.6194,0.0,0.0,0.0,0.0,0.0,0.0,0.0,0.0,0.0,0.0,0.0,0.0,0.0,0.0,0.0,0.0,0.0,0.0,0.0,0.0,0.0,0.0,0.0,0.0,0.0,0.0,0.0,0.0,0.0,0.0,0.0,0.0,0.0,0.0,0.0,0.0,0.0,0.4126,0.4311,0.5155,0.4624,0.4449,0.0,0.0,0.0,0.0,0.0,0.0,0.362,0.3928,0.4059,0.3869,0.393,0.3908,0.3844,0.392,0.3938,0.3946,0.3946,0.4371,0.5183,0.4381,0.4878,0.6373,0.5579,0.5636,0.6217,0.489,0.4801,0.5503,0.5989,0.6726,0.7534,0.8005,0.8069,0.7956,0.0,0.0,0.0,0.0,0.0,0.0,0.0,0.0,0.0,0.0,0.0,0.5635,0.61,0.6626,0.718,0.7786,0.7602,0.7457,0.7446,0.666,0.6182,0.6149,0.5845,0.5832,0.6162,0.7551,0.8462,0.8784,0.9976,1.0546,1.0559,1.1082,1.1302,1.1295,1.1049,1.0434,0.9568,0.8697,0.8116,0.7692,0.6579,0.0,0.0,0.0,0.0,0.0,0.0,0.0,0.0,0.0,0.0,0.0,0.0,0.0,0.0,0.0,0.0,0.0,0.0,0.0,0.0,0.0,0.0,0.0,0.0,0.0,0.0,0.0,0.0,0.0,0.0,0.0,0.0,0.0,0.0,0.0,0.0,0.0,0.0,0.5003,0.3897,0.0,0.0,0.0,0.0,0.3799,0.4204,0.42,0.362,0.3821,0.4127,0.4541,0.4627,0.5112,0.6139,0.6199,0.6258,0.6213,0.6213,0.6268,0.6323,0.6274,0.6274,0.6373,0.6323,0.6371,0.6393,0.6149,0.6456,0.7001,0.7182,0.7655,0.8283,0.8472,0.8649,0.8713,0.0,0.0,0.0,0.0,0.0,0.4802,0.4802,0.4802,0.4878,0.5087,0.5497,0.5993,0.664,0.7231,0.7746,0.8176,0.8283,0.817,0.7789,0.7108,0.6713,0.6713,0.6271,0.6519,0.7584,0.847,0.9265,0.9963,1.0573,1.0935,1.1122,1.1295,1.1389,1.1389,1.1282,1.1096,1.0735,0.9666,0.8858,0.8163,0.7542,0.6734,0.0,0.0,0.0,0.0,0.0,0.0,0.0,0.0,0.0,0.0,0.0,0.0,0.0,0.0,0.0,0.0,0.0,0.0,0.0,0.0,0.0,0.0,0.0,0.0,0.0,0.0,0.0,0.0,0.0,0.0,0.0,0.0,0.0,0.0,0.0,0.0,0.0,0.5463,0.5545,0.0,0.6188,0.5903,0.563,0.5471,0.5208,0.5017,0.4912,0.508,0.5432,0.5953,0.5987,0.6217,0.6753,0.6795,0.6763,0.6763,0.6763,0.7125,0.7788,0.7122,0.7537,0.8823,0.7957,0.8012,0.8654,0.8445,0.8041,0.7567,0.7605,0.809,0.8824,0.9046,0.9154,0.9181,0.0,0.0,0.0,0.0,0.4802,0.4802,0.4802,0.4912,0.5164,0.5604,0.6176,0.6825,0.759,0.8077,0.8459,0.8788,0.8795,0.8644,0.8225,0.7639,0.7306,0.7306,0.7075,0.743,0.8523,0.9285,0.9973,1.0593,1.1082,1.1383,1.1577,1.1677,1.1688,1.1717,1.1623,1.1577,1.1516,1.0641,0.982,0.9099,0.8545,0.7842,0.7015,0.0,0.0,0.0,0.0,0.0,0.0,0.0,0.0,0.0,0.0,0.0,0.0,0.0,0.0,0.0,0.0,0.0,0.0,0.0,0.0,0.0,0.0,0.0,0.0,0.0,0.0,0.0,0.0,0.0,0.0,0.0,0.0,0.0,0.0,0.0,0.6,0.6383,0.6466,0.6665,0.7158,0.667,0.6257,0.6119,0.5823,0.5779,0.5968,0.6161,0.6603,0.7334,0.734,0.7589,0.8056,0.8056,0.8056,0.8056,0.8056,0.8472,0.9104,0.8423,0.8846,1.0156,0.9308,0.9362,0.9969,0.9855,0.9334,0.8574,0.8465,0.875,0.9291,0.9405,0.9445,0.9466,0.0,0.0,0.0,0.4802,0.4802,0.4802,0.4802,0.5141,0.5595,0.6137,0.7144,0.8117,0.892,0.9142,0.9327,0.9585,0.9113,0.8804,0.8804,0.8232,0.7912,0.7919,0.8237,0.855,0.8858,1.0003,1.0606,1.0633,1.1484,1.1906,1.1926,1.2171,1.2305,1.2291,1.2047,1.1919,1.1899,1.1577,1.1122,1.0553,0.9604,0.9078,0.8738,0.0,0.0,0.0,0.0,0.0,0.0,0.0,0.0,0.0,0.0,0.0,0.0,0.0,0.0,0.0,0.0,0.0,0.0,0.0,0.0,0.0,0.0,0.0,0.0,0.0,0.0,0.0,0.0,0.0,0.0,0.0,0.0,0.0,0.5249,0.5771,0.6661,0.7668,0.6485,0.5857,0.6436,0.5953,0.5663,0.5723,0.608,0.6443,0.6762,0.6989,0.7583,0.8633,0.8633,0.9164,1.0233,1.0233,1.0233,1.0233,1.0233,1.0233,1.0233,1.0233,1.0233,1.0233,1.0224,1.0224,1.0224,1.0216,1.0212,1.018,0.9774,0.9587,0.9583,0.9579,0.9579,0.9579,0.0,0.0,0.4802,0.4802,0.4802,0.4802,0.4802,0.5141,0.5666,0.6394,0.7431,0.8401,0.9202,0.9413,0.9519,0.9607,0.9113,0.8804,0.8804,0.8232,0.8005,0.8243,0.8731,0.9339,1.0097,1.0425,1.0908,1.1544,1.1785,1.2013,1.2184,1.2265,1.2305,1.2298,1.2218,1.2184,1.2178,1.2091,1.185,1.1464,1.0579,0.9893,0.9372,0.0,0.0,0.0,0.0,0.0,0.0,0.0,0.0,0.0,0.0,0.0,0.0,0.0,0.0,0.0,0.0,0.0,0.0,0.0,0.0,0.0,0.0,0.0,0.0,0.0,0.0,0.0,0.0,0.0,0.0,0.0,0.0,0.6963,0.6012,0.6982,0.7647,0.7329,0.7665,0.7969,0.8128,0.8301,0.8335,0.813,0.8579,0.8843,0.8938,0.8981,0.9324,0.9868,0.9929,1.0095,1.0546,1.0546,1.0546,1.0546,1.0546,1.0546,1.0546,1.0546,1.0546,1.0538,1.0416,1.0359,1.0351,1.0217,1.0212,1.0192,0.9904,0.9815,0.9799,0.9673,0.9579,0.9579,0.0,0.4802,0.4802,0.4802,0.4802,0.4802,0.4802,0.5285,0.5932,0.6748,0.8007,0.9133,0.9943,0.9987,1.0046,1.0285,0.9394,0.8856,0.8959,0.8543,0.8405,0.8724,0.9412,1.0033,1.0579,1.0955,1.1397,1.1906,1.2027,1.2138,1.2305,1.2305,1.2305,1.2305,1.2305,1.2305,1.2305,1.2305,1.2204,1.1997,1.1397,1.0861,1.0334,0.9626,0.9225,0.8958,0.841,0.821,0.813,0.7566,0.0,0.0,0.0,0.0,0.0,0.0,0.0,0.0,0.0,0.0,0.0,0.0,0.0,0.0,0.0,0.0,0.0,0.0,0.0,0.0,0.0,0.0,0.0,0.0,0.6995,0.7584,0.7231,0.7935,0.828,0.779,0.8381,0.8851,0.8926,0.917,0.9364,0.9381,0.9702,0.9957,1.0067,1.0134,1.0271,1.0542,1.0542,1.059,1.0692,1.0692,1.0692,1.0692,1.0692,1.0692,1.0692,1.0692,1.0692,1.0684,1.0586,1.0542,1.0534,1.0428,1.0383,0.0,0.0,0.0,0.0,0.0,0.9734,0.9726,0.0,0.4802,0.4802,0.4802,0.4802,0.4802,0.4802,0.5475,0.6288,0.7095,0.8619,0.9932,1.0745,1.0542,1.0605,1.1174,0.9751,0.8923,0.9188,0.899,0.8991,0.9344,1.0171,1.064,1.074,1.1504,1.1919,1.1953,1.2178,1.2305,1.2305,1.2305,1.2305,1.2305,1.2305,1.2305,1.2305,1.2305,1.2305,1.2278,1.206,1.1737,1.139,1.0575,1.0388,1.0486,0.9666,0.9337,0.9184,0.8378,0.0,0.0,0.0,0.0,0.0,0.0,0.0,0.0,0.0,0.0,0.0,0.0,0.0,0.0,0.0,0.0,0.0,0.0,0.0,0.0,0.0,0.0,0.0,0.0,0.7742,0.8027,0.8527,0.8572,0.8568,0.862,0.8709,0.8864,0.9063,0.9163,0.9349,0.9814,0.9979,1.0184,1.0411,0.0,0.0,0.0,0.0,1.0733,1.0753,1.0753,1.0745,1.0724,1.0724,1.0712,1.0692,1.0692,1.0692,1.0692,1.0692,1.0692,1.0692,1.0692,1.0692,1.066,1.0375,1.0233,1.0196,0.9977,0.9916,0.9892,0.0,0.4802,0.4802,0.4802,0.4802,0.4802,0.4802,0.5475,0.6288,0.7095,0.838,0.952,1.0339,1.0204,1.0275,1.0771,0.968,0.9029,0.92,0.9146,0.9471,1.0298,1.0499,1.0921,1.1638,1.1819,1.202,1.2218,1.2271,1.2305,1.2305,1.2305,1.2305,1.2305,1.2305,1.2305,1.2305,1.2305,1.2305,1.2298,1.2238,1.2044,1.1779,1.1329,1.0915,1.0573,1.0399,1.0154,0.9857,0.9479,0.9345,0.9279,0.8898,0.0,0.0,0.0,0.0,0.0,0.0,0.0,0.0,0.0,0.0,0.0,0.0,0.0,0.0,0.0,0.0,0.0,0.0,0.0,0.0,0.7688,0.7943,0.8183,0.841,0.8439,0.8534,0.8731,0.8729,0.8842,0.9075,0.9522,0.9853,0.9941,1.0321,1.0585,1.0643,1.0676,1.0761,1.0967,1.0915,1.098,1.1118,1.1118,1.1049,1.0915,0.0,0.0,1.0692,1.0692,1.0692,1.0692,1.0692,1.0692,1.0692,1.0692,1.0692,1.0672,1.0465,1.0294,1.0208,1.0175,1.0159,1.0155,0.4802,0.4802,0.4802,0.4802,0.4802,0.4802,0.4802,0.5313,0.5987,0.6794,0.8012,0.9106,0.9905,0.9826,0.9923,1.0458,0.9513,0.8934,0.8998,0.9131,0.9604,1.0553,1.0868,1.1269,1.1893,1.2047,1.2158,1.2305,1.2305,1.2305,1.2305,1.2305,1.2305,1.2305,1.2305,1.2305,1.2305,1.2305,1.2305,1.2305,1.2305,1.2218,1.2051,1.1764,1.147,1.1209,1.0914,1.0681,1.0488,1.0047,0.99,0.9846,0.9552,0.9031,0.8454,0.0,0.0,0.0,0.0,0.0,0.0,0.0,0.0,0.0,0.0,0.0,0.0,0.0,0.0,0.6372,0.0,0.0,0.757,0.794,0.8071,0.8153,0.8372,0.8283,0.8237,0.8382,0.8675,0.9013,0.9249,0.9685,1.0081,1.0333,1.0673,1.083,1.083,1.0911,1.1001,1.1094,1.1094,1.1135,1.1224,1.1224,1.1179,1.1094,1.1094,1.1045,1.0956,1.0956,1.0956,1.0956,1.0956,1.0907,1.0826,1.0729,1.0692,1.0684,1.0599,1.0505,1.0416,1.0331,1.0298,1.0286,0.4802,0.4802,0.4802,0.4802,0.4802,0.4802,0.4802,0.5141,0.5689,0.6488,0.7565,0.8554,0.9372,0.9318,0.9431,0.9956,0.9318,0.8919,0.9016,0.9186,0.9746,1.072,1.1176,1.159,1.198,1.2184,1.2305,1.2305,1.2305,1.2305,1.2305,1.2305,1.2305,1.2305,1.2305,1.2305,1.2305,1.2305,1.2305,1.2305,1.2305,1.2305,1.2271,1.202,1.1866,1.1759,1.1249,1.0969,1.0762,1.0341,1.0167,1.0087,0.9907,0.9646,0.924,0.8467,0.7707,0.0,0.0,0.0,0.0,0.0,0.0,0.0,0.0,0.0,0.6034,0.6255,0.6583,0.7001,0.7505,0.7635,0.7823,0.8111,0.8111,0.8137,0.8287,0.8184,0.8088,0.8088,0.8704,0.9234,0.9474,0.9872,1.0317,1.068,1.0867,1.1024,1.1024,1.1131,1.124,1.1277,1.1277,1.1293,1.133,1.133,1.1313,1.1277,1.1277,1.1256,1.1224,1.1224,1.1224,1.1224,1.1224,1.1143,1.1005,1.0822,1.0745,1.0745,1.0708,1.0692,1.0676,1.0538,1.0485,1.0465,0.0,0.4802,0.4802,0.4802,0.4802,0.4802,0.4802,0.5141,0.5689,0.6488,0.7031,0.7675,0.8544,0.862,0.8701,0.895,0.9087,0.9337,0.9751,0.9692,1.014,1.1249,1.1355,1.1683,1.2238,1.2285,1.2305,1.2305,1.2305,1.2305,1.2305,1.2305,1.2305,1.2305,1.2305,1.2305,1.2305,1.2305,1.2305,1.2305,1.2305,1.2305,1.2271,1.202,1.171,1.147,1.1369,1.0843,1.0247,1.0479,1.0334,1.016,1.0419,1.0261,0.993,0.9608,0.0,0.7271,0.7652,0.6989,0.61,0.5792,0.5744,0.5938,0.0,0.0,0.673,0.7229,0.7342,0.7438,0.7809,0.799,0.8115,0.804,0.8226,0.8283,0.8088,0.8233,0.8333,0.8333,0.8958,0.9466,0.9746,1.0303,1.0613,1.0688,1.0867,1.1024,1.1024,1.1131,1.1297,1.1464,1.1468,1.1549,1.1711,1.1715,1.163,1.1468,1.1468,1.1382,1.1224,1.1224,1.1224,1.1224,1.1224,1.1212,1.1179,1.1009,1.0992,1.0923,1.0757,1.0692,1.0688,1.0672,1.0664,1.066,0.0,0.4802,0.4802,0.4802,0.4802,0.4802,0.4802,0.4939,0.526,0.5826,0.6456,0.7077,0.7675,0.7943,0.812,0.8204,0.8402,0.8754,0.9328,0.9576,1.0084,1.0882,1.1243,1.1623,1.2044,1.2218,1.2305,1.2305,1.2305,1.2305,1.2305,1.2305,1.2305,1.2305,1.2305,1.2305,1.2305,1.2305,1.2305,1.2305,1.2305,1.2204,1.2037,1.1953,1.1511,1.0922,1.0922,1.0681,0.0,0.0,0.9997,0.9886,1.0043,0.9997,0.9748,0.9128,0.8696,0.0,0.8021,0.733,0.6722,0.0,0.6933,0.7165,0.748,0.7576,0.7658,0.7967,0.8084,0.8149,0.8401,0.8485,0.8456,0.0,0.8333,0.8382,0.8237,0.8333,0.8535,0.8836,0.9193,0.953,0.9791,1.0231,1.0586,1.0684,1.0956,1.1118,1.1118,1.139,1.1581,1.1658,1.1663,1.1699,1.1776,1.1776,1.174,1.1663,1.1663,1.1622,1.1545,1.1545,1.1545,1.1537,1.1431,1.1382,1.137,1.1191,1.1118,1.1098,1.0923,1.0854,1.0842,1.0733,1.0692,1.0692,0.0,0.4802,0.4802,0.4802,0.4802,0.4802,0.4802,0.4802,0.4985,0.5495,0.6069,0.6639,0.7141,0.747,0.774,0.7965,0.803,0.837,0.9153,0.9463,0.9919,1.0559,1.0962,1.1403,1.1893,1.2078,1.2225,1.2305,1.2305,1.2305,1.2305,1.2305,1.2305,1.2305,1.2305,1.2305,1.2305,1.2305,1.2409,1.2622,1.2321,1.2195,1.2156,1.1701,1.1149,1.0593,1.0593,1.0432,1.0164,0.9706,0.9559,0.9559,0.9559,0.9619,0.9595,0.902,0.9016,0.896,0.8039,0.0,0.0,0.7475,0.7813,0.8083,0.8141,0.824,0.836,0.8462,0.8571,0.8691,0.8803,0.8825,0.8726,0.8528,0.8567,0.8582,0.8538,0.8617,0.8831,0.9141,0.9392,0.9583,0.9812,1.0192,1.0505,1.068,1.1021,1.1224,1.1224,1.1573,1.1776,1.1776,1.1776,1.1776,1.1776,1.1776,1.1776,1.1776,1.1776,1.1776,1.1776,1.1776,1.1776,1.1768,1.1634,1.1577,1.1561,1.1374,1.1297,1.1281,1.1106,1.1065,1.1064,1.0929,1.0847,1.0802,0.0,0.0,0.4802,0.4802,0.4802,0.4802,0.4802,0.4802,0.5085,0.5875,0.6002,0.6324,0.7114,0.7205,0.7558,0.8407,0.831,0.8622,0.9617,0.957,0.9841,1.0571,1.0613,1.1022,1.1886,1.1913,1.206,1.2305,1.2305,1.2305,1.2305,1.2305,1.2305,1.2305,1.2305,1.2305,1.2305,1.2305,1.2732,1.3361,1.2314,1.2332,1.2808,1.1242,1.0613,1.0593,1.0593,1.0013,0.9251,0.9231,0.9224,0.9224,0.9224,0.9452,0.0,0.9977,0.9456,0.8619,0.0,0.0,0.7445,0.7628,0.7927,0.8246,0.8533,0.8564,0.8616,0.8776,0.8814,0.8817,0.8775,0.8825,0.8775,0.8775,0.8963,0.9015,0.8798,0.9164,0.9415,0.9202,0.9434,0.9655,0.0,1.0221,1.0505,1.068,1.1021,1.1224,1.1224,1.1573,1.1776,1.1776,1.1776,1.1776,1.1776,1.1776,1.1776,1.1776,1.1776,1.1776,1.1776,1.1776,1.1776,1.1776,1.1768,1.1768,1.1752,1.1569,1.1492,1.1472,1.1285,1.1285,1.1418,1.1353,1.1236,1.1072,0.0,0.0,0.0,0.4802,0.4802,0.4802,0.4802,0.4802,0.4994,0.5534,0.606,0.0,0.0,0.0,0.0,0.0,0.8137,0.8456,0.9063,0.9356,0.9613,0.9848,1.0353,1.0734,1.1028,1.1376,1.1623,1.1688,1.1688,1.1688,1.1688,1.1688,1.1688,1.1717,1.2172,1.2381,1.2416,1.2846,1.3354,1.3766,1.286,1.2469,1.231,1.1464,1.0515,0.9686,0.0,0.9344,0.8898,0.8731,0.8664,0.8697,0.8865,0.0,0.0,0.937,0.89,0.8364,0.8457,0.0,0.808,0.8541,0.8816,0.9049,0.9238,0.9245,0.9274,0.9211,0.9199,0.9167,0.9005,0.9124,0.915,0.896,0.9199,0.9361,0.9252,0.9497,0.9697,0.9672,0.9748,0.0,0.0,0.0,0.0,1.0501,1.0854,1.1106,1.1216,1.1573,1.1776,1.1776,1.1776,1.1776,1.1776,1.1776,1.1776,1.1776,1.1776,1.1776,1.1776,1.1776,1.1776,1.1776,1.1776,1.1776,1.1772,1.1707,1.1683,1.1726,1.1715,1.1782,1.1814,1.1737,1.1823,1.1855,0.0,0.0,0.0,0.0,0.0,0.0,0.0,0.0,0.0,0.0,0.0,0.0,0.0,0.0,0.0,0.0,0.0,0.0,0.8758,0.9071,0.9409,0.9762,1.0093,1.0358,1.0564,1.0752,1.0967,1.1204,1.1021,1.1108,1.1401,1.1401,1.1363,1.1303,1.2162,1.2495,1.2429,1.2963,1.3505,1.3856,1.2631,1.2102,1.1994,1.0975,0.9977,0.0,0.8818,0.8625,0.8464,0.8283,0.8308,0.8449,0.8717,0.0,0.9093,0.9228,0.8805,0.8443,0.8982,0.8787,0.8593,0.9072,0.9319,0.9482,0.96,0.9575,0.9478,0.9347,0.9257,0.9112,0.8938,0.8948,0.8972,0.9005,0.9219,0.9462,0.9626,0.9844,1.0036,1.0006,1.0033,1.0082,0.0,0.0,0.0,1.0501,1.0858,1.1106,1.1216,1.1573,1.1776,1.1776,1.1776,1.1776,1.1776,1.1776,1.1776,1.1776,1.1776,1.1776,1.1776,1.1776,1.1776,1.1776,1.1776,1.1776,1.1837,1.1893,1.1949,1.1937,1.2175,1.2263,1.2295,1.2281,1.2325,1.2399,0.0,0.0,0.0,0.0,0.0,0.0,0.0,0.0,0.0,0.0,0.0,0.0,0.0,0.0,0.0,0.0,0.0,0.0,0.8709,0.8787,0.0,1.0171,0.99,0.9931,1.0449,1.009,1.0242,1.0878,1.0361,1.055,1.1394,1.1363,1.1245,1.1053,1.2262,1.263,1.242,1.2689,1.3258,1.372,1.1767,1.1419,1.1871,1.0009,0.9085,0.8731,0.8152,0.7939,0.7932,0.0,0.0,0.0,0.0,0.0,0.0,0.9587,0.9174,0.8791,0.916,0.9051,0.893,0.9331,0.9498,0.9575,0.9616,0.9474,0.9335,0.9096,0.8909,0.8723,0.0,0.0,0.8395,0.8952,0.9155,0.9414,0.9876,1.0213,1.0379,0.0,0.0,0.0,0.0,0.0,0.0,1.0692,0.0,1.122,1.1236,1.1581,1.1776,1.1776,1.1776,1.1776,1.1776,1.1776,1.1776,1.1776,1.1776,1.1776,1.1776,1.1776,1.1776,1.1776,1.1776,1.1776,1.1837,1.2062,1.2174,1.2234,1.2599,1.2793,1.2931,1.2917,1.2906,1.2767,0.0,0.0,0.0,0.0,0.0,0.0,0.0,0.0,0.0,0.0,0.0,0.0,0.0,0.0,0.0,0.0,0.0,0.0,0.0,0.8519,0.8906,0.9174,0.9525,0.9753,0.9913,0.9996,1.0284,1.0748,1.0206,1.0429,1.1324,1.0909,1.0894,1.1248,1.208,1.239,1.2355,1.2938,1.3451,1.3783,1.2674,1.2123,1.1849,1.0849,0.9892,0.9066,0.0,0.0,0.0,0.0,0.0,0.0,0.0,0.0,0.9606,0.0,0.0,0.8851,0.893,0.9084,0.9271,0.9502,0.9596,0.9592,0.9453,0.9291,0.9035,0.8589,0.8349,0.8085,0.0,0.0,0.0,0.8503,0.9308,0.0,1.0083,1.04,0.0,1.0387,0.0,1.0558,1.0558,1.0739,0.0,0.0,1.1053,1.1151,1.1415,1.165,1.1776,1.1776,1.1776,1.1776,1.1776,1.1776,1.1776,1.1776,1.1776,1.1776,1.1776,1.1776,1.1776,1.1776,1.1776,1.1776,1.1837,1.2062,1.2174,1.2238,1.284,1.3112,1.3113,1.3266,1.3262,1.3178,0.0,0.0,0.0,0.0,0.0,0.0,0.0,0.0,0.0,0.0,0.0,0.0,0.0,0.0,0.0,0.0,0.0,0.0,0.0,0.845,0.8909,0.9427,0.9622,0.9674,0.9646,0.9794,0.9987,1.0205,0.0,0.0,1.0721,1.0428,1.0384,1.0653,1.154,1.1887,1.1814,1.232,1.2669,0.0,0.0,1.1523,1.1183,1.0537,0.9938,0.0,0.0,0.0,0.0,0.0,0.0,1.0485,1.0386,1.0143,0.9801,0.9608,0.0,0.8901,0.9021,0.9259,0.9498,0.9604,0.9567,0.9441,0.9177,0.8926,0.8568,0.7951,0.7675,0.0,0.6956,0.0,0.0,0.0,0.0,0.0,1.0167,1.0404,1.0603,0.0,1.0757,0.0,1.0915,1.1021,1.1155,0.0,1.1256,1.1289,1.1488,1.1675,1.1776,1.1776,1.1776,1.1776,1.1776,1.1776,1.1776,1.1776,1.1776,1.1776,1.1776,1.1776,1.1776,1.1776,0.0,1.1893,1.2005,1.2303,1.2539,1.2719,1.3204,1.3449,1.3435,1.3501,1.3466,1.3358,0.0,0.0,0.0,0.0,0.0,0.0,0.0,0.0,0.0,0.0,0.0,0.0,0.0,0.0,0.0,0.0,0.0,0.0,0.0,0.0,0.0,1.0109,0.985,0.9668,0.9622,0.9622,0.9648,0.97,0.0,0.0,0.0,0.0,0.0,0.0,1.0966,1.1319,1.112,1.1407,1.1552,1.15,1.0845,1.0552,1.0447,0.0,0.0,0.0,0.0,0.0,0.0,0.0,1.0771,1.1028,1.0584,1.0496,1.0413,0.984,0.9372,0.9146,0.9347,0.9506,0.9579,0.9579,0.949,0.9302,0.8873,0.8491,0.8016,0.7301,0.0,0.678,0.6412,0.6795,0.7353,0.7894,0.0,0.9372,1.0114,1.0318,1.0566,1.0928,1.1045,1.107,1.124,1.1281,1.1362,1.1524,1.1537,1.1537,1.1537,1.1691,1.1776,1.1776,1.1776,1.1776,1.1776,1.1776,1.1776,1.1776,1.1776,1.1776,1.1776,1.1776,1.1776,1.1776,1.1837,1.201,1.2234,1.2599,1.296,1.3204,1.3569,1.3688,1.3688,1.3688,1.358,1.3424,0.0,0.0,0.0,0.0,0.0,0.0,0.0,0.0,0.0,0.0,0.8502,0.8142,0.0,0.0,0.0,0.0,0.0,0.0,0.0,0.0,0.0,0.929,0.9546,0.969,0.9674,0.0,0.0,0.0,0.0,0.0,0.0,0.0,0.0,0.0,0.0,0.0,1.1031,1.1193,1.1277,1.1296,1.149,1.1361,1.106,0.0,0.0,0.0,0.0,0.0,0.0,0.0,1.1542,1.181,1.2197,1.2284,1.2172,1.162,1.1037,1.0394,0.9763,0.9604,0.9579,0.9579,0.949,0.9273,0.8767,0.8257,0.0,0.0,0.6555,0.6257,0.6018,0.6664,0.735,0.778,0.0,0.0,0.0,0.0,1.0566,0.0,0.0,0.0,0.0,0.0,0.0,0.0,1.1727,1.1727,1.1727,1.176,1.1776,1.1776,1.1776,1.1776,1.1776,1.1776,1.1776,1.1776,1.1776,1.1776,1.1776,1.1776,1.1776,1.1837,1.2005,0.0,1.2234,1.284,1.3144,1.3204,1.3569,1.3688,1.3688,1.3688,1.3665,1.3613,0.0,0.0,0.0,0.0,0.0,0.0,0.0,0.8874,0.9682,1.0811,1.0225,0.9633,0.9404,0.9188,0.8947,0.0,0.0,0.0,0.0,0.0,0.0,0.0,0.0,0.9713,0.0,0.0,0.0,0.0,0.0,0.0,0.0,0.0,0.0,0.0,0.0,0.0,0.0,0.0,0.0,0.0,0.0,0.0,0.0,0.0,0.0,0.0,0.0,0.0,0.0,0.0,1.1432,1.1625,1.2113,1.2412,1.2494,1.2068,1.1398,1.0719,1.0493,1.0015,0.9579,0.9579,0.9352,0.8913,0.8331,0.0,0.0,0.0,0.599,0.5815,0.5615,0.0,0.0,0.0,0.0,0.0,0.0,0.0,0.0,0.0,0.0,0.0,0.0,0.0,0.0,0.0,1.1776,1.1776,1.1776,1.1776,1.1776,1.1776,1.1776,1.1776,1.1776,1.1776,1.1776,1.1776,1.1776,1.1776,1.1776,1.1776,1.1776,1.1837,1.2062,1.2298,1.2479,1.3024,1.3324,1.3504,1.3629,1.3688,1.3688,1.3688,1.3688,1.3674,0.0,0.0,0.0,0.0,0.0,0.0,0.0,0.9812,1.077,1.2071,1.2041,1.1583,1.0788,1.051,1.0168,0.0,0.0,0.0,0.0,0.0,0.0,0.0,0.0,0.0,0.0,0.0,0.0,0.0,0.0,0.0,0.0,0.0,0.0,0.0,0.0,0.0,0.0,0.0,0.0,0.0,0.0,0.0,0.0,0.0,0.0,0.0,0.0,0.0,0.0,0.0,1.1241,1.123,1.1583,1.2166,1.2644,1.2215,1.1559,1.1039,1.1061,1.0369,0.9579,0.9579,0.9218,0.8633,0.7963,0.7347,0.0,0.0,0.5551,0.5498,0.5369,0.0,0.0,0.0,0.0,0.0,0.0,0.0,0.0,0.0,0.0,0.0,0.0,0.0,0.0,0.0,0.0,1.1776,1.1776,1.1776,1.1776,1.1776,1.1776,1.1776,1.1776,1.2074,1.2191,1.2191,1.2492,1.2608,1.2608,1.2311,1.2251,1.2311,1.2303,1.2479,1.284,1.3144,1.3449,1.3688,1.3688,1.3688,1.3748,1.3983,1.4102,1.4162,0.0,0.0,0.0,0.0,0.0,0.0,0.0,1.0043,1.1337,1.2259,1.3031,1.3285,1.2689,1.1831,1.0989,0.0,0.0,0.0,0.0,0.0,0.0,0.0,0.0,0.0,0.0,0.0,0.0,0.0,0.0,0.0,0.0,0.0,0.0,0.0,0.0,0.0,0.0,0.0,0.0,0.0,0.0,0.0,0.0,0.0,0.0,0.0,0.0,0.0,0.0,0.0,0.0,1.1137,1.1365,1.2382,1.3352,1.2509,0.0,0.0,1.0977,1.0171,0.9579,0.9579,0.9218,0.8633,0.7963,0.0,0.0,0.5762,0.5458,0.5365,0.5535,0.5778,0.0,0.0,0.0,0.0,0.0,0.0,0.0,0.0,0.0,0.0,0.0,0.0,0.0,0.0,1.1776,1.1776,1.1776,1.1776,1.1776,1.1776,1.1776,1.1776,1.1776,1.296,1.355,1.355,1.4684,1.5278,1.5219,1.4028,1.367,1.3849,1.3015,1.284,0.0,1.3509,1.3688,1.3688,1.3688,1.3688,1.3868,1.4986,1.5456,1.5569,0.0,0.0,0.0,0.0,0.0,0.0,0.9422,1.0217,1.1413,1.3661,1.3737,1.3733,1.4119,1.3551,1.2611,1.1329,0.0,0.0,0.0,0.0,0.0,0.0,0.0,0.0,0.0,0.0,0.0,0.0,0.0,0.0,0.0,0.0,0.0,0.0,0.0,0.0,0.0,0.0,0.0,0.0,0.0,0.0,0.0,0.0,0.0,0.0,0.0,0.0,0.0,0.0,0.0,0.0,1.0581,1.1265,0.0,0.0,1.2324,1.1653,1.1651,1.0637,0.9579,0.9579,0.9145,0.8566,0.8193,0.0,0.6855,0.6107,0.5885,0.5749,0.5469,0.5575,0.5884,0.0,0.6682,0.7212,0.0,0.0,0.0,0.0,0.0,0.0,0.0,0.0,0.0,0.0,1.1776,1.1776,1.1776,1.2548,1.296,1.296,1.3674,1.4093,1.4093,1.4565,1.4857,1.4857,1.456,1.456,1.4679,1.337,1.2951,1.3255,1.308,1.3084,0.0,1.3569,1.4162,1.4867,1.4867,1.5278,1.5978,1.6509,1.6685,1.6744,0.0,0.0,0.0,0.0,0.0,0.8099,0.9605,1.0365,1.164,1.4013,1.3992,1.4024,1.471,1.4353,1.3593,1.242,1.1686,0.0,0.0,0.0,0.0,0.0,0.0,0.0,0.0,0.0,0.0,0.0,0.0,0.0,0.0,0.0,0.0,0.0,0.0,0.0,0.0,0.0,0.0,0.0,0.0,0.0,0.0,0.0,0.0,0.0,0.0,0.0,0.0,0.0,0.0,0.0,0.0,0.0,0.0,0.0,1.228,1.1545,1.2248,1.14,1.0281,1.0281,0.9834,0.9255,0.0,0.0,0.7583,0.6764,0.6556,0.6399,0.5973,0.5836,0.5909,0.6279,0.6356,0.6718,0.7784,0.0,0.0,0.0,0.0,0.0,0.0,0.0,0.0,0.0,1.1776,1.1953,1.2367,1.355,1.4083,1.3725,1.4917,1.5575,1.5575,1.5983,1.6161,1.6161,1.5736,1.5618,1.5736,1.4545,1.4192,1.4555,1.4381,1.4381,0.0,1.4684,1.5337,1.6155,1.6155,1.6626,1.7443,1.78,1.7969,1.8033,0.0,0.0,0.0,0.0,0.0,0.0,0.861,1.0512,1.209,1.2643,1.3638,1.4309,1.4321,1.3819,1.3505,1.3474,1.2271,0.0,0.0,0.0,0.0,0.0,0.0,0.0,0.0,0.0,1.0878,1.0908,1.1359,0.0,0.0,0.0,0.0,0.0,0.0,0.0,0.0,0.0,0.0,0.0,0.0,0.0,0.0,0.0,0.0,0.0,0.0,0.0,0.0,0.0,0.0,0.0,0.0,0.0,0.0,0.0,1.2074,1.2017,1.2632,1.2336,1.19,1.19,1.1532,1.0906,0.0,0.9326,0.8703,0.7698,0.7391,0.7289,0.7289,0.6696,0.6318,0.6643,0.6707,0.6963,0.7698,0.0,0.0,0.0,0.0,0.0,0.0,0.0,0.0,0.0,1.1776,0.0,1.3605,1.4917,1.4976,1.3725,1.4917,1.5575,1.5575,1.6868,1.7455,1.7513,1.8984,1.9758,1.97,1.8745,1.8512,1.8758,1.7501,1.7085,0.0,1.7384,1.7384,1.7384,1.7384,1.7384,1.756,1.8797,1.9267,1.9441,0.0,0.0,0.0,0.0,0.0,0.0,0.0,0.9822,1.0846,1.2492,1.2685,1.3083,1.4168,1.3819,1.3505,1.3505,1.2542,0.0,0.0,0.0,0.0,0.0,0.0,0.0,0.0,0.0,1.1055,1.1379,1.1797,1.2168,1.2475,0.0,0.0,0.0,0.0,0.0,0.0,0.0,0.0,0.0,0.0,0.0,0.0,0.0,0.0,0.0,0.0,0.0,0.0,0.0,0.0,0.0,0.0,0.0,0.0,1.0828,0.0,0.0,1.1301,1.1005,1.0614,1.0374,1.0233,0.9994,0.957,0.9388,0.9059,0.8281,0.7978,0.7599,0.6821,0.6421,0.6317,0.6634,0.6705,0.0,0.0,0.0,0.0,0.0,0.0,0.0,0.0,0.0,0.0,1.1776,1.2608,1.325,1.3665,1.5741,1.6685,1.6326,1.7519,1.8181,1.8181,1.8758,1.9049,1.9049,1.8926,1.8984,1.9171,1.7975,1.7618,1.7864,1.7443,1.7325,1.7384,1.7384,1.7917,1.868,1.868,1.9203,2.0033,2.0443,2.0622,2.068,0.0,0.0,0.0,0.0,0.0,0.0,0.0,0.9546,1.0279,1.162,1.168,1.2126,1.3541,1.3087,1.2828,1.325,1.242,0.0,0.0,0.0,0.0,0.0,0.0,0.0,1.0518,1.0958,1.1477,1.2083,1.25,1.2827,1.3105,1.2842,1.2515,0.0,0.0,0.0,0.0,0.0,0.0,0.0,0.0,0.0,0.0,0.0,0.0,0.0,0.0,0.0,0.0,0.0,0.0,0.0,0.0,0.0,0.0,0.0,1.0305,0.0,0.0,1.0929,1.0713,1.0518,1.0414,1.0309,0.997,0.9866,0.9655,0.8998,0.8725,0.8316,0.7406,0.6929,0.6723,0.6875,0.6755,0.0,0.0,0.0,0.0,0.0,0.0,0.0,0.0,0.0,0.0,1.2487,1.2779,1.361,1.509,1.6155,1.7279,1.8338,1.9113,1.9533,1.9533,1.9815,1.9982,1.9989,1.9499,1.9383,1.9564,1.8913,1.8674,1.8855,1.8855,1.8855,0.0,1.8855,1.9325,2.0033,2.0033,2.05,2.1211,2.1211,2.1211,2.1211,0.0,0.0,0.0,0.0,0.0,0.0,0.0,0.9569,1.0226,1.0262,1.0696,1.1403,1.2476,1.1797,1.1675,1.2705,0.0,0.0,0.0,0.0,0.0,0.0,0.0,0.0,1.0859,1.1349,1.2008,1.2817,1.3271,1.3506,1.3506,1.3535,1.309,1.2301,1.2301,0.0,0.0,0.0,0.0,0.0,0.0,0.0,0.0,0.0,0.0,0.0,0.0,0.0,0.0,0.0,0.0,0.0,0.0,0.0,0.0,0.0,0.0,0.0,0.0,0.0,0.0,0.0,1.165,1.1411,1.076,1.0588,0.0,0.9746,0.9484,0.9251,0.8785,0.8059,0.75,0.747,0.7053,0.0,0.0,0.0,0.0,0.0,0.0,0.0,0.0,0.0,1.2311,1.349,1.2543,1.3495,1.7097,1.6338,1.6985,1.9635,1.9809,1.9873,1.9815,2.0155,2.0328,2.0328,2.0608,2.0716,2.078,2.1089,2.1211,0.0,2.1211,2.1211,2.1211,2.1211,2.1211,2.1211,2.1211,2.1211,2.1211,2.1211,2.1211,2.1211,0.0,0.0,0.0,0.0,0.0,0.0,0.0,0.0,0.0,0.0,1.0038,1.0491,1.1508,1.1205,1.1164,0.0,0.0,0.0,0.0,0.0,0.0,0.0,0.0,0.0,1.0449,1.1193,1.1704,1.192,1.2969,1.3506,1.3516,1.3812,1.3685,1.3178,1.3178,1.2969,0.0,0.0,0.0,0.0,0.0,0.0,0.0,0.0,0.0,0.0,0.0,1.2526,0.0,0.0,0.0,0.0,0.0,0.0,0.0,0.0,0.9665,0.977,1.0042,0.0,1.0473,1.0199,1.0313,1.0363,0.0,1.0035,1.0104,0.9694,0.0,0.0,0.9644,0.8596,0.8242,0.9839,0.0,0.0,0.0,0.0,0.0,0.0,0.0,0.0,0.0,0.0,1.1893,1.2191,1.29,1.3729,1.4852,1.6438,1.7793,1.8687,1.9853,2.0378,2.0155,2.0436,2.0608,2.0608,2.091,2.1089,2.1089,2.1153,2.1211,2.1211,2.1211,2.1211,2.1211,2.1211,2.1211,2.1211,2.1211,2.1211,2.1211,2.1211,2.1211,2.1211,0.0,0.0,0.0,0.0,0.0,0.0,0.0,0.0,0.0,0.0,0.0,0.0,0.0,0.0,0.0,0.0,0.0,0.0,0.0,0.0,0.0,0.0,0.0,1.0488,1.09,1.1361,1.19,1.2475,1.3164,1.3578,1.3773,1.3802,1.3695,1.3496,1.3311,1.3096,0.0,0.0,0.0,0.0,0.0,0.0,0.0,0.0,0.0,0.0,1.2213,1.2359,0.0,1.2218,1.1694,1.1108,0.0,0.0,0.0,0.0,0.9588,0.9588,0.9588,0.9965,1.0287,1.0104,1.0192,1.028,1.0104,0.0,0.0,0.0,0.0,0.0,0.0,0.0,0.0,0.0,0.9585,0.0,0.0,0.0,0.0,0.0,0.0,0.0,0.0,0.0,1.2784,1.3084,1.3555,1.4495,1.5972,1.6856,1.791,1.9435,2.0249,2.0601,2.0493,2.0788,2.0902,2.0902,2.1089,2.1211,2.1211,2.1211,2.1211,2.1211,2.1211,2.1211,2.1211,2.1211,2.1211,2.1211,2.1211,2.1211,2.1211,2.1211,2.1211,2.1211,0.0,0.0,0.0,0.0,0.0,0.0,0.0,0.0,0.0,0.0,0.0,0.0,0.0,0.0,0.0,0.0,0.0,0.0,0.0,0.0,0.0,0.0,0.0,1.0674,1.1489,1.1567,1.2162,1.3311,1.3574,1.3848,1.4104,1.3948,1.3789,1.3558,1.3164,1.2964,0.0,0.0,0.0,0.0,0.0,0.0,0.0,0.0,0.0,0.0,0.0,0.0,0.0,1.2044,1.169,1.1234,1.06,0.0,0.0,0.0,0.0,0.0,0.9738,1.0236,1.0733,1.055,1.0587,1.0646,1.0602,0.0,0.0,0.0,0.0,0.0,0.0,0.0,0.0,0.0,0.0,0.0,0.0,0.0,0.0,0.0,0.0,0.0,0.0,1.3131,1.3844,1.4565,1.4321,1.5262,1.7741,1.7208,1.7969,2.0429,2.0666,2.078,2.078,2.1089,2.1211,2.1211,2.1211,2.1211,2.1211,2.1211,2.1211,2.1211,0.0,0.0,2.1211,2.1211,2.1211,2.1211,2.1211,2.1211,2.1211,2.1211,2.1211,2.1211,0.0,0.0,0.0,0.0,0.0,0.0,0.0,0.0,0.0,0.0,0.0,0.0,0.0,0.0,0.0,0.0,0.0,0.0,0.0,0.0,0.0,1.0303,1.0303,1.0508,1.0996,1.1389,1.1868,1.2408,1.3877,1.4434,1.4133,1.5186,1.5088,1.3997,1.3603,1.3213,1.2905,0.0,0.0,0.0,0.0,0.0,0.0,0.0,0.0,0.0,0.0,0.0,0.0,1.171,1.1719,1.1769,1.0727,0.0,0.0,0.0,0.0,0.0,1.0287,1.0946,1.1239,1.0382,1.0594,1.096,1.0653,0.0,0.0,0.0,0.0,0.0,0.0,0.0,0.0,0.0,0.0,0.0,0.0,0.0,0.0,0.0,0.0,0.0,1.3691,1.3246,1.337,1.449,1.4545,1.4847,1.5558,1.743,1.8784,1.9499,2.0558,2.1146,2.1146,2.1153,2.1211,2.1211,2.1211,2.1211,2.1211,2.1211,2.1211,2.1211,0.0,2.1211,2.1211,2.1211,2.1211,2.1211,2.1211,2.1211,2.1211,2.1211,2.1211,2.1268,0.0,0.0,0.0,0.0,0.0,0.0,0.0,0.0,0.0,0.0,0.0,0.0,0.0,0.0,0.0,0.0,0.0,0.0,0.0,0.0,1.04,1.0615,1.0615,1.082,1.1271,1.1946,1.2514,1.2895,1.418,1.4743,1.4611,1.5077,1.4681,1.3549,1.3407,1.317,1.2905,1.2978,0.0,0.0,0.0,0.0,0.0,0.0,0.0,0.0,0.0,0.0,0.0,0.0,1.1713,1.1893,1.0753,0.0,0.0,0.0,0.0,0.0,0.998,1.0536,1.0997,1.0697,1.1377,1.208,1.1933,0.0,0.0,0.0,0.0,0.0,0.0,0.0,0.0,0.0,0.0,0.0,0.0,0.0,0.0,0.0,0.0,1.4116,1.5018,1.4765,1.4613,1.4843,1.5488,1.6031,1.6326,1.8079,1.9435,2.0321,2.0917,2.1211,2.1211,2.1211,2.1211,2.1211,2.1211,2.1211,2.1211,2.1211,2.1211,2.1211,0.0,2.1211,2.1211,2.1211,2.1211,2.1211,2.1211,2.1211,2.1211,2.1211,2.1211,2.1268,0.0,0.0,0.0,0.0,0.0,0.0,0.0,0.0,0.0,0.0,0.0,0.0,0.0,0.0,0.0,0.0,0.0,0.0,0.0,0.0,1.0508,1.0868,1.1016,1.134,1.1878,1.2563,1.3208,1.3809,1.4615,1.5082,1.5195,1.4901,1.4228,1.3283,1.3316,1.3193,1.2954,1.3061,1.3036,0.0,0.0,0.0,0.0,0.0,0.0,0.0,0.0,0.0,0.0,0.0,0.0,0.0,0.0,0.0,0.0,0.9795,0.9588,0.9643,0.9797,1.0207,1.0711,1.1114,0.0,1.2745,1.3053,1.287,0.0,0.0,0.0,0.0,0.0,0.0,0.0,0.0,0.0,0.0,0.0,0.0,1.3168,1.3171,1.4487,1.569,1.6386,1.5983,1.576,1.5874,1.6518,1.7152,1.7609,1.8825,1.9932,2.0927,2.1057,2.1094,2.1094,2.1174,2.1211,2.1211,2.1211,2.1211,2.1211,2.1211,2.1211,2.1211,2.1211,2.1211,2.1211,2.1211,2.1211,2.1211,2.1211,2.1211,2.1211,2.1211,2.1211,2.1268,0.0,0.0,0.0,0.0,0.0,0.0,0.0,0.0,0.0,0.0,0.0,0.0,0.0,0.0,0.0,0.0,0.0,0.0,0.0,0.0,1.0538,1.0889,1.1382,1.2001,1.2788,1.2876,1.3502,1.4725,1.5338,1.569,1.5825,1.5373,1.47,1.3831,1.372,1.3452,1.3085,1.3109,1.3085,1.3085,0.0,0.0,0.0,0.0,0.0,0.0,0.0,0.0,0.0,0.0,0.0,0.0,0.0,0.0,1.0947,0.9899,0.9588,0.9746,1.0353,1.055,1.077,1.1401,1.1628,0.0,1.3184,1.3206,0.0,1.4181,0.0,0.0,0.0,0.0,0.0,0.0,0.0,0.0,0.0,0.0,1.3622,1.3467,1.4762,1.624,1.7616,1.5997,1.5795,1.7978,1.726,1.721,1.8282,1.9464,2.0194,2.0249,2.0548,2.0757,2.0757,2.1057,2.1211,2.1211,2.1211,2.1211,2.1211,2.1211,2.1211,2.1211,2.1211,2.1211,2.1211,2.1211,2.1211,2.1211,2.1211,2.1211,2.1211,2.1211,2.1211,2.1268,0.0,0.0,0.0,0.0,0.0,0.0,0.0,0.0,0.0,0.0,0.0,0.0,0.0,0.0,0.0,0.0,0.0,0.0,0.0,1.0351,1.0656,1.1363,1.1549,1.2201,1.3377,1.3663,1.4202,1.4925,1.5289,1.5509,1.5573,1.4854,1.4124,1.3455,1.3514,1.336,1.3099,1.3152,1.3166,1.3166,1.3276,0.0,0.0,0.0,0.0,0.0,0.0,0.0,0.0,0.0,1.1621,1.1724,1.1196,1.0939,1.0668,0.9847,0.9588,0.9665,0.9914,1.0426,1.1026,1.1481,1.2046,0.0,0.0,1.4165,1.4728,1.5538,1.5692,0.0,0.0,0.0,0.0,0.0,0.0,0.0,0.0,1.5476,1.6004,1.5767,1.7024,1.8155,1.8698,1.7514,1.7125,1.8006,1.789,1.7939,1.8395,1.9566,2.0183,2.0183,2.03,2.0365,2.0365,2.0489,2.0603,2.0555,2.1013,2.1211,2.1211,2.1211,2.1211,2.1211,2.1211,2.1211,2.1211,2.1211,2.1211,2.1211,2.1211,2.1211,2.1211,2.1211,2.1211,2.1268,0.0,0.0,0.0,0.0,0.0,0.0,0.0,0.0,0.0,0.0,0.0,0.0,0.0,0.0,0.0,0.0,0.0,0.0,1.037,1.0351,1.0666,1.1402,1.1603,1.2269,1.3491,1.4041,1.462,1.5282,1.5469,1.5348,1.4964,1.4379,1.3905,1.3541,1.3409,1.3367,1.341,1.3312,1.3266,1.3266,1.3362,1.3236,0.0,0.0,0.0,0.0,0.0,0.0,0.0,0.0,1.1802,1.1686,1.167,1.1384,1.0947,1.0105,0.9922,0.9971,0.9794,1.0331,1.1056,1.1489,0.0,0.0,1.4092,1.4874,1.5622,1.6499,1.6639,0.0,0.0,0.0,0.0,0.0,0.0,0.0,0.0,1.6982,1.7523,1.7305,1.8475,1.9279,1.9279,1.84,1.7923,1.8297,1.8225,1.8285,1.8666,1.9492,1.993,1.993,2.0033,2.0084,2.0084,2.0186,2.0183,2.0183,2.0691,2.0955,2.1057,2.1057,2.1057,2.1057,2.1057,2.0998,2.0903,2.0903,2.0962,2.1064,2.1167,2.1211,2.1211,2.1211,2.1211,2.1268,0.0,0.0,0.0,0.0,0.0,0.0,0.0,0.0,0.0,0.0,0.0,0.0,0.0,0.0,0.0,0.0,0.0,0.0,1.0303,1.037,1.0558,1.0889,1.1563,1.2288,1.3089,1.3755,1.4688,1.5875,1.6017,1.541,1.4093,1.4093,1.4168,1.4258,1.3516,1.3543,1.4063,1.3603,1.3396,1.3396,1.3396,1.3396,0.0,0.0,0.0,0.0,0.0,0.0,0.0,0.0,1.2008,1.191,1.2129,1.2206,1.1959,1.0753,1.0632,1.0786,1.026,1.0346,1.0755,0.0,0.0,0.0,1.4623,1.5163,1.5754,1.7023,0.0,1.6998,1.7267,0.0,0.0,1.7991,1.6543,1.573,1.7397,1.7635,1.7635,1.7635,1.8586,1.9279,1.9279,1.8272,1.8055,1.922,1.8272,1.8108,1.922,1.9279,1.9279,1.9279,1.9639,1.9815,1.9815,2.0069,2.0176,2.0176,2.0176,2.0343,2.072,2.072,2.072,2.072,2.072,2.0537,2.0183,2.0183,2.0428,2.075,2.1079,2.1203,2.1203,2.1203,2.1203,2.1261,0.0,0.0,0.0,0.0,0.0,0.0,0.0,0.0,0.0,0.0,0.0,0.0,0.0,0.0,0.0,0.0,0.0,0.0,1.037,1.0332,1.0705,1.1563,1.1754,1.2288,1.329,1.3918,1.4589,1.5276,1.5121,1.4718,1.4093,1.3993,1.3796,1.3527,1.3625,1.3664,1.3589,1.3308,1.3272,1.3396,1.3396,1.3396,0.0,0.0,0.0,0.0,0.0,0.0,0.0,0.0,0.0,0.0,1.1834,1.1901,1.156,1.0762,1.0789,1.0909,1.026,1.0836,0.0,0.0,0.0,0.0,0.0,1.6023,0.0,0.0,1.7252,1.7216,1.7311,0.0,0.0,1.8169,1.7981,1.7967,1.8686,1.8803,1.8803,1.8803,1.9116,1.9279,1.9279,1.9011,1.8959,1.9272,1.9011,1.8959,1.9279,1.9279,1.9279,1.9279,1.9419,1.9478,1.9478,1.9513,1.9557,1.9557,1.9557,1.985,2.0329,2.0329,2.0329,2.0329,2.0329,2.027,2.0183,2.0183,2.0241,2.0336,2.0431,2.0523,2.0523,2.0523,2.0523,2.0523,0.0,0.0,0.0,0.0,0.0,0.0,0.0,0.0,0.0,0.0,0.0,0.0,0.0,0.0,0.0,0.0,0.0,0.0,0.0,1.0351,1.0696,1.1472,1.1724,1.2323,1.3375,1.3943,1.4295,1.4449,1.442,1.4165,1.3754,1.3851,1.3882,1.3861,1.4135,1.4129,1.3866,1.3615,1.3458,1.3396,1.3338,1.3338,1.3365,0.0,0.0,0.0,0.0,0.0,0.0,0.0,0.0,0.0,1.2145,0.0,1.1717,1.1049,1.1009,1.115,1.0781,0.0,0.0,0.0,0.0,0.0,0.0,0.0,0.0,0.0,0.0,1.7323,1.7454,1.7684,0.0,1.8423,1.8657,1.8906,1.9228,1.9279,1.9279,1.9279,1.9279,1.9279,1.9279,1.9279,1.9279,1.9279,1.9279,1.9279,1.9279,1.9279,1.9279,1.9279,1.9279,1.9279,1.9279,1.9279,1.9279,1.9279,1.9279,1.9477,1.9857,1.9989,2.0047,2.004,1.9916,1.9857,1.9864,1.9996,2.0047,2.0062,2.0132,2.0183,2.0183,2.0183,2.0183,2.0237,0.0,0.0,0.0,0.0,0.0,0.0,0.0,0.0,0.0,0.0,0.9348,0.0,0.0,0.0,0.0,0.0,0.0,0.0,0.0,0.0,1.0577,1.0989,1.1674,1.2461,1.3375,1.3828,1.3877,1.3563,1.3904,1.3784,1.3228,1.3736,1.4246,1.4742,1.473,1.4641,1.4518,1.4124,1.3723,1.3372,1.3218,1.3242,1.3362,1.3178,0.0,0.0,0.0,0.0,0.0,0.0,0.0,0.0,1.2814,1.2625,1.2269,1.1507,1.1369,1.1477,1.1646,0.0,0.0,0.0,0.0,0.0,0.0,0.0,0.0,0.0,0.0,0.0,1.7721,1.7816,1.8057,1.865,1.8796,1.8935,1.9235,1.9279,1.9279,1.9279,1.9279,1.9279,1.9279,1.9279,1.9279,1.9279,1.9279,1.9279,1.9279,1.9279,1.9279,1.9279,1.9279,1.9279,1.9279,1.9279,1.9279,1.9279,1.9324,1.9324,1.9286,1.9639,1.9771,1.9757,1.9403,1.9279,1.9301,1.9647,1.9771,1.9801,2.004,2.0095,2.0095,2.015,2.015,2.015,0.0,0.0,0.0,0.0,0.0,0.0,0.0,0.0,0.0,0.0,0.0,0.0,0.0,0.0,0.0,0.0,0.0,0.0,0.0,0.0,1.0745,1.1718,1.2615,1.3168,1.3409,1.3487,1.3463,1.329,1.3745,1.3735,1.3382,1.4221,1.4491,1.4231,1.4097,1.4083,1.4129,1.3064,1.2817,1.3148,1.2852,1.2939,1.3178,1.2615,1.2622,0.0,0.0,0.0,0.0,0.0,0.0,0.0,1.2689,1.2701,1.2492,1.2104,1.1885,1.1866,0.0,1.254,0.0,0.0,0.0,0.0,0.0,0.0,0.0,0.0,0.0,0.0,0.0,1.7852,1.8247,1.8379,1.884,1.9199,1.9264,1.9279,1.9279,1.9279,1.9279,1.9279,1.9279,1.9279,1.9279,1.9279,1.9279,1.9279,1.9279,1.9279,1.9279,1.9279,1.9279,1.9279,1.9279,1.9279,1.9279,1.9279,1.9524,1.948,1.9279,1.9345,1.9434,1.9374,1.9308,1.9279,1.9331,1.9404,1.9434,1.9389,1.9455,1.9484,1.9536,1.9739,1.9687,1.9536,0.0,0.0,0.0,0.0,0.0,0.0,0.0,0.0,0.0,0.0,0.0,0.0,0.0,0.0,0.0,0.0,0.0,0.0,0.0,1.0332,1.0805,1.1804,1.2778,1.329,1.329,1.3372,1.3396,1.3386,1.3571,1.3683,1.3756,1.4476,1.474,1.4635,1.4687,1.452,1.4132,1.3355,1.2929,1.2779,1.2813,1.2725,1.2514,1.2437,1.2411,1.2453,1.224,0.0,0.0,0.0,0.0,0.0,0.0,0.0,1.2262,1.2213,1.191,1.1725,0.0,0.0,0.0,0.0,0.0,0.0,0.0,0.0,0.0,0.0,0.0,0.0,0.0,0.0,1.8116,1.8277,1.8584,1.8869,1.9023,1.9045,1.9103,1.9257,1.9279,1.9279,1.9279,1.9279,1.9279,1.9279,1.9279,1.9279,1.9279,1.9279,1.9279,1.9279,1.9279,1.9279,1.9279,1.9279,1.9376,1.948,1.9628,1.968,1.968,1.9428,1.9279,1.9279,1.9279,1.9376,1.948,1.948,1.9583,1.968,1.968,1.9576,1.9532,1.9776,1.9732,1.9532,0.0,0.0,0.0,0.0,0.0,0.0,0.0,0.0,0.0,0.0,0.0,0.0,0.0,0.0,0.0,0.0,0.0,0.0,0.0,1.0508,1.0963,1.1683,1.2662,1.3164,1.3083,1.3226,1.3355,1.3449,1.3344,1.3695,1.4425,1.4675,1.4968,1.5295,1.5352,1.4935,1.4172,1.3649,1.2963,1.2237,1.2474,1.22,1.1717,1.1992,1.1979,1.1778,1.1852,1.2096,1.243,1.2705,0.0,0.0,0.0,0.0,1.1968,1.2186,1.1764,1.1447,0.0,0.0,0.0,0.0,0.0,0.0,0.0,0.0,0.0,0.0,0.0,0.0,0.0,0.0,0.0,1.8174,1.8262,1.8394,1.8664,1.8701,1.8803,1.9074,1.9111,1.9111,1.9111,1.9162,1.9169,1.9111,1.9162,1.9169,1.9111,1.9111,1.9133,1.9191,1.9191,1.922,1.9279,1.9331,1.948,1.968,1.9732,1.9931,2.0138,1.968,1.9428,1.9428,1.9376,1.9532,1.9783,1.9783,1.9879,2.0078,2.0078,1.9983,1.9776,2.0086,1.9983,1.9835,0.0,0.0,0.0,0.0,0.0,0.0,0.0,0.0,0.0,0.0,0.0,1.0303,1.0303,1.0303,0.0,0.0,0.0,0.0,1.0303,0.0,0.0,1.178,1.2699,1.3033,1.2682,1.2813,1.2894,1.2917,1.2952,1.3918,0.0,0.0,1.5102,1.5588,1.4538,1.3972,1.3767,1.223,1.1539,1.146,1.0652,1.0673,1.111,1.0427,1.0425,1.0852,1.1254,1.148,1.1684,1.2513,1.2865,0.0,0.0,0.0,0.0,1.2309,1.1907,1.1429,0.0,0.0,0.0,0.0,0.0,0.0,0.0,0.0,0.0,0.0,0.0,0.0,0.0,0.0,0.0,1.7874,1.8116,1.8321,1.8364,1.8364,1.8379,1.843,1.843,1.843,1.843,1.8686,1.8738,1.8452,1.8694,1.873,1.8445,1.843,1.8562,1.8847,1.8855,1.8986,1.9324,1.9524,1.968,1.968,1.9931,2.0197,2.0411,2.0138,1.9983,1.9983,1.9732,1.9776,2.0034,2.0034,2.0086,2.0078,2.0078,2.0078,2.0086,2.0359,2.03,2.0086,0.0,0.0,0.0,0.0,0.0,0.0,0.0,0.0,0.0,0.0,0.0,1.0303,1.0303,1.0303,0.0,0.0,0.0,0.0,1.0303,1.1003,0.0,1.1412,1.2164,1.2505,1.2311,1.2455,1.2634,1.2859,1.2657,0.0,0.0,1.5488,1.5902,0.0,0.0,1.5068,1.4848,0.0,1.1535,1.1122,1.0617,1.0622,1.0844,1.0016,1.0303,1.1077,1.0528,1.0673,1.1224,1.1991,1.2408,1.2713,1.3148,0.0,0.0,0.0,0.0,0.0,0.0,0.0,0.0,0.0,0.0,0.0,0.0,0.0,0.0,0.0,0.0,0.0,0.0,0.0,0.0,0.0,0.0,1.7823,1.7999,1.8028,1.8094,1.8284,1.8299,1.8299,1.8299,1.843,1.846,1.8313,1.8438,1.8452,1.8313,1.8299,1.8364,1.8511,1.8518,1.8641,1.8947,1.9091,1.9383,1.987,2.0159,2.0421,2.0719,2.0462,2.0241,2.0078,1.9983,2.0086,2.03,2.03,2.0403,2.055,2.055,2.0454,2.0351,2.0617,2.0557,2.03,0.0,0.0,0.0,0.0,0.0,0.0,0.0,0.0,0.0,0.0,0.0,0.0,1.0303,0.0,0.0,0.0,0.0,0.0,1.0303,0.0,0.0,0.0,0.0,1.2166,1.1919,1.216,1.239,1.2586,0.0,0.0,1.6453,1.613,1.7134,0.0,1.7265,1.6036,0.0,0.0,0.0,0.0,1.0747,1.0682,1.0777,1.0393,1.0889,1.1636,1.066,1.0755,0.0,0.0,0.0,0.0,0.0,0.0,0.0,0.0,0.0,0.0,0.0,0.0,0.0,0.0,0.0,0.0,0.0,0.0,0.0,0.0,0.0,0.0,0.0,0.0,0.0,0.0,0.0,0.0,0.0,1.7691,1.7786,1.8028,1.8057,1.8057,1.8057,1.813,1.8145,1.8064,1.813,1.8145,1.8057,1.8106,1.8199,1.828,1.8329,1.852,1.8814,1.8863,1.9273,1.9967,2.0158,2.0448,2.079,2.0586,2.0428,2.0292,2.0241,2.0351,2.0617,2.0617,2.0719,2.0925,2.0925,2.0771,2.0624,2.0822,2.0771,2.0565,0.0,0.0,0.0,0.0,0.0,0.0,0.0,0.0,0.0,0.0,0.0,0.0,1.0303,1.0303,1.0303,1.0303,0.0,0.0,0.0,0.0,0.0,0.0,0.0,0.0,1.145,1.2005,1.2079,1.1664,0.0,0.0,1.6698,1.7307,1.8808,2.0954,1.8338,1.5927,1.3826,0.0,0.0,0.0,0.0,1.0393,1.0903,1.1752,1.2103,1.2191,1.2225,0.0,0.0,0.0,0.0,0.0,0.0,0.0,1.2022,0.0,0.0,0.0,0.0,0.0,0.0,0.0,0.0,0.0,0.0,0.0,0.0,0.0,0.0,0.0,0.0,0.0,0.0,0.0,0.0,0.0,0.0,0.0,1.7315,1.733,1.733,1.733,1.733,1.7655,1.7713,1.7399,1.7662,1.7706,1.7352,1.7579,1.7876,1.8189,1.8429,1.8725,1.9102,1.9339,1.9583,1.9892,1.9941,2.0075,2.0416,2.0424,2.0556,2.0814,2.0565,2.0617,2.0873,2.0873,2.0873,2.0925,2.0925,2.0865,2.0873,2.0865,2.0865,2.0873,0.0,0.0,0.0,0.0,0.0,0.0,0.0,0.0,0.0,0.0,0.0,0.0,0.0,1.0303,1.0303,1.0303,1.0303,0.0,0.0,0.0,0.0,0.0,0.0,0.0,0.0,1.1592,1.1778,0.0,0.0,1.3142,1.5632,1.6151,1.6979,1.7904,1.7456,1.6804,1.5789,1.2837,0.0,0.0,0.0,1.0997,1.1899,1.1832,1.2487,1.3375,0.0,0.0,0.0,0.0,0.0,0.0,1.2777,1.2428,1.1951,1.1235,0.0,0.0,0.0,0.0,0.0,0.0,0.0,0.0,0.0,0.0,0.0,0.0,0.0,0.0,0.0,0.0,0.0,0.0,0.0,0.0,0.0,0.0,0.0,1.7279,1.7279,1.7279,1.7279,1.7388,1.741,1.7286,1.7584,1.77,1.7581,1.7807,1.8,1.8129,1.8223,1.8425,1.8697,1.8926,1.9225,1.9598,1.9598,1.9773,2.0116,2.0289,2.0464,2.0599,2.0727,2.0822,2.0925,2.0925,2.0925,2.0925,2.0925,2.0925,2.0925,2.0925,2.0925,2.0873,0.0,0.0,0.0,0.0,0.0,0.0,0.0,0.0,0.0,1.0478,0.0,0.0,0.0,0.0,1.0674,1.0528,1.0488,1.043,1.0312,1.0448,0.0,0.0,0.0,0.0,0.0,1.1727,1.1902,0.0,0.0,0.0,0.0,1.5209,1.5772,1.6465,1.6537,1.6533,0.0,0.0,0.0,1.1909,0.0,0.0,1.2709,1.2936,1.3666,1.4516,0.0,0.0,0.0,0.0,0.0,0.0,1.2871,1.2346,1.1788,1.1048,1.1357,0.0,0.0,0.0,0.0,0.0,0.0,0.0,0.0,0.0,0.0,0.0,0.0,0.0,0.0,0.0,0.0,0.0,0.0,0.0,0.0,0.0,0.0,0.0,1.7426,1.7426,1.7426,1.7333,1.7333,1.7426,1.7581,0.0,1.7815,1.8094,1.828,1.8319,1.8319,1.8419,1.8612,1.8735,1.8947,1.9193,1.9193,1.9368,1.9757,1.994,2.0106,2.0234,2.0591,2.0813,2.0925,2.0925,2.0925,2.0925,2.0925,2.0925,2.0925,2.0925,2.0925,2.0865,0.0,0.0,0.0,0.0,0.0,0.0,0.0,0.0,1.0488,1.0879,0.0,0.0,0.0,0.0,0.0,1.0967,1.0918,1.0732,1.0352,1.038,0.0,0.0,0.0,0.0,0.0,1.244,1.2482,1.1591,1.2079,1.296,1.4242,0.0,1.5591,1.703,1.5668,1.5023,1.4892,0.0,1.3395,1.3018,0.0,1.3287,1.3272,0.0,0.0,0.0,1.5559,1.5393,0.0,1.437,0.0,0.0,0.0,1.2332,1.1529,1.1065,1.1271,0.0,0.0,0.0,0.0,0.0,0.0,0.0,0.0,0.0,0.0,0.0,0.0,0.0,0.0,0.0,0.0,0.0,0.0,0.0,0.0,0.0,0.0,0.0,0.0,1.7721,1.7721,1.7473,1.7426,1.7675,1.7721,1.7861,1.8087,1.8381,1.8612,1.8781,1.8781,1.8781,1.8781,1.8781,1.8781,1.8781,1.8781,1.901,1.936,1.9368,1.9598,1.9917,2.0226,2.0575,2.0909,2.0917,2.0925,2.0925,2.0925,2.0925,2.0925,2.0925,2.0925,2.0976,0.0,0.0,0.0,0.0,0.0,1.1253,1.1253,1.1253,1.1292,0.0,0.0,0.0,1.1596,1.1606,1.1557,1.1408,1.1094,1.0859,1.0742,1.0518,1.0418,1.0457,1.151,1.189,1.145,1.2396,1.2482,1.1591,1.2079,1.2328,1.2379,1.3348,1.3972,1.4306,1.4255,1.4073,1.3698,1.2436,0.0,0.0,1.2273,1.3023,0.0,0.0,0.0,0.0,0.0,1.8123,1.8095,0.0,1.7418,1.6373,0.0,0.0,1.2089,1.1944,1.2203,0.0,1.2338,0.0,0.0,0.0,0.0,0.0,0.0,0.0,0.0,0.0,0.0,0.0,0.0,0.0,0.0,0.0,0.0,0.0,0.0,0.0,0.0,0.0,0.0,0.0,1.7994,1.79,1.79,0.0,1.8195,1.8295,1.8381,1.8612,1.8743,1.8781,1.8781,1.8781,1.8781,1.8781,1.8781,1.8781,1.8781,1.8883,1.8986,1.9248,1.9471,1.9574,1.9909,2.021,2.0559,2.0813,2.0925,2.0925,2.0925,2.0925,2.0925,2.0925,2.1369,2.2072,0.0,0.0,0.0,0.0,1.1408,1.1606,1.1606,1.1606,1.1653,0.0,0.0,0.0,1.2357,1.2553,1.2514,1.2162,1.1709,1.1287,1.0907,1.0714,1.0636,1.0696,1.1507,1.1988,1.1992,1.2722,1.2717,1.1882,1.2338,1.2203,1.1531,1.2581,1.2923,1.2629,1.2843,1.2779,1.2428,0.0,0.0,0.0,1.2676,0.0,0.0,1.5431,1.6331,0.0,0.0,0.0,1.862,1.814,1.744,0.0,0.0,0.0,0.0,0.0,0.0,0.0,0.0,0.0,0.0,0.0,0.0,0.0,0.0,1.3783,0.0,0.0,0.0,0.0,0.0,0.0,0.0,0.0,0.0,0.0,0.0,0.0,0.0,0.0,0.0,0.0,1.828,1.8179,1.8133,1.828,1.8427,1.8527,1.8612,1.8743,1.8781,1.8781,1.8781,1.8781,1.8781,1.8781,1.8781,1.8827,1.9225,1.9225,1.8835,1.9499,1.9558,1.9161,1.9511,2.0007,2.0614,2.1138,2.1433,2.1623,2.2064,2.2257,2.2257,2.2257,2.261,2.3161,0.0,0.0,1.1675,1.1675,1.1714,1.1763,1.179,1.176,1.1907,0.0,1.2467,1.2798,1.3633,1.3987,1.388,1.3179,1.2607,1.195,1.1182,1.0986,1.0979,1.1152,1.1571,1.2099,1.2746,1.3185,1.3058,1.2326,1.2667,1.2365,1.1491,1.2218,1.229,1.18,1.1725,1.1556,1.125,0.0,0.0,1.2093,1.362,1.4218,0.0,0.0,1.6728,1.6729,1.698,1.7594,1.8056,1.6923,1.6372,0.0,0.0,0.0,0.0,0.0,1.3935,0.0,0.0,0.0,0.0,0.0,0.0,0.0,1.4707,1.3903,1.3127,0.0,0.0,0.0,0.0,0.0,0.0,0.0,0.0,0.0,0.0,0.0,0.0,0.0,0.0,0.0,1.8527,1.8326,1.828,1.8527,1.8527,1.8612,1.8781,1.8781,1.8781,1.8781,1.8781,1.8781,1.8781,1.892,1.8958,1.8958,1.9994,1.9985,1.9142,2.0031,1.9985,1.9158,1.9489,2.0152,2.1014,2.1839,2.2368,2.2709,2.3732,2.4088,2.4088,2.4088,2.4187,2.4285,0.0,1.1797,1.2077,1.2077,1.2393,1.2758,1.3076,1.2842,1.2925,1.3636,1.4072,1.4482,1.499,1.4805,1.459,1.4424,1.3398,1.2686,1.251,1.1504,1.1085,1.1481,1.1687,1.2011,1.2463,1.3091,1.3118,1.2541,1.2468,1.2253,1.1971,1.2112,1.2078,1.1899,1.2148,1.1691,1.0783,0.0,0.0,1.1741,1.2259,0.0,1.5218,1.5855,1.701,1.8323,1.8394,1.95,2.0907,2.0767,2.0201,1.935,0.0,0.0,0.0,1.605,1.6084,1.65,1.5991,0.0,0.0,0.0,0.0,0.0,1.3787,1.3887,1.4277,0.0,0.0,0.0,0.0,0.0,0.0,0.0,0.0,0.0,0.0,0.0,0.0,0.0,0.0,0.0,1.8743,1.8689,1.8689,1.8743,1.8743,1.8743,1.8781,1.8781,1.8781,1.8781,1.8781,1.8781,1.8781,1.9583,1.9985,2.0031,2.0979,2.1338,2.1159,2.1338,2.1338,2.1159,2.1203,2.1499,2.1988,2.3016,2.3374,2.3298,2.3861,2.4088,2.4088,2.4088,2.4639,2.5392,0.0,1.2256,1.2559,1.2559,1.291,1.3262,1.3477,1.3506,1.3809,1.463,1.5537,1.6026,1.5762,1.5576,1.5283,1.4852,1.3809,1.3008,1.2588,1.1911,1.1638,1.1885,1.2019,1.233,1.2782,1.3202,1.3182,1.2744,1.2643,1.2315,1.1746,1.215,1.2274,1.2128,1.1778,1.1768,0.0,0.0,1.0969,1.199,1.2896,0.0,1.5476,1.6272,1.7182,1.8056,1.8056,1.8696,1.9644,2.0549,2.0292,0.0,0.0,1.9205,1.9304,0.0,1.7698,1.8154,1.7015,0.0,0.0,1.65,0.0,0.0,0.0,1.4315,1.4277,1.401,0.0,0.0,0.0,0.0,0.0,0.0,0.0,0.0,0.0,0.0,0.0,0.0,0.0,0.0,1.8541,1.8565,1.8637,1.8765,1.8781,1.8781,1.8781,1.9271,1.9317,1.8827,1.972,2.0039,1.9538,2.0529,2.1015,2.1015,2.1952,2.2129,2.1739,2.2173,2.2129,2.1695,2.1695,2.2073,2.2725,2.3473,2.4004,2.4361,2.505,2.5478,2.5722,2.5722,2.6022,2.6476,0.0,1.2637,1.2905,1.2905,1.3232,1.3535,1.3588,1.389,1.4475,1.5498,1.6816,1.7422,1.6897,1.676,1.6467,1.583,1.4766,1.3773,1.2993,1.2632,1.2447,1.2447,1.2388,1.2652,1.329,1.334,1.3236,1.296,1.2841,1.2396,1.1675,1.2238,1.2428,1.2269,1.1495,0.0,0.0,0.0,0.0,1.2641,0.0,1.4611,1.5075,1.6521,1.7009,1.7077,1.7671,1.787,1.8103,1.9758,1.9952,1.9507,1.9558,2.0402,0.0,0.0,0.0,0.0,0.0,0.0,0.0,0.0,0.0,1.702,0.0,0.0,0.0,1.4632,0.0,0.0,0.0,0.0,0.0,0.0,0.0,0.0,0.0,0.0,0.0,0.0,0.0,0.0,1.7969,1.7938,1.8097,1.8589,1.8502,1.851,1.8716,1.9724,1.994,1.9096,2.0799,2.1338,2.0565,2.1507,2.1961,2.2006,2.2931,2.2974,2.2271,2.3018,2.2974,2.2227,2.2227,2.2668,2.3396,2.3796,2.4404,2.5272,2.6113,2.677,2.7175,2.7175,2.7226,2.7309,1.2812,1.2866,1.2905,1.2905,1.3232,1.3633,1.3977,1.4075,1.4699,1.6336,1.7662,1.8705,1.9404,1.915,0.0,0.0,1.7477,1.6152,1.5694,0.0,1.3359,1.3359,1.2627,1.2679,1.362,1.3356,1.3212,1.3161,1.2631,1.2471,1.2626,1.2297,1.2089,1.1965,1.2252,0.0,0.0,0.0,1.2079,0.0,1.3991,1.3733,0.0,1.5365,1.6074,1.6395,1.8942,1.9869,2.0118,0.0,2.2405,2.2494,0.0,2.1861,2.2544,2.0633,0.0,0.0,0.0,0.0,0.0,0.0,1.9135,0.0,0.0,0.0,1.6325,1.5189,0.0,0.0,0.0,0.0,0.0,0.0,0.0,0.0,0.0,0.0,0.0,0.0,0.0,0.0,1.6864,1.6627,1.6841,1.7862,1.7318,1.7331,1.8311,1.9582,2.0257,2.0121,2.1159,2.165,2.1561,2.2482,2.2921,2.2965,2.3907,2.4272,2.4186,2.4272,2.4272,2.4186,2.4186,2.4229,2.4368,2.442,2.473,2.523,2.5771,2.6293,2.6687,2.6687,2.6957,2.7309,1.2905,1.2905,1.2905,1.2905,1.3232,1.3652,1.4046,1.5595,1.6892,1.7379,1.8809,1.9795,0.0,0.0,0.0,0.0,0.0,1.695,0.0,0.0,1.4609,1.4609,1.3606,1.3387,1.4024,1.3481,1.3194,1.3194,1.2706,1.2558,1.2686,1.2403,1.2646,1.3308,1.3366,0.0,1.4865,0.0,1.3266,0.0,0.0,0.0,0.0,1.6663,1.7922,1.8548,1.9754,2.0187,2.0326,0.0,2.1564,0.0,0.0,0.0,0.0,0.0,0.0,0.0,0.0,0.0,0.0,0.0,0.0,0.0,1.7068,0.0,1.6239,0.0,0.0,0.0,0.0,0.0,0.0,0.0,0.0,0.0,0.0,0.0,0.0,0.0,0.0,0.0,1.5777,1.6183,1.6603,1.7104,1.6992,1.7211,1.7982,1.9815,2.0651,2.0294,2.2271,2.3071,2.2526,2.3464,2.3907,2.3907,2.4315,2.4497,2.4497,2.4497,2.4497,2.4497,2.4497,2.4497,2.4497,2.4497,2.4611,2.4807,2.5026,2.5544,2.621,2.621,2.6511,2.6905,1.2905,0.0,0.0,0.0,1.3232,1.3769,1.4513,1.6697,1.8276,1.835,1.9686,0.0,2.0615,2.0352,0.0,0.0,1.92,1.8418,0.0,0.0,1.6123,1.6123,1.4869,1.434,1.4701,1.3941,1.3469,1.3314,1.2898,1.2686,1.2686,1.2549,1.3012,1.3884,1.4185,1.5153,1.644,0.0,0.0,1.5748,1.4544,1.4968,1.6458,1.8176,1.9384,2.0232,2.0503,2.0602,2.0632,2.0897,2.1207,0.0,2.206,0.0,0.0,0.0,0.0,0.0,2.1248,0.0,0.0,0.0,0.0,0.0,0.0,0.0,0.0,0.0,0.0,0.0,0.0,0.0,0.0,0.0,0.0,0.0,0.0,0.0,0.0,0.0,0.0,0.0,0.0,1.5453,1.5886,1.6315,1.6496,1.6955,1.7831,2.0079,2.1185,2.0882,2.3221,2.4176,2.3497,2.4176,2.4497,2.4497,2.4497,2.4497,2.4497,2.4497,2.4497,2.4497,2.4497,2.4497,2.4497,2.4497,2.4497,2.4497,2.4497,2.4933,2.5523,2.5658,2.5989,2.6449,1.2905,1.2905,0.0,0.0,0.0,1.4072,1.5772,1.6838,1.7895,1.9082,0.0,0.0,0.0,0.0,0.0,0.0,0.0,2.1387,2.0498,0.0,1.793,1.793,1.6269,1.5477,0.0,1.4897,1.418,1.3597,1.3132,1.2882,1.2882,1.2824,1.281,1.2917,1.4402,1.4818,1.4437,1.4987,1.6173,1.7653,1.7021,1.8067,1.9949,0.0,1.9368,2.0322,2.1284,0.0,0.0,2.2241,2.2575,0.0,0.0,0.0,0.0,0.0,0.0,0.0,0.0,0.0,0.0,1.9803,0.0,0.0,0.0,0.0,1.805,0.0,0.0,0.0,0.0,0.0,0.0,0.0,0.0,0.0,0.0,0.0,0.0,0.0,0.0,0.0,0.0,1.4115,1.4175,0.0,1.55,1.6261,1.792,2.0331,2.1887,2.2324,2.3728,2.4497,2.4454,2.4497,2.4497,2.4497,2.4497,2.4497,2.4497,2.4497,2.4497,2.4497,2.4497,2.4497,2.4497,2.4497,2.4497,2.4497,2.4497,2.4518,2.459,2.5044,2.5533,2.6013,0.0,0.0,0.0,0.0,0.0,1.3786,1.5782,1.7562,1.9102,0.0,0.0,0.0,0.0,2.3359,2.3361,0.0,0.0,2.2515,2.1011,2.0187,0.0,0.0,0.0,1.6877,0.0,0.0,0.0,0.0,0.0,0.0,0.0,0.0,0.0,1.3906,1.5206,1.6281,0.0,0.0,0.0,0.0,0.0,1.9695,2.0243,0.0,2.0933,2.1329,2.228,2.2731,0.0,2.3109,2.3215,2.3249,2.3263,2.3274,2.332,2.3247,2.3361,2.335,0.0,0.0,2.3122,2.0969,0.0,0.0,0.0,0.0,0.0,0.0,0.0,0.0,0.0,0.0,0.0,0.0,0.0,0.0,0.0,0.0,0.0,0.0,0.0,0.0,0.0,0.0,0.0,0.0,1.4992,0.0,1.7128,1.9562,2.1209,2.1909,2.3366,2.425,2.4497,2.4497,2.4497,2.4497,2.4497,2.4497,2.4497,2.4497,2.4497,2.4497,2.4497,2.4497,2.4497,2.4497,2.4497,2.4497,2.4497,2.4497,2.4518,2.4673,2.5013,2.5564,1.3535,0.0,0.0,0.0,0.0,0.0,1.6281,0.0,0.0,0.0,2.2207,0.0,2.3916,0.0,2.3951,0.0,2.4061,2.3641,2.2168,2.1739,0.0,2.126,1.9648,0.0,0.0,0.0,0.0,0.0,0.0,1.4306,0.0,0.0,0.0,0.0,0.0,1.6957,1.8276,0.0,1.9881,0.0,0.0,2.1193,0.0,0.0,2.2006,2.1828,0.0,2.3232,2.3363,2.3363,2.3444,2.3511,2.3664,2.3628,2.3556,2.3728,2.3731,2.3639,2.3474,2.365,0.0,2.1787,2.1135,0.0,1.862,0.0,0.0,0.0,0.0,0.0,0.0,0.0,0.0,0.0,0.0,0.0,0.0,0.0,0.0,0.0,0.0,0.0,0.0,0.0,1.3305,1.3944,1.4781,0.0,0.0,1.9297,2.1103,2.1969,2.3237,2.4084,2.4497,2.4497,2.4497,2.4497,2.4497,2.4497,2.4497,2.4497,2.4497,2.4497,2.4497,2.4497,2.4497,2.4497,2.4497,2.4497,2.4497,2.4497,2.4497,2.4497,2.4797,2.5272,0.0,0.0,0.0,0.0,1.4629,0.0,0.0,0.0,2.0918,0.0,2.2676,2.3481,2.4385,2.4482,2.4648,2.5116,2.5145,2.4746,2.3906,2.3457,0.0,0.0,2.1726,2.0948,2.022,0.0,0.0,0.0,0.0,0.0,0.0,0.0,0.0,0.0,1.5706,0.0,1.773,1.9222,2.0585,2.1837,2.2731,2.2555,2.1784,2.2731,2.2511,2.1828,2.2775,2.3101,2.3135,2.3135,2.3319,2.3547,2.3547,2.3851,2.4206,2.4206,2.4325,2.4404,2.4022,2.3908,2.3588,2.2242,2.188,0.0,0.0,0.0,2.0928,0.0,0.0,0.0,0.0,0.0,0.0,0.0,0.0,0.0,0.0,0.0,0.0,0.0,0.0,0.0,0.0,0.0,1.3046,1.3314,1.4792,0.0,0.0,1.9553,2.1455,2.2428,2.336,2.4074,2.4497,2.4497,2.4497,2.4497,2.4497,2.4497,2.4497,2.4497,2.4497,2.4497,2.4497,2.4497,2.4497,2.4497,2.4497,2.4497,2.4497,2.4497,2.4497,2.4497,2.4776,2.5158,1.4026,1.4746,1.5547,0.0,1.5595,1.6034,0.0,0.0,0.0,0.0,2.3564,2.4378,2.5255,2.5352,2.5391,2.5557,2.5566,0.0,0.0,0.0,0.0,2.3935,2.2803,2.208,2.1897,2.0096,0.0,1.7685,0.0,0.0,1.4969,0.0,0.0,0.0,0.0,0.0,1.8143,1.9735,2.1281,2.2775,2.3003,2.2555,2.1784,0.0,2.2511,2.1828,2.2775,2.3232,2.3406,2.3406,2.3677,2.4024,2.4024,2.4206,2.4411,2.4411,2.4454,2.4476,2.4363,2.4332,2.4209,2.3515,2.2832,2.2108,0.0,0.0,0.0,0.0,0.0,0.0,0.0,0.0,0.0,0.0,0.0,0.0,0.0,0.0,0.0,0.0,0.0,0.0,0.0,0.0,1.3455,1.3728,1.4593,0.0,0.0,0.0,2.0327,2.1932,2.2884,2.3743,2.4487,2.4497,2.4497,2.4497,2.4497,2.4497,2.4497,2.4497,2.4497,2.4497,2.4497,2.4497,2.4497,2.4497,2.4497,2.4497,2.4497,2.4497,2.4497,2.4497,2.458,2.4724,1.5029,0.0,0.0,1.7974,0.0,0.0,1.9268,2.0215,0.0,2.2886,2.4053,0.0,2.5391,2.5947,2.6249,2.6249,2.6249,0.0,2.54,0.0,0.0,2.4443,2.3916,2.3457,2.3086,2.1514,0.0,1.8964,0.0,0.0,1.5174,0.0,0.0,0.0,0.0,1.6768,0.0,2.0517,2.208,2.3091,2.3091,2.2775,0.0,2.2916,2.2775,2.2413,2.3047,2.3363,2.3503,2.3503,2.3807,2.4206,2.4206,2.4335,2.4497,2.4497,2.4497,2.4497,2.4497,2.4497,2.4435,2.4229,2.3774,2.3225,2.2563,2.2615,2.2656,0.0,2.2325,2.2439,0.0,0.0,0.0,0.0,0.0,0.0,0.0,0.0,0.0,0.0,0.0,0.0,0.0,0.0,0.0,0.0,0.0,0.0,0.0,0.0,1.9934,2.1166,2.249,2.3525,2.425,2.4404,2.4497,2.4497,2.4497,2.4497,2.4497,2.4497,2.4497,2.4497,2.4497,2.4497,2.4497,2.4497,2.4497,2.4497,2.4497,2.4497,2.4497,2.4497,2.4497,2.4538,0.0,0.0,0.0,0.0,0.0,0.0,0.0,2.1721,0.0,2.3315,0.0,2.537,2.537,2.6338,2.7012,2.7012,0.0,2.6699,2.5908,2.626,2.5937,2.4727,2.498,2.4756,2.3896,2.2978,2.1752,0.0,0.0,0.0,0.0,0.0,0.0,0.0,0.0,0.0,0.0,2.1311,2.2705,2.3091,2.3091,2.3135,2.3135,2.3135,2.3178,2.3222,2.346,2.3503,2.3503,2.3547,2.3807,2.4206,2.4206,2.4335,2.4497,2.4497,2.4497,2.4497,2.4497,2.4497,2.4497,2.4497,2.4497,2.429,2.3546,2.337,2.337,2.337,2.2729,2.2594,2.397,0.0,0.0,0.0,0.0,0.0,0.0,0.0,0.0,0.0,0.0,0.0,0.0,0.0,0.0,0.0,0.0,0.0,0.0,0.0,1.9717,2.0364,2.2159,2.335,2.3867,2.4322,2.4497,2.4497,2.4497,2.4497,2.4497,2.4497,2.4497,2.4497,2.4497,2.4497,2.4497,2.4497,2.4497,2.4497,2.4497,2.4497,2.4497,2.4497,2.4497,2.4497,0.0,0.0,0.0,0.0,0.0,2.2852,2.3623,2.3584,2.3896,2.507,2.6094,2.667,2.667,2.6875,2.7012,2.7012,2.7012,0.0,0.0,0.0,0.0,2.6064,2.5771,2.5205,2.4326,2.3135,2.1752,0.0,0.0,0.0,0.0,0.0,0.0,0.0,0.0,0.0,1.9967,2.149,0.0,2.3091,2.3091,2.3232,2.3416,2.3416,2.3537,2.3667,2.3711,2.3634,2.3547,2.3667,2.3937,2.4206,2.4206,2.4335,2.4497,2.4497,2.4497,2.4497,2.4497,2.4497,2.4497,2.4497,2.4497,2.4456,2.4301,2.4259,2.4259,2.4259,2.4135,2.3774,2.3008,0.0,0.0,0.0,0.0,0.0,0.0,0.0,0.0,0.0,0.0,0.0,0.0,0.0,0.0,0.0,0.0,0.0,0.0,0.0,1.838,0.0,2.1849,2.3018,0.0,0.0,2.4497,2.4497,2.4497,2.4497,2.4497,2.4497,2.4497,2.4497,2.4497,2.4497,2.4497,2.4497,2.4497,2.4497,2.4497,2.4497,2.4497,2.4497,2.4497,2.4497,0.0,0.0,0.0,0.0,0.0,0.0,0.0,2.5644,2.5781,2.5693,2.6289,2.6689,2.6689,2.7275,2.7676,2.7676,2.7676,2.7588,2.7373,2.7353,2.7158,2.6728,2.6299,2.5771,2.507,2.3838,2.2418,2.0877,0.0,0.0,0.0,0.0,0.0,0.0,0.0,1.8431,0.0,0.0,0.0,2.3477,2.3609,2.388,2.4177,2.4312,2.4446,2.4535,2.4678,2.4678,2.4519,2.4142,2.4153,2.4378,2.4378,2.4411,2.4497,2.4497,2.4497,2.4497,2.4497,2.4497,2.4497,2.4497,2.4497,2.4497,2.4497,2.4497,2.4497,2.4497,2.4497,2.4073,2.2749,2.1559,0.0,0.0,0.0,0.0,0.0,0.0,0.0,0.0,0.0,0.0,0.0,0.0,0.0,0.0,0.0,0.0,0.0,0.0,1.7833,0.0,0.0,0.0,2.3515,0.0,2.4497,2.4497,2.4497,2.4497,2.4497,2.4497,2.4497,2.4497,2.4497,2.4497,2.4497,2.4497,2.4497,2.4497,2.4497,2.4497,2.4497,2.4497,2.4497,2.4497,0.0,2.2363,0.0,0.0,2.456,0.0,2.6367,2.7256,2.7432,2.6416,2.6582,2.6787,2.6787,2.7695,2.8291,2.8291,2.8291,2.8154,2.7875,2.7855,2.7607,2.7178,2.6836,2.6377,2.5703,2.4727,2.3359,0.0,0.0,0.0,0.0,0.0,0.0,0.0,0.0,0.0,0.0,0.0,2.3231,2.4016,2.4296,2.4641,2.4985,2.5178,2.5315,2.5361,2.5599,2.5644,2.5532,2.4815,2.4656,2.4766,2.4673,2.4642,2.4621,2.4528,2.4497,2.4497,2.4497,2.4497,2.4497,2.4497,2.4497,2.4497,2.4497,2.4497,2.4497,2.4497,2.4497,2.4104,2.2873,2.2201,0.0,0.0,0.0,0.0,0.0,0.0,0.0,0.0,0.0,0.0,0.0,0.0,0.0,0.0,0.0,0.0,1.5111,1.6138,1.7419,0.0,0.0,2.2056,2.2884,0.0,2.4497,2.4497,2.4497,2.4497,2.4497,2.4497,2.4497,2.4497,2.4497,2.4497,2.4497,2.4497,2.4497,2.4497,2.4497,2.4497,2.4497,2.4497,2.4497,2.4497,0.0,0.0,0.0,0.0,0.0,0.0,2.6934,2.7685,2.8193,2.8066,2.8086,2.8115,2.8115,2.8223,2.8291,2.8291,2.8291,2.8271,2.8232,2.8232,2.8047,2.7679,2.762,2.6982,2.5713,2.5567,2.4362,0.0,0.0,1.9188,0.0,0.0,0.0,0.0,0.0,0.0,0.0,2.308,2.3931,2.4733,2.4981,2.5285,2.5518,2.5564,2.5679,2.584,2.5885,2.5885,2.5875,2.5782,2.5751,2.5689,2.5251,2.5127,2.5044,2.4621,2.4497,2.4497,2.4497,2.4497,2.4497,2.4497,2.4497,2.4497,2.4497,2.4497,2.4497,2.4497,2.4497,2.4208,2.3298,2.3722,2.335,0.0,0.0,0.0,0.0,0.0,0.0,0.0,0.0,0.0,0.0,1.421,0.0,0.0,0.0,0.0,1.5556,1.5742,1.6622,1.8414,2.0224,2.1424,2.1932,2.3629,2.4497,2.4497,2.4497,2.4497,2.4497,2.4497,2.4497,2.4497,2.4497,2.4497,2.4497,2.4497,2.4497,2.4497,2.4497,2.4497,2.4497,2.4497,2.4497,2.4497,0.0,0.0,0.0,0.0,0.0,0.0,0.0,2.8076,2.8291,2.8291,2.8291,2.8291,2.8291,2.8291,2.8291,2.8291,2.8291,2.8291,2.8291,2.8291,2.8223,2.8047,2.7855,2.7422,2.6904,2.6133,2.5018,0.0,0.0,0.0,0.0,0.0,0.0,0.0,0.0,2.2268,2.31,2.4092,2.4836,2.5421,2.569,2.6011,2.6417,2.6547,2.6677,2.675,2.675,2.675,2.675,2.675,2.6387,2.5889,2.5668,2.5616,2.5533,2.5044,2.491,2.4848,2.458,2.4497,2.4497,2.4497,2.4497,2.4497,2.4497,2.4497,2.4497,2.4497,2.4497,2.4383,2.4022,2.3857,2.3463,2.2635,0.0,0.0,0.0,0.0,0.0,0.0,0.0,0.0,0.0,0.0,0.0,0.0,0.0,0.0,1.4914,1.5444,1.627,1.7513,0.0,2.1342,2.1797,2.3588,2.4497,2.4497,2.4497,2.4497,2.4497,2.4497,2.4497,2.4497,2.4497,2.4497,2.4497,2.4497,2.4497,2.4497,2.4497,2.4497,2.4497,2.4497,2.4497,2.4497,2.6015,0.0,2.6006,0.0,2.7246,2.7441,2.834,2.8584,2.8672,2.8672,2.8672,2.8574,2.832,2.8291,2.8291,2.8291,2.8291,2.8291,2.8291,2.8291,2.8291,2.8291,2.8008,0.0,2.7718,2.6869,2.6025,2.5208,2.3829,0.0,0.0,0.0,0.0,0.0,2.293,2.381,2.4336,2.5249,2.5817,2.6175,2.6437,2.6726,2.7034,2.7214,2.7309,2.7309,2.7309,2.7309,2.7309,2.7309,2.6874,2.6304,2.6169,2.6127,2.5999,2.5554,2.542,2.5282,2.4828,2.4704,2.4662,2.4528,2.4497,2.4497,2.4497,2.4497,2.4497,2.4497,2.4497,2.4497,2.4497,2.4022,2.3515,2.3308,0.0,0.0,0.0,0.0,0.0,0.0,1.8278,1.7141,1.6288,0.0,0.0,0.0,0.0,0.0,0.0,0.0,0.0,0.0,0.0,0.0,2.2004,2.365,2.4497,2.4497,2.4497,2.4497,2.4497,2.4497,2.4497,2.4497,2.4497,2.4497,2.4497,2.4497,2.4497,2.4497,2.4497,2.4497,2.4497,2.4497,2.4497,2.4497,2.6836,2.6992,2.7266,2.8125,2.8613,2.8896,2.8906,2.9277,2.9551,2.9551,2.9551,2.9238,2.8389,2.8291,2.8291,2.8291,2.8291,2.8291,2.8291,2.8291,2.8291,0.0,0.0,2.8096,2.7728,2.7939,2.7515,2.6367,0.0,0.0,2.3737,0.0,2.3629,2.4466,2.4952,2.553,2.6186,2.6465,2.6697,2.689,2.7167,2.7299,2.7309,2.7309,2.7309,2.7309,2.7309,2.7309,2.7309,2.7309,2.7299,2.7216,2.675,2.6604,2.6511,2.6055,2.5875,2.5771,2.5303,2.5179,2.5065,2.4611,2.4497,2.4497,2.4497,2.4497,2.4497,2.4497,2.4497,2.4497,2.4497,2.4487,2.3887,2.2128,0.0,0.0,0.0,0.0,0.0,0.0,1.7575,1.6665,1.5784,0.0,0.0,0.0,0.0,0.0,0.0,0.0,0.0,1.9679,2.0627,0.0,2.248,2.3815,2.4497,2.4497,2.4497,2.4497,2.4497,2.4497,2.4497,2.4497,2.4497,2.4497,2.4497,2.4497,2.4497,2.4497,2.4497,2.4497,2.4497,2.4497,2.4497,2.4497,2.8262,2.8555,2.8848,2.9121,2.9268,2.9365,2.9365,2.9482,2.9626,2.9626,2.9626,2.9463,2.9189,2.916,2.916,0.0,2.8887,2.8721,0.0,2.8447,2.8291,2.8291,2.8291,2.8232,2.8096,2.8107,2.7924,2.7554,0.0,0.0,0.0,2.5261,2.5171,2.5471,2.5937,2.6264,2.6527,2.7183,2.7534,2.7603,2.801,2.7997,2.7717,2.7717,2.7521,2.7309,2.7309,2.7309,2.7309,2.7309,2.7309,2.7278,2.7133,2.7092,2.6998,2.6532,2.6397,2.6248,2.5792,2.5461,2.5148,2.5003,2.4735,2.4497,2.4497,2.4497,2.4497,2.4497,2.4497,2.4497,2.4497,2.4497,2.4104,2.2946,2.2998,0.0,0.0,0.0,0.0,0.0,1.8516,1.7843,0.0,1.7198,0.0,0.0,0.0,0.0,0.0,0.0,0.0,0.0,2.0928,0.0,2.2501,2.3815,2.4497,2.4497,2.4497,2.4497,2.4497,2.4497,2.4497,2.4497,2.4497,2.4497,2.4497,2.4497,2.4497,2.4497,2.4497,2.4497,2.4497,2.4497,2.4497,2.4497,2.916,2.9385,2.9626,2.9626,2.9697,2.9805,2.9805,2.9951,3.0068,3.0068,3.0068,3.0068,3.0068,3.0068,0.0,2.9655,2.9316,2.916,2.916,2.8916,2.8701,2.8535,2.8525,2.8511,2.8461,2.845,0.0,2.8458,2.8208,2.7774,2.7181,2.6987,2.69,2.692,2.721,2.7334,2.7376,2.7945,2.8183,2.8204,2.8493,2.8442,2.8183,2.8183,2.8007,2.7748,2.7572,2.751,2.7479,2.7361,2.7309,2.7309,2.7309,2.7309,2.7247,2.6957,2.6874,2.677,2.6304,2.5937,2.5647,2.5272,2.4972,2.4714,2.4538,2.4497,2.4497,2.4497,2.4497,2.4497,2.4497,2.4497,2.4197,2.3339,2.3184,2.2646,2.1073,0.0,0.0,0.0,0.0,0.0,0.0,1.853,1.8457,0.0,0.0,0.0,0.0,0.0,1.9191,1.9903,2.1766,2.2925,2.3256,2.4073,2.4497,2.4497,2.4497,2.4497,2.4497,2.4497,2.4497,2.4497,2.4497,2.4497,2.4497,2.4497,2.4497,2.4497,2.4497,2.4497,2.4497,2.4497,2.4497,2.4528,2.9619,2.9695,2.9658,0.0,2.999,3.0244,3.0244,3.0615,3.0889,3.0889,3.0889,3.0889,3.0889,3.0889,3.0557,2.9792,0.0,0.0,2.9675,2.9646,2.945,2.8984,2.8965,2.8878,2.8734,2.9023,2.9162,2.9185,2.9021,2.8686,2.8288,2.8518,2.8618,2.8618,2.8618,2.8618,2.8618,2.8649,2.8659,2.8659,2.869,2.869,2.8659,2.8659,2.8638,2.8556,2.8121,2.7976,2.7903,2.7537,2.7382,2.7351,2.7351,2.733,2.7309,2.7309,2.7309,2.7216,2.6781,2.6635,2.6372,2.5533,2.523,2.5065,2.4611,2.4497,2.4497,2.4497,2.4497,2.4497,2.4497,2.4497,2.4197,2.3339,2.3163,2.2501,2.0643,0.0,0.0,0.0,0.0,0.0,1.8642,1.9409,1.9917,0.0,0.0,0.0,0.0,0.0,1.9841,2.2418,2.2977,2.366,2.4487,2.4497,2.4497,2.4497,2.4497,2.4497,2.4497,2.4497,2.4497,2.4497,2.4497,2.4497,2.4497,2.4497,2.4497,2.4497,2.4497,2.4497,2.4497,2.4497,2.4497,2.4569,0.0,0.0,3.0576,3.0576,3.0664,3.0723,3.0723,3.082,3.0889,3.0889,3.0889,3.0889,3.0889,3.0889,3.081,3.0596,3.0502,3.0418,3.0418,3.0326,3.0143,2.9767,2.9757,2.9559,2.9253,2.9493,2.9698,2.9784,2.9384,2.9147,2.9023,2.8733,2.8618,2.8618,2.8618,2.8618,2.8638,2.899,2.9135,2.9177,2.9528,2.9456,2.9135,2.9135,2.8918,2.8597,2.8483,2.8452,2.8431,2.8328,2.8059,2.7769,2.7769,2.7531,2.7309,2.7309,2.7309,2.7289,2.7175,2.6884,2.6563,2.631,2.574,2.5065,2.4611,2.4497,2.4497,2.4497,2.4497,2.4497,2.4497,2.4497,2.4197,2.3339,2.2894,2.2139,2.0602,2.0385,0.0,0.0,2.0203,2.0586,2.0483,2.099,2.1031,0.0,0.0,2.1114,2.1114,2.1373,2.1828,2.248,2.3287,2.3981,2.4487,2.4497,2.4497,2.4497,2.4497,2.4497,2.4497,2.4497,2.4497,2.4497,2.4497,2.4497,2.4497,2.4497,2.4497,2.4497,2.4497,2.4497,2.4497,2.4497,2.4497,2.4569,3.0518,3.0723,3.0889,3.0889,3.0889,3.0889,3.0889,3.0889,3.0889,3.0889,3.0889,3.0889,3.0889,3.0889,3.0889,3.0889,3.0953,3.0978,3.0978,3.1044,3.0926,3.0502,3.038,3.0237,3.0063,3.0108,3.0167,3.0315,3.0056,2.9829,2.9611,2.9363,2.9249,2.9249,2.9249,2.9249,2.9259,2.9508,2.9622,2.9642,2.9891,2.9849,2.9622,2.9622,2.9466,2.9218,2.9001,2.8928,2.8897,2.868,2.8442,2.8235,2.8235,2.8069,2.7841,2.7624,2.7417,2.7309,2.7309,2.7123,2.6884,2.6667,2.5896,2.5127,2.4869,2.4652,2.4497,2.4497,2.4497,2.4497,2.4497,2.4497,2.4197,2.3339,2.2977,2.2325,2.0938,2.0705,2.0731,2.07,2.1135,2.16,2.2025,2.2294,2.2232,2.1725,2.1921,0.0,2.2066,2.2739,2.3132,2.3132,2.3815,2.4302,2.4497,2.4497,2.4497,2.4497,2.4497,2.4497,2.4497,2.4497,2.4497,2.4497,2.4497,2.4497,2.4497,2.4497,2.4497,2.4497,2.4497,2.4497,2.4497,2.4497,2.4497,2.459,3.0889,3.0889,3.0889,3.0889,3.0889,3.0889,3.0889,3.0889,3.0889,3.0889,3.0889,3.0889,3.0947,3.0947,3.1005,3.1005,3.1276,3.1441,3.1383,3.174,3.1731,3.1291,3.1064,3.0967,3.1003,3.0776,3.0683,3.0791,3.0791,3.0553,3.0098,3.0098,3.0067,2.9994,2.9994,2.9994,2.9994,2.9994,2.9994,2.9994,2.9994,2.9994,2.9994,2.9994,2.9994,2.9942,2.9549,2.9415,2.9342,2.8959,2.8773,2.8721,2.8721,2.8669,2.8535,2.8142,2.7707,2.7392,2.733,2.7309,2.7195,2.6729,2.5999,2.5354,2.522,2.489,2.458,2.4507,2.4497,2.4497,2.4497,2.4497,2.4177,2.3246,2.308,2.2594,2.1207,0.0,2.1362,2.1756,2.1994,2.2428,2.3215,2.3298,2.3318,2.3381,2.3329,2.3318,2.3391,2.3764,2.3981,2.3981,2.4301,2.4497,2.4497,2.4497,2.4497,2.4497,2.4497,2.4497,2.4497,2.4497,2.4497,2.4497,2.4497,2.4497,2.4497,2.4497,2.4497,2.4497,2.4497,2.4497,2.4497,2.4497,2.4538,2.4724,3.0889,3.0889,3.0889,3.0889,3.0889,3.0889,3.0889,3.0889,3.0889,3.0889,3.0889,3.1005,3.1218,3.1218,3.1334,3.1624,3.196,3.2018,3.173,3.2258,3.241,3.2156,3.2089,3.1875,3.1472,3.1336,3.1285,3.1267,3.1267,3.1029,3.0584,3.0584,3.0367,2.9994,2.9994,2.9994,2.9994,2.9994,2.9994,2.9994,2.9994,2.9994,2.9994,2.9994,2.9994,2.9984,2.9911,2.9891,2.988,2.9808,2.9518,2.9197,2.9197,2.8928,2.8597,2.8524,2.8183,2.7738,2.7413,2.7309,2.7195,2.6729,2.6511,2.6165,2.5365,2.5127,2.4972,2.458,2.4497,2.4497,2.4497,2.4497,2.4073,2.2811,2.2604,2.2118,2.0731,0.0,2.1725,2.1797,2.2842,2.3619,2.3764,2.3774,2.3929,2.4259,2.3981,2.3939,2.427,2.4363,2.4394,2.4394,2.4466,2.4497,2.4497,2.4497,2.4497,2.4497,2.4497,2.4497,2.4497,2.4497,2.4497,2.4497,2.4497,2.4497,2.4497,2.4497,2.4497,2.4497,2.4497,2.4497,2.4497,2.4497,2.4745,2.5148,3.0889,3.0889,3.0889,3.0889,3.0889,3.0889,3.0889,3.0889,3.0889,3.0889,3.1005,3.116,3.1267,3.1441,3.1614,3.1787,3.2143,3.2248,3.2076,3.2498,3.2612,3.2487,3.2373,3.2213,3.1999,3.204,3.1981,3.1733,3.1733,3.1505,3.106,3.106,3.0946,3.0729,3.0481,3.0367,3.0356,3.0098,2.9994,2.9994,2.9994,2.9994,2.9994,2.9994,2.9994,2.9994,2.9994,2.9994,2.9994,2.9994,2.9849,2.9673,2.9673,2.9528,2.9311,2.9063,2.8483,2.7821,2.7423,2.7309,2.7258,2.704,2.6801,2.6511,2.6051,2.5575,2.5127,2.491,2.4673,2.4497,2.4497,2.4497,2.4218,2.3381,2.3029,2.2646,2.2004,2.2066,2.2366,2.2863,2.3484,2.4054,2.4409,2.4314,2.4365,2.469,2.4428,2.428,2.4487,2.4497,2.4497,2.4497,2.4497,2.4497,2.4497,2.4497,2.4497,2.4497,2.4497,2.4497,2.4497,2.4497,2.4497,2.4497,2.4497,2.4497,2.4497,2.4497,2.4497,2.4497,2.4497,2.4497,2.4497,2.4497,2.4797,2.5251,3.0889,3.0889,3.0889,3.0889,3.0889,3.0889,3.0889,3.0889,3.0889,3.0889,3.1102,3.1325,3.1392,3.173,3.196,3.2028,3.2248,3.2373,3.2373,3.2612,3.2669,3.2669,3.2487,3.2373,3.2373,3.2612,3.2494,3.2142,3.2142,3.1971,3.1536,3.1536,3.1474,3.136,3.1008,3.0853,3.0822,3.047,3.0315,3.0315,3.0201,3.016,3.0149,3.0036,2.9994,2.9994,2.9994,2.9994,2.9994,2.9994,2.9994,2.9994,2.9994,2.9994,2.9922,2.957,2.8887,2.8121,2.7562,2.7382,2.7309,2.7309,2.704,2.675,2.6635,2.603,2.5513,2.5409,2.4972,2.4662,2.4662,2.4569,2.4321,2.3805,0.0,2.3277,2.306,2.2904,2.308,2.3795,2.3971,2.4294,2.4829,2.47,2.4658,2.4861,2.47,2.4583,2.4497,2.4497,2.4497,2.4497,2.4497,2.4497,2.4497,2.4497,2.4497,2.4497,2.4497,2.4497,2.4497,2.4497,2.4497,2.4497,2.4497,2.4497,2.4497,2.4497,2.4497,2.4497,2.4497,2.4497,2.4497,2.4497,2.4859,2.543,3.0889,3.0889,3.0889,3.0889,3.0889,3.0889,3.0889,3.0889,3.0889,3.0889,3.1102,3.1441,3.173,3.2076,3.2373,3.2612,3.2669,3.2669,3.2669,3.268,3.2669,3.2669,3.2669,3.2669,3.2669,3.268,3.2659,3.2628,3.2628,3.239,3.1936,3.1936,3.1774,3.1381,3.134,3.1329,3.1329,3.1288,3.1278,3.1236,3.0801,3.0636,3.0584,3.016,2.9994,2.9994,2.9994,2.9994,2.9994,2.9994,2.9994,2.9994,2.9994,2.9994,2.9984,2.9953,2.9591,2.9011,2.811,2.7572,2.7309,2.7309,2.7278,2.7143,2.6718,2.6563,2.6351,2.5916,2.5482,2.5137,2.5137,2.4786,2.4208,2.3381,0.0,0.0,2.2666,2.3256,2.3805,2.3867,2.424,2.4584,2.4861,2.4861,2.4861,2.4903,2.4861,2.4786,2.4497,2.4497,2.4497,2.4497,2.4497,2.4497,2.4497,2.4497,2.4497,2.4497,2.4497,2.4497,2.4497,2.4497,2.4497,2.4497,2.4497,2.4497,2.4497,2.4497,2.4497,2.4497,2.4497,2.4497,2.4497,2.4497,2.5088,2.5834,3.0889,3.0889,3.0889,3.0889,3.0889,3.0889,3.0889,3.0889,3.0947,3.1112,3.145,3.173,3.2076,3.2373,3.2612,3.2669,3.2669,3.2669,3.2669,3.2669,3.2669,3.2669,3.2669,3.2669,3.2669,3.2669,3.2669,3.2669,3.2669,3.2587,3.2411,3.2411,3.2375,3.2199,3.1919,3.1785,3.1774,3.1495,3.1381,3.136,3.1184,3.1112,3.1091,3.0915,3.0853,3.0812,3.0532,3.0419,3.0377,3.0087,2.9994,2.9994,2.9994,2.9994,2.9994,2.9994,2.9673,2.9228,2.8876,2.8235,2.7603,2.7372,2.7309,2.7258,2.7081,2.6822,2.6563,2.6387,2.5947,2.5554,2.5241,2.5044,2.4724,2.4126,0.0,2.3846,2.3774,2.3836,2.3981,2.426,2.4394,2.4625,2.4861,2.4743,2.4743,2.4903,2.4743,2.4625,2.4497,2.4497,2.4497,2.4497,2.4497,2.4497,2.4497,2.4497,2.4497,2.4497,2.4497,2.4497,2.4497,2.4497,2.4497,2.4497,2.4497,2.4497,2.4497,2.4497,2.4497,2.4497,2.4497,2.4497,2.4538,2.4817,2.5357,2.5875,3.0889,3.0947,3.1005,3.1005,3.1005,3.1054,3.117,3.1112,3.1112,3.1441,3.173,3.2018,3.2248,3.2555,3.2669,3.2669,3.2669,3.2669,3.2669,3.2669,3.2669,3.2669,3.2669,3.2669,3.2669,3.2669,3.2669,3.2669,3.2669,3.2669,3.2669,3.2669,3.2669,3.2659,3.2339,3.2204,3.2184,3.194,3.1805,3.1795,3.165,3.1588,3.1567,3.1433,3.1381,3.134,3.1019,3.0905,3.0833,3.0367,3.0212,3.018,3.0046,2.9994,2.9994,2.9994,2.9766,2.9487,2.9342,2.8835,2.8214,2.7614,2.7413,2.7309,2.7309,2.7061,2.6832,2.6832,2.647,2.5999,2.5709,2.5375,2.5086,2.4766,2.4385,2.4188,2.4456,2.4281,2.4198,2.4466,2.4497,2.4625,2.4861,2.4743,2.47,2.4903,2.4743,2.4583,2.4497,2.4497,2.4497,2.4497,2.4497,2.4497,2.4497,2.4497,2.4497,2.4497,2.4497,2.4497,2.4497,2.4497,2.4497,2.4497,2.4497,2.4497,2.4497,2.4497,2.4497,2.4497,2.4497,2.4497,2.4559,2.5024,2.5502,2.5941,3.0889,3.1112,3.1325,3.1325,3.1325,3.1441,3.173,3.1498,3.1441,3.1787,3.2076,3.2305,3.2305,3.2555,3.2669,3.2669,3.2669,3.2669,3.2669,3.2669,3.2669,3.2669,3.2669,3.2669,3.2669,3.2669,3.2669,3.2669,3.2669,3.2669,3.2669,3.2669,3.2669,3.2669,3.2669,3.2669,3.2669,3.2669,3.2669,3.2638,3.2173,3.1988,3.1946,3.1557,3.1391,3.1391,3.1381,3.1381,3.1309,3.0853,3.0698,3.0605,3.0149,2.9994,2.9994,2.9994,2.9994,2.9891,2.9435,2.9301,2.9083,2.8152,2.7593,2.7309,2.7309,2.7309,2.7309,2.7309,2.6946,2.6615,2.6615,2.5844,2.5199,2.5189,2.4807,2.4507,2.4497,2.4497,2.4497,2.4497,2.4497,2.4615,2.4861,2.4903,2.4903,2.4903,2.4903,2.4786,2.4497,2.4497,2.4497,2.4497,2.4497,2.4497,2.4497,2.4497,2.4497,2.4497,2.4497,2.4497,2.4497,2.4497,2.4497,2.4497,2.4497,2.4497,2.4497,2.4497,2.4497,2.4497,2.4497,2.4497,2.4559,2.5024,2.5502,2.5937,3.116,3.1276,3.1325,3.1325,3.1498,3.1614,3.1441,3.1556,3.1787,3.2143,3.2248,3.2363,3.2555,3.2669,3.2669,3.2669,3.2669,3.2669,3.2669,3.2669,3.2669,3.2669,3.2669,3.2669,3.2669,3.2669,3.2669,3.2669,3.2669,3.2669,3.2669,3.2669,3.2669,3.2669,3.2669,3.2669,3.2669,3.2669,3.2669,3.2659,3.2525,3.2463,3.2452,3.2375,3.2323,3.2282,3.1961,3.1836,3.1774,3.1319,3.1174,3.1091,3.0626,3.0263,2.9994,2.9994,2.9994,2.9963,2.9829,2.9549,2.9083,2.8152,2.7821,2.7645,2.7382,2.7309,2.7309,2.7309,2.7195,2.6998,2.6677,2.6351,2.5968,2.5292,2.5075,2.4869,2.4549,2.4497,2.4497,2.4497,2.4497,2.454,2.4625,2.4615,2.4615,2.4615,2.4615,2.4583,2.4497,2.4497,2.4497,2.4497,2.4497,2.4497,2.4497,2.4497,2.4497,2.4497,2.4497,2.4497,2.4497,2.4497,2.4497,2.4497,2.4497,2.4497,2.4497,2.4497,2.4497,2.4497,2.4497,2.4497,2.4559,2.5024,2.5272,2.544,3.1276,3.1392,3.1556,3.1672,3.1845,3.196,3.1855,3.1971,3.2143,3.243,3.243,3.2487,3.2669,3.2669,3.2669,3.2669,3.2669,3.2669,3.2669,3.2669,3.2669,3.2669,3.2669,3.2669,3.2669,3.2669,3.2669,3.2669,3.2669,3.2669,3.2669,3.2669,3.2669,3.2669,3.2669,3.2669,3.2669,3.2669,3.2669,3.2669,3.2669,3.2669,3.2669,3.2669,3.2669,3.2638,3.2359,3.2256,3.2184,3.1785,3.1526,3.1329,3.105,3.0636,3.0274,3.0274,3.0139,2.9994,2.9994,2.9787,2.9404,2.8659,2.8328,2.8079,2.7624,2.7521,2.7469,2.734,2.7309,2.7216,2.6946,2.6739,2.6392,2.5854,2.5606,2.5326,2.4838,2.4776,2.4704,2.4518,2.4497,2.4497,2.4497,2.4497,2.4497,2.4497,2.4497,2.4497,2.4497,2.4497,2.4497,2.4497,2.4497,2.4497,2.4497,2.4497,2.4497,2.4497,2.4497,2.4497,2.4497,2.4497,2.4497,2.4497,2.4497,2.4497,2.4497,2.4497,2.4497,2.4497,2.4497,2.4497,2.4559,2.5024,2.5189,2.521,3.1267,3.1614,3.196,3.2248,3.2305,3.243,3.2612,3.2487,3.243,3.2669,3.2669,3.2669,3.2669,3.2669,3.2669,3.2669,3.2669,3.2669,3.2669,3.2669,3.2669,3.2669,3.2669,3.2669,3.2669,3.2669,3.2669,3.2669,3.2669,3.2669,3.2669,3.2669,3.2669,3.2669,3.2669,3.2669,3.2669,3.2669,3.2669,3.2669,3.2669,3.2669,3.2669,3.2669,3.2669,3.2669,3.2669,3.2669,3.2607,3.2184,3.1805,3.1433,3.1433,3.1122,3.0739,3.0698,3.0387,3.0046,3.0005,2.9994,2.9891,2.9477,2.9052,2.8607,2.81,2.7955,2.781,2.7455,2.734,2.7309,2.7309,2.6957,2.6667,2.6625,2.6262,2.5792,2.5347,2.5241,2.5075,2.4621,2.4559,2.4549,2.4507,2.4497,2.4497,2.4497,2.4497,2.4497,2.4497,2.4497,2.4497,2.4497,2.4497,2.4497,2.4497,2.4497,2.4497,2.4497,2.4497,2.4497,2.4497,2.4497,2.4497,2.4497,2.4497,2.4497,2.4497,2.4497,2.4497,2.4497,2.4497,2.4497,2.4549,2.4972,2.5127,2.5223,3.1614,3.196,3.219,3.2315,3.2487,3.2555,3.243,3.2487,3.2612,3.2669,3.2669,3.2669,3.2669,3.2669,3.2669,3.2669,3.2669,3.2669,3.2669,3.2669,3.2669,3.2669,3.2669,3.2669,3.2669,3.2669,3.2669,3.2669,3.2669,3.2669,3.2669,3.2669,3.2669,3.2669,3.2669,3.2669,3.2669,3.2669,3.2669,3.2669,3.2669,3.2669,3.2669,3.2669,3.2669,3.2669,3.2669,3.2669,3.2659,3.2556,3.2282,3.1899,3.1899,3.1588,3.1153,3.0791,3.0615,3.046,3.0098,2.9994,2.9973,2.987,2.9766,2.9477,2.8649,2.8183,2.7893,2.78,2.75,2.7309,2.7309,2.7226,2.704,2.6677,2.6532,2.6258,2.5802,2.574,2.5575,2.5086,2.5034,2.489,2.4538,2.4497,2.4497,2.4497,2.4497,2.4497,2.4497,2.4497,2.4497,2.4497,2.4497,2.4497,2.4497,2.4497,2.4497,2.4497,2.4497,2.4497,2.4497,2.4497,2.4497,2.4497,2.4497,2.4497,2.4497,2.4497,2.4497,2.4497,2.4497,2.4497,2.4507,2.4611,2.4652,2.4781,3.196,3.219,3.2373,3.2487,3.2612,3.2669,3.2487,3.2612,3.2669,3.2669,3.2669,3.2669,3.2669,3.2669,3.2669,3.2669,3.2669,3.2669,3.2669,3.2669,3.2669,3.2669,3.2669,3.2669,3.2669,3.2669,3.2669,3.2669,3.2669,3.2669,3.2669,3.2669,3.2669,3.2669,3.2669,3.2669,3.2669,3.2669,3.2669,3.2669,3.2669,3.2669,3.2669,3.2669,3.2669,3.2669,3.2669,3.2669,3.2669,3.2669,3.2514,3.2308,3.2308,3.2064,3.165,3.1402,3.1029,3.0636,3.0387,3.016,2.9994,2.9994,2.9994,2.9808,2.9104,2.8752,2.8514,2.8297,2.7893,2.7572,2.7572,2.7455,2.7226,2.6988,2.6946,2.6781,2.6324,2.6252,2.6041,2.5595,2.5544,2.5451,2.5202,2.4952,2.4828,2.4828,2.4621,2.4497,2.4497,2.4497,2.4497,2.4497,2.4497,2.4497,2.4497,2.4497,2.4497,2.4497,2.4497,2.4497,2.4497,2.4497,2.4497,2.4497,2.4497,2.4497,2.4497,2.4497,2.4497,2.4497,2.4497,2.4497,2.4497,2.4497,2.4497,2.4583,3.2248,3.2373,3.243,3.2669,3.2669,3.2669,3.2669,3.2669,3.2669,3.2669,3.2669,3.2669,3.2669,3.2669,3.2669,3.2669,3.2669,3.2669,3.2669,3.2669,3.2669,3.2669,3.2669,3.2669,3.2669,3.2669,3.2669,3.2669,3.2669,3.2669,3.2669,3.2669,3.2669,3.2669,3.2669,3.2669,3.2669,3.2669,3.2669,3.2669,3.2669,3.2669,3.2669,3.2669,3.2669,3.2669,3.2669,3.2669,3.2669,3.2669,3.2669,3.2669,3.2669,3.2411,3.2081,3.2008,3.1505,3.0884,3.0729,3.0408,3.0098,3.0015,2.9994,2.9891,2.9508,2.9363,2.9197,2.8804,2.8359,2.8017,2.7886,2.7624,2.7392,2.732,2.7309,2.7175,2.6781,2.6739,2.6563,2.6096,2.5927,2.5875,2.5875,2.5554,2.5303,2.5303,2.4941,2.4724,2.4724,2.4724,2.4724,2.4724,2.4724,2.4693,2.4621,2.4621,2.458,2.4497,2.4497,2.4497,2.4497,2.4497,2.4497,2.4497,2.4497,2.4497,2.4497,2.4497,2.4497,2.4497,2.4497,2.4497,2.4497,2.4497,2.4497,2.4497,3.2315,3.2498,3.2669,3.2669,3.2669,3.2669,3.2669,3.2669,3.2669,3.2669,3.2669,3.2669,3.2669,3.2669,3.2669,3.2669,3.2669,3.2669,3.2669,3.2669,3.2669,3.2669,3.2669,3.2669,3.2669,3.2669,3.2669,3.2669,3.2669,3.2669,3.2669,3.2669,3.2669,3.2669,3.2669,3.2669,3.2669,3.2669,3.2669,3.2669,3.2669,3.2669,3.2669,3.2669,3.2669,3.2669,3.2669,3.2669,3.2669,3.2669,3.2669,3.2669,3.2669,3.2685,3.2504,3.2101,3.1895,3.1681,3.0895,3.0636,3.0501,3.0098,2.9994,2.9973,2.9911,2.9591,2.929,2.9228,2.8835,2.84,2.7948,2.7872,2.7707,2.7372,2.7309,2.7289,2.7226,2.7216,2.704,2.6573,2.6169,2.5875,2.5875,2.5823,2.5792,2.5792,2.573,2.5699,2.5699,2.5699,2.5699,2.5699,2.5699,2.5523,2.5096,2.5096,2.489,2.4497,2.4497,2.4497,2.4497,2.4497,2.4497,2.4497,2.4497,2.4497,2.4497,2.4497,2.4497,2.4497,2.4497,2.4497,2.4497,2.4497,2.4497,2.4497,3.2487,3.2612,3.2669,3.2669,3.2669,3.2669,3.2669,3.2669,3.2669,3.2669,3.2669,3.2669,3.2669,3.2669,3.2669,3.2669,3.2669,3.2669,3.2669,3.2669,3.2669,3.2669,3.2669,3.2669,3.2669,3.2669,3.2669,3.2669,3.2669,3.2669,3.2669,3.2669,3.2669,3.2669,3.2669,3.2669,3.2669,3.2669,3.2669,3.2669,3.2669,3.2669,3.2669,3.2669,3.2669,3.2669,3.2669,3.2669,3.2669,3.2669,3.2669,3.2669,3.2669,3.2669,3.2638,3.2432,3.2184,3.1895,3.1557,3.1071,3.0636,3.0429,3.018,2.9994,2.9994,2.9839,2.9684,2.9684,2.9321,2.8938,2.8731,2.8276,2.7852,2.7665,2.7475,2.7309,2.7309,2.7309,2.7226,2.7029,2.6822,2.6698,2.6698,2.6459,2.6304,2.6304,2.6065,2.5875,2.5875,2.5875,2.5875,2.5875,2.5875,2.5792,2.5595,2.5595,2.5492,2.5285,2.5285,2.5026,2.4497,2.4497,2.4497,2.4497,2.4497,2.4497,2.4497,2.4497,2.4497,2.4497,2.4497,2.4497,2.4497,2.4497,2.4497,2.4497]}]]